[[{"header":{"parameterUnit":"m.s-1","parameterCategory":1,"la1":30.6,"la2":29.2853,"lo1":-89.7004,"lo2":-87.6739,"dx":0.0162,"dy":0.0183,"nx":112,"ny":82,"refTime":"2022-11-28T18:00:00:Z","depth":0,"parameterNumber":2,"parameterNumberName":"U-component_of_WINDS"},"data":[0.0,0.0,0.0,0.0,0.0,0.0,0.0,0.0,0.0,0.0,0.0,0.0,0.0,0.0,0.0,0.0,0.0,0.0,0.0,0.0,0.0,0.0,0.0,0.0,0.0,0.0,0.0,0.0,0.0,0.0,0.0,0.0,0.0,0.0,0.0,0.0,0.0,0.0,0.0,0.0,0.0,0.0,0.0,0.0,0.0,0.0,0.0,0.0,0.0,0.0,0.0,0.0,0.0,0.0,0.0,0.0,0.0,0.0,0.0,0.0,0.0,0.0,0.0,0.0,0.0,0.0,0.0,0.0,0.0,0.0,0.0,0.0,0.0,0.0,0.0,0.0,0.0,0.0,0.0,0.0,0.0,0.0,0.0,0.0,0.0,0.0,0.0,0.0,0.0,0.0,1.7522,1.9394,2.1016,2.17,2.0957,2.041,1.9414,1.779,0.0,0.0,0.0,0.0,0.0,0.0,0.0,0.0,0.0,0.0,0.0,0.0,0.0,0.0,0.0,0.0,0.0,0.0,0.0,0.0,0.0,0.0,0.0,0.0,0.0,0.0,0.0,0.0,0.0,0.0,0.0,0.0,0.0,0.0,0.0,0.0,0.0,0.0,0.0,0.0,0.0,0.0,0.0,0.0,0.0,0.0,0.0,0.0,0.0,0.0,0.0,0.0,0.0,0.0,0.0,0.0,0.0,0.0,0.0,0.0,0.0,0.0,0.0,0.0,0.0,0.0,0.0,0.0,0.0,0.0,0.0,0.0,0.0,0.0,0.0,0.0,0.0,0.0,0.0,0.0,0.0,0.0,0.0,0.0,0.0,0.0,0.0,0.0,0.0,0.0,0.0,0.0,0.0,0.0,0.0,0.0,0.0,0.0,0.0,0.0,0.0,0.0,0.0,0.0,1.8223,2.0664,2.1796,2.2363,2.2227,2.1464,2.043,1.91,0.0,0.0,0.0,0.0,0.0,0.0,0.0,0.0,0.0,0.0,0.0,0.0,0.0,0.0,0.0,0.0,0.0,0.0,0.0,0.0,0.0,0.0,0.0,0.0,0.0,0.0,0.0,0.0,0.0,0.0,0.0,0.0,0.0,0.0,0.0,0.0,0.0,0.0,0.0,0.0,0.0,0.0,0.0,0.0,0.0,0.0,0.0,0.0,0.0,0.0,0.0,0.0,0.0,0.0,0.0,0.0,0.0,0.0,0.0,0.0,0.0,0.0,0.0,0.0,0.0,0.0,0.0,0.0,0.0,0.0,0.0,0.0,0.0,0.0,0.0,0.0,0.0,0.0,0.0,0.0,0.0,0.0,0.0,0.0,0.0,0.0,0.0,0.0,0.0,0.0,0.0,0.0,0.0,0.0,0.0,0.0,0.0,0.0,0.0,0.0,0.0,0.0,0.0,1.8535,2.0079,2.1737,2.2459,2.2732,2.2539,2.1698,2.0664,1.9393,1.7288,0.0,0.0,0.0,0.0,0.0,0.0,0.0,0.0,0.0,0.0,0.0,0.0,0.0,0.0,0.0,0.0,0.0,0.0,0.0,0.0,0.0,0.0,0.0,0.0,0.0,0.0,0.0,0.0,0.0,0.0,0.0,0.0,0.0,0.0,0.0,0.0,0.0,0.0,0.0,0.0,0.0,0.0,0.0,0.0,0.0,0.0,0.0,0.0,0.0,0.0,0.0,0.0,0.0,0.0,0.0,0.0,0.0,0.0,0.0,0.0,0.0,0.0,0.0,0.0,0.0,0.0,0.0,0.0,0.0,0.0,0.0,0.0,0.0,0.0,0.0,0.0,0.0,0.0,0.0,0.0,0.0,0.0,0.0,0.0,0.0,0.0,0.0,0.0,0.0,0.0,0.0,0.0,0.0,0.0,0.0,0.0,0.0,0.0,0.0,0.0,0.0,0.0,2.041,2.1581,2.2559,2.2927,2.3025,2.2832,2.1913,2.0859,1.9686,1.7874,0.0,0.0,0.0,0.0,0.0,0.0,0.0,0.0,0.0,0.0,0.0,0.0,0.0,0.0,0.0,0.0,0.0,0.0,0.0,0.0,0.0,0.0,0.0,0.0,0.0,0.0,0.0,0.0,0.0,0.0,0.0,0.0,0.0,0.0,0.0,0.0,0.0,0.0,0.0,0.0,0.0,0.0,0.0,0.0,0.0,0.0,0.0,0.0,0.0,0.0,0.0,0.0,0.0,0.0,0.0,0.0,0.0,0.0,0.0,0.0,0.0,0.0,0.0,0.0,0.0,0.0,0.0,0.0,0.0,0.0,0.0,0.0,0.0,0.0,0.0,0.0,0.0,0.0,0.0,0.0,0.0,0.0,0.0,0.0,0.0,0.0,0.0,0.0,0.0,0.0,0.0,0.0,0.0,0.0,0.0,0.0,0.0,0.0,0.0,0.0,0.0,0.0,2.041,2.1698,2.301,2.3125,2.3279,2.3672,2.258,2.1466,2.0566,1.8514,0.0,0.0,0.0,0.0,0.0,0.0,0.0,0.0,0.0,0.0,0.0,0.0,0.0,0.0,0.0,0.0,0.0,0.0,0.0,0.0,0.0,0.0,0.0,0.0,0.0,0.0,0.0,0.0,0.0,0.0,0.0,0.0,0.0,0.0,0.0,0.0,0.0,0.0,0.0,0.0,0.0,0.0,0.0,0.0,0.0,0.0,0.0,0.0,0.0,0.0,0.0,0.0,0.0,0.0,0.0,0.0,0.0,0.0,0.0,0.0,0.0,0.0,0.0,0.0,0.0,0.0,0.0,0.0,0.0,0.0,0.0,0.0,0.0,0.0,0.0,0.0,0.0,0.0,0.0,0.0,0.0,0.0,0.0,0.0,0.0,0.0,0.0,0.0,0.0,0.0,0.0,0.0,0.0,0.0,0.0,0.0,0.0,0.0,0.0,0.0,0.0,0.0,2.123,2.2401,2.346,2.3789,2.3884,2.3809,2.2852,2.1817,2.0683,0.0,0.0,0.0,0.0,0.0,0.0,0.0,0.0,0.0,0.0,0.0,0.0,0.0,0.0,0.0,0.0,0.0,0.0,0.0,0.0,0.0,0.0,0.0,0.0,0.0,0.0,0.0,0.0,0.0,0.0,0.0,0.0,0.0,0.0,0.0,0.0,0.0,0.0,0.0,0.0,0.0,0.0,0.0,0.0,0.0,0.0,0.0,0.0,0.0,0.0,0.0,0.0,0.0,0.0,0.0,0.0,0.0,0.0,0.0,0.0,0.0,0.0,0.0,0.0,0.0,0.0,0.0,0.0,0.0,0.0,0.0,0.0,0.0,0.0,0.0,0.0,0.0,0.0,0.0,0.0,0.0,0.0,0.0,0.0,0.0,0.0,0.0,0.0,0.0,0.0,0.0,0.0,0.0,0.0,0.0,0.0,0.0,0.0,0.0,0.0,0.0,0.0,2.0586,2.1914,2.3086,2.4082,2.4336,2.4355,2.4222,2.3281,2.2147,2.0879,0.0,0.0,0.0,0.0,0.0,0.0,0.0,0.0,0.0,0.0,0.0,0.0,0.0,0.0,0.0,0.0,0.0,0.0,0.0,0.0,0.0,0.0,0.0,0.0,0.0,0.0,0.0,0.0,0.0,0.0,0.0,0.0,0.0,0.0,0.0,0.0,0.0,0.0,0.0,0.0,0.0,0.0,0.0,0.0,0.0,0.0,0.0,0.0,0.0,0.0,0.0,0.0,0.0,0.0,0.0,0.0,0.0,0.0,0.0,0.0,0.0,0.0,0.0,0.0,0.0,0.0,0.0,0.0,0.0,0.0,0.0,0.0,0.0,0.0,0.0,0.0,0.0,0.0,0.0,0.0,0.0,0.0,0.0,0.0,0.0,0.0,0.0,0.0,0.0,0.0,0.0,0.0,0.0,0.0,0.0,0.0,0.0,0.0,0.0,0.0,0.0,0.0,2.0976,2.2321,2.363,2.4965,2.4707,2.4609,2.5063,2.3864,2.2574,0.0,0.0,0.0,0.0,0.0,0.0,0.0,0.0,0.0,0.0,0.0,0.0,0.0,0.0,0.0,0.0,0.0,0.0,0.0,0.0,0.0,0.0,0.0,0.0,0.0,0.0,0.0,0.0,0.0,0.0,0.0,0.0,0.0,0.0,0.0,0.0,0.0,0.0,0.0,0.0,0.0,0.0,0.0,0.0,0.0,0.0,0.0,0.0,0.0,0.0,0.0,0.0,0.0,0.0,0.0,0.0,0.0,0.0,0.0,0.0,0.0,0.0,0.0,0.0,0.0,0.0,0.0,0.0,0.0,0.0,0.0,0.0,0.0,0.0,0.0,0.0,0.0,0.0,0.0,0.0,0.0,0.0,0.0,0.0,0.0,0.0,0.0,0.0,0.0,0.0,0.0,0.0,0.0,0.0,0.0,0.0,0.0,0.0,0.0,0.0,0.0,0.0,0.0,2.1465,2.3045,2.441,2.5406,2.5932,2.603,2.5562,2.4586,2.3474,2.2186,0.0,0.0,0.0,0.0,0.0,0.0,0.0,0.0,0.0,0.0,0.0,0.0,0.0,0.0,0.0,0.0,0.0,0.0,0.0,0.0,0.0,0.0,0.0,0.0,0.0,0.0,0.0,0.0,0.0,0.0,0.0,0.0,0.0,0.0,0.0,0.0,0.0,0.0,0.0,0.0,0.0,0.0,0.0,0.0,0.0,0.0,0.0,0.0,0.0,0.0,0.0,0.0,0.0,0.0,0.0,0.0,0.0,0.0,0.0,0.0,0.0,0.0,0.0,0.0,0.0,0.0,0.0,0.0,0.0,0.0,0.0,0.0,0.0,0.0,0.0,0.0,0.0,0.0,0.0,0.0,0.0,0.0,0.0,0.0,0.0,0.0,0.0,0.0,0.0,0.0,0.0,0.0,0.0,0.0,0.0,0.0,0.0,0.0,0.0,0.0,0.0,0.0,2.2168,2.373,2.5078,2.6108,2.6674,2.685,2.6543,2.5523,2.4371,2.3105,0.0,0.0,0.0,0.0,0.0,0.0,0.0,0.0,0.0,0.0,0.0,0.0,0.0,0.0,0.0,0.0,0.0,0.0,0.0,0.0,0.0,0.0,0.0,0.0,0.0,0.0,0.0,0.0,0.0,0.0,0.0,0.0,0.0,0.0,0.0,0.0,0.0,0.0,0.0,0.0,0.0,0.0,0.0,0.0,0.0,0.0,0.0,0.0,0.0,0.0,0.0,0.0,0.0,0.0,0.0,0.0,0.0,0.0,0.0,0.0,0.0,0.0,0.0,0.0,0.0,0.0,0.0,0.0,0.0,0.0,0.0,0.0,0.0,0.0,0.0,0.0,0.0,0.0,0.0,0.0,0.0,0.0,0.0,0.0,0.0,0.0,0.0,0.0,0.0,0.0,0.0,0.0,0.0,0.0,0.0,0.0,0.0,0.0,0.0,0.0,0.0,0.0,2.3003,2.4414,2.5766,2.6992,2.7181,2.7383,2.7721,2.6621,2.5347,2.4062,0.0,0.0,0.0,0.0,0.0,0.0,0.0,0.0,0.0,0.0,0.0,0.0,0.0,0.0,0.0,0.0,0.0,0.0,0.0,0.0,0.0,0.0,0.0,0.0,0.0,0.0,0.0,0.0,0.0,0.0,0.0,0.0,0.0,0.0,0.0,0.0,0.0,0.0,0.0,0.0,0.0,0.0,0.0,0.0,0.0,0.0,0.0,0.0,0.0,0.0,0.0,0.0,0.0,0.0,0.0,0.0,0.0,0.0,0.0,0.0,1.7623,1.6313,0.0,0.0,0.0,0.0,0.0,0.0,0.0,0.0,0.0,0.0,0.0,0.0,0.0,0.0,0.0,0.0,0.0,0.0,0.0,0.0,0.0,0.0,0.0,0.0,0.0,0.0,0.0,0.0,0.0,0.0,0.0,0.0,0.0,0.0,0.0,0.0,0.0,0.0,0.0,0.0,2.3942,2.5586,2.6973,2.791,2.866,2.8816,2.8203,2.7624,2.6699,2.5386,2.418,0.0,0.0,0.0,0.0,0.0,0.0,0.0,0.0,0.0,0.0,0.0,0.0,0.0,0.0,0.0,0.0,0.0,0.0,0.0,0.0,0.0,0.0,0.0,0.0,0.0,0.0,0.0,0.0,0.0,0.0,0.0,0.0,0.0,0.0,0.0,0.0,0.0,0.0,0.0,0.0,0.0,0.0,0.0,0.0,0.0,0.0,0.0,0.0,0.0,0.0,0.0,0.0,0.0,0.0,0.0,0.0,0.0,0.0,0.0,1.9519,1.8145,0.0,0.0,0.0,0.0,0.0,0.0,0.0,0.0,0.0,0.0,0.0,0.0,0.0,0.0,0.0,0.0,0.0,0.0,0.0,0.0,0.0,0.0,0.0,0.0,0.0,0.0,0.0,0.0,0.0,0.0,0.0,0.0,0.0,0.0,0.0,0.0,0.0,0.0,0.0,0.0,2.5176,2.6523,2.7734,2.8816,2.9324,2.95,2.9238,2.8633,2.7812,2.6738,2.5644,0.0,0.0,0.0,0.0,0.0,0.0,0.0,0.0,0.0,0.0,0.0,0.0,0.0,0.0,0.0,0.0,0.0,0.0,0.0,0.0,0.0,0.0,0.0,0.0,0.0,0.0,0.0,0.0,0.0,0.0,0.0,0.0,0.0,0.0,0.0,0.0,0.0,0.0,0.0,0.0,0.0,0.0,0.0,0.0,0.0,0.0,0.0,0.0,0.0,0.0,0.0,0.0,0.0,2.2211,2.2635,2.2482,2.2793,2.3162,2.3477,2.2251,2.0966,1.9743,1.988,0.0,0.0,0.0,0.0,0.0,0.0,0.0,0.0,0.0,0.0,0.0,0.0,0.0,0.0,0.0,0.0,0.0,0.0,0.0,0.0,0.0,0.0,2.1485,2.2365,2.2871,2.2791,2.1425,0.0,0.0,0.0,0.0,0.0,0.0,0.0,0.0,0.0,0.0,0.0,2.6412,2.7389,2.8367,2.9579,2.9774,2.9931,3.0176,2.9551,2.8789,2.7956,2.7115,2.5781,0.0,0.0,0.0,0.0,0.0,0.0,0.0,0.0,0.0,0.0,0.0,0.0,0.0,0.0,0.0,0.0,0.0,0.0,0.0,0.0,0.0,0.0,0.0,0.0,0.0,0.0,0.0,0.0,0.0,0.0,0.0,0.0,1.478,1.5181,0.0,0.0,0.0,0.0,0.0,0.0,0.0,0.0,0.0,0.0,0.0,0.0,0.0,2.1035,2.1563,2.2077,2.2665,2.3381,2.3551,2.4002,2.4672,2.473,2.498,2.5328,2.4804,0.0,2.1505,2.0781,0.0,0.0,0.0,0.0,0.0,0.0,0.0,0.0,0.0,0.0,0.0,0.0,0.0,0.0,0.0,0.0,0.0,0.0,0.0,0.0,0.0,0.0,2.4118,2.4996,2.5566,2.5918,2.6055,2.373,2.1622,2.1583,2.0938,2.0684,0.0,0.0,0.0,0.0,0.0,0.0,2.735,2.8242,2.9101,3.0019,3.0469,3.0595,3.0234,3.0098,2.9668,2.8809,2.7995,2.7233,2.6498,2.4215,0.0,0.0,0.0,0.0,0.0,0.0,0.0,0.0,0.0,0.0,0.0,0.0,0.0,0.0,0.0,0.0,0.0,0.0,0.0,0.0,0.0,0.0,0.0,0.0,0.0,0.0,0.0,0.0,0.0,1.5488,1.6196,1.7077,1.7366,1.7598,0.0,0.0,0.0,0.0,0.0,0.0,0.0,0.0,0.0,2.207,2.2674,2.322,2.3694,2.4102,2.4606,2.5254,2.5254,2.5727,2.6548,2.6548,2.6783,2.7148,2.6744,2.5884,2.4648,2.3047,2.2404,2.2345,0.0,0.0,0.0,0.0,2.1465,2.1445,2.1445,2.1465,2.1485,2.1485,0.0,0.0,0.0,0.0,0.0,0.0,0.0,2.4176,2.4828,2.563,2.6348,2.6719,2.7148,2.75,2.7695,2.6392,2.5004,2.4535,2.3906,2.3594,2.3962,2.4176,0.0,0.0,0.0,2.7285,2.8601,2.9258,2.998,3.084,3.1113,3.1152,3.0957,3.0937,3.0566,2.9687,2.909,2.8464,2.7754,2.6147,2.4957,0.0,0.0,0.0,0.0,0.0,0.0,0.0,0.0,0.0,0.0,0.0,0.0,0.0,0.0,0.0,0.0,0.0,0.0,0.0,0.0,0.0,0.0,0.0,0.0,0.0,0.0,0.0,0.0,1.7109,1.7796,1.8966,1.9202,1.9397,0.0,0.0,0.0,0.0,0.0,0.0,2.25,2.2658,2.3264,2.4414,2.4766,2.5176,2.5747,2.6074,2.6445,2.69,2.69,2.7291,2.8015,2.8015,2.8249,2.8621,2.8191,2.7793,2.7318,2.5293,2.4394,2.4258,2.3903,2.3786,2.3851,2.3968,2.3984,2.3962,2.4079,2.4141,2.4163,2.4163,2.4141,2.4098,2.4098,0.0,0.0,0.0,0.0,2.6323,2.6894,2.75,2.8093,2.8445,2.8758,2.9023,2.9266,2.8973,2.8288,2.6998,2.6342,2.6069,2.6186,2.6206,0.0,2.7357,2.7773,2.8484,2.9774,3.0176,3.0703,3.1601,3.168,3.168,3.168,3.168,3.1406,3.0742,3.0224,2.9657,2.8984,2.791,2.6836,2.5786,0.0,0.0,0.0,0.0,0.0,0.0,0.0,0.0,0.0,0.0,0.0,0.0,0.0,0.0,0.0,0.0,0.0,0.0,0.0,0.0,0.0,0.0,0.0,0.0,0.0,0.0,0.0,0.0,0.0,2.0371,2.084,0.0,0.0,0.0,0.0,2.2383,2.3164,2.3828,2.4235,2.4711,2.5356,2.6255,2.6269,2.6724,2.7545,2.7585,2.78,2.8203,2.8203,2.8437,2.882,2.882,2.9101,2.952,2.9043,2.882,2.8664,2.6973,2.6016,2.5596,2.5577,2.5581,2.564,2.6074,2.6255,2.6289,2.668,2.6816,2.6816,2.6816,2.6816,2.6791,2.6791,2.6811,0.0,0.0,2.7565,2.778,2.8574,2.8828,2.9152,3.043,3.0742,3.0976,3.1827,3.1621,3.0586,2.8112,2.7246,2.709,2.7526,0.0,2.7878,2.8664,2.882,2.9336,3.0644,3.084,3.1191,3.2081,3.2159,3.2159,3.2159,3.2159,3.214,3.2101,3.1289,3.0801,3.0762,2.9121,2.8008,2.7565,2.5864,0.0,0.0,0.0,0.0,0.0,0.0,0.0,0.0,0.0,0.0,0.0,0.0,0.0,0.0,0.0,0.0,0.0,0.0,0.0,0.0,0.0,0.0,0.0,0.0,0.0,0.0,0.0,0.0,2.2108,2.2596,0.0,2.3652,2.4007,2.4277,2.4547,2.5137,2.5644,2.605,2.6529,2.7037,2.7598,2.7871,2.8164,2.8476,2.8777,2.9129,2.9512,2.9512,2.9746,3.0195,3.0195,3.0273,3.0439,3.0254,3.0019,2.9687,2.9082,2.8262,2.7383,2.7383,2.7383,2.7402,2.7559,2.7617,2.7637,2.7793,2.7832,2.7832,2.7832,2.7832,2.7832,2.7832,2.8027,2.8254,2.8437,2.9082,2.9833,3.0117,3.0586,3.1133,3.1631,3.1749,3.1827,3.214,3.2081,3.169,3.0771,3.0028,2.9551,2.9735,2.9774,2.9941,3.0479,3.0557,3.0859,3.1651,3.1749,3.1964,3.255,3.2609,3.2609,3.2609,3.2609,3.2492,3.2218,3.1905,3.1749,3.1749,3.0586,2.9746,2.9324,2.7871,2.6504,0.0,0.0,0.0,0.0,0.0,0.0,0.0,0.0,0.0,0.0,0.0,0.0,0.0,0.0,0.0,0.0,0.0,0.0,0.0,0.0,0.0,0.0,0.0,0.0,0.0,2.168,2.2697,2.3649,2.4043,2.4593,2.5454,2.5669,2.5918,2.6348,2.6797,2.7226,2.7611,2.793,2.8367,2.8906,2.9199,2.9414,2.957,2.9863,3.0234,3.0644,3.0644,3.0879,3.1358,3.1358,3.1358,3.1358,3.1358,3.1152,3.0859,3.0859,3.04,2.9579,2.8973,2.8758,2.8777,2.8887,2.9043,2.9219,2.9492,2.9637,2.9637,2.9637,2.9637,2.9637,2.9637,2.9785,3.0019,3.0019,3.0644,3.1377,3.1504,3.1953,3.2492,3.2785,3.2843,3.2883,3.3019,3.3058,3.3058,3.3058,3.2207,3.1523,3.1523,3.1641,3.1836,3.2079,3.2118,3.2324,3.2785,3.2843,3.3,3.3398,3.3437,3.3437,3.3437,3.3437,3.332,3.3078,3.2785,3.2598,3.2598,3.1777,3.1113,3.0644,2.9238,2.7949,2.6842,0.0,0.0,0.0,0.0,0.0,0.0,0.0,0.0,0.0,0.0,0.0,0.0,0.0,0.0,0.0,0.0,0.0,0.0,0.0,0.0,0.0,0.0,0.0,2.2537,2.2971,2.3756,2.5004,2.516,2.5512,2.6387,2.6836,2.7246,2.7721,2.8151,2.8535,2.8918,2.8937,2.9375,3.0215,3.0234,3.0469,3.0918,3.0937,3.1133,3.1513,3.1513,3.1758,3.2198,3.2198,3.2198,3.2198,3.2198,3.2198,3.2198,3.2198,3.2198,3.2022,3.0341,2.9676,2.9735,3.0098,3.0547,3.1055,3.1905,3.2198,3.2198,3.2198,3.2198,3.2198,3.2218,3.2218,3.2218,3.2237,3.2257,3.2355,3.2734,3.2851,3.3066,3.3919,3.4114,3.4231,3.4609,3.4707,3.4726,3.4726,3.375,3.291,3.2871,3.3184,3.3425,3.3425,3.3425,0.0,3.4075,3.4114,3.429,3.4648,3.4707,3.4707,3.4707,3.4707,3.4707,3.4707,3.3926,3.3425,3.3425,3.2656,3.2012,3.1562,2.9835,2.8547,2.7682,0.0,0.0,0.0,0.0,0.0,0.0,0.0,0.0,0.0,0.0,0.0,0.0,0.0,0.0,0.0,0.0,0.0,0.0,0.0,0.0,0.0,2.3066,2.3789,2.3477,2.4355,2.5367,2.6367,2.6783,2.7311,2.8144,2.8293,2.8574,2.9051,2.9434,2.9726,2.9844,3.0176,3.0605,3.1133,3.1152,3.1367,3.1846,3.1846,3.1905,3.2022,3.2022,3.2081,3.2198,3.2198,3.2198,3.2198,3.2198,3.2198,3.2198,3.2198,3.2198,3.2159,3.167,3.1475,3.1494,3.1612,3.1749,3.1885,3.212,3.2198,3.2198,3.2198,3.2198,3.2257,3.257,3.2617,3.2695,3.2988,3.3301,3.3606,3.3723,3.3945,3.4238,3.4473,3.4531,3.4551,3.4668,3.4961,3.5195,3.5195,3.5463,3.5326,3.4336,3.4277,3.4355,3.4355,3.4355,3.4394,3.4512,3.4531,3.457,3.4687,3.4707,3.4707,3.4707,3.4707,3.4707,3.4707,3.4473,3.4355,3.4355,3.386,3.3234,3.2461,3.1074,2.9517,0.0,0.0,0.0,0.0,0.0,0.0,0.0,0.0,0.0,0.0,0.0,0.0,0.0,0.0,0.0,0.0,0.0,0.0,0.0,0.0,0.0,0.0,2.4668,2.5488,2.5454,2.5918,2.6635,2.7669,2.8027,2.8516,2.9375,2.9453,2.9648,3.0126,3.0508,3.0742,3.0742,3.1172,3.1543,3.1777,3.1797,3.1914,3.2198,3.2198,3.2374,3.2695,3.2695,3.2891,3.3254,3.3254,3.3254,3.3254,3.3254,3.3254,3.3254,3.3254,3.3254,3.3195,0.0,0.0,0.0,0.0,3.2843,3.3019,3.3195,3.3254,3.3254,3.3254,3.3254,3.3313,3.3516,3.3594,3.3633,3.3887,3.4141,3.4407,3.457,3.4941,3.5293,3.5488,3.5664,3.5781,3.5781,3.5996,3.6191,3.6191,3.6582,0.0,3.5918,3.5781,3.5781,3.5781,3.5781,3.5781,3.5781,3.5781,3.5781,3.5781,3.5781,3.5781,3.5781,3.5781,0.0,0.0,0.0,3.5078,3.4726,3.4473,0.0,0.0,0.0,3.1472,2.9882,2.9565,0.0,0.0,2.5886,2.4606,0.0,0.0,0.0,0.0,0.0,0.0,0.0,0.0,0.0,0.0,0.0,0.0,0.0,0.0,0.0,0.0,2.6348,2.7324,2.7839,2.7578,2.7767,2.8898,2.9035,2.9375,3.0195,3.0312,3.0527,3.0937,3.1348,3.1582,3.1582,3.1953,0.0,0.0,0.0,3.2374,3.2413,3.2452,3.2832,3.3542,3.3542,3.3965,3.4707,3.4707,3.4707,3.4707,3.4707,3.4707,3.4707,3.4707,3.4707,3.4551,3.3078,3.2492,3.257,3.3301,3.3809,3.4231,3.457,0.0,0.0,3.4707,3.4707,3.4707,3.4766,3.4805,3.4863,3.4902,3.4961,3.5045,3.522,3.5709,3.6181,3.6363,3.6872,3.7305,3.7305,3.7344,3.7363,3.7363,3.7225,3.7103,3.7103,3.7202,3.7305,3.7305,3.7305,3.7305,3.7305,3.7305,3.7305,3.7305,3.7305,0.0,3.7305,3.7305,3.7148,3.6792,3.6161,3.5564,3.5019,3.4743,3.4529,3.4407,3.4063,3.3444,3.2452,3.2556,3.146,2.9235,2.5792,2.4346,0.0,0.0,0.0,0.0,0.0,0.0,0.0,0.0,0.0,0.0,0.0,0.0,0.0,0.0,0.0,2.6504,2.7422,2.832,2.9109,2.9414,2.9668,2.9922,2.9941,3.0156,3.0703,3.1074,3.1309,3.1387,3.1797,3.2081,3.2081,3.2159,3.2355,3.2656,3.3008,3.334,3.3743,3.4043,3.4297,3.4453,3.4453,0.0,3.4707,3.4707,3.4707,3.4707,3.4707,3.4707,3.4707,3.4707,3.4707,3.4668,3.4336,3.4219,3.4238,3.4394,3.4512,3.459,3.4668,3.4707,3.4707,3.4707,3.4707,3.4766,3.5137,3.5488,0.0,3.6191,3.6543,3.6449,3.4852,3.5741,3.6665,3.5038,3.6022,3.7305,3.7305,3.7559,3.7777,3.7777,3.6763,3.5852,3.5852,3.6658,3.7305,3.7305,3.7305,3.7305,3.7305,3.7305,3.7305,3.7305,3.7305,3.7305,3.7305,3.7305,3.7266,3.7187,3.5534,3.5209,3.6727,3.4864,3.4554,3.6172,3.386,3.193,3.0463,2.8523,2.6694,2.5056,2.7882,2.7739,0.0,0.0,0.0,0.0,0.0,0.0,0.0,0.0,0.0,0.0,0.0,2.418,2.5488,0.0,2.6973,2.7806,2.8691,2.9394,2.9852,3.0449,3.0781,3.0566,3.0723,3.0957,3.1191,3.1601,3.1836,3.1836,3.2246,3.2609,3.2793,3.3039,3.3352,3.373,3.3945,3.416,3.4394,3.459,3.4824,3.5039,3.5039,3.5156,3.5371,3.5586,3.5684,3.5703,3.5898,3.5996,3.5996,3.5996,3.5996,3.5996,3.5996,3.5605,3.5039,3.5039,3.5312,3.5684,3.5684,3.582,3.5996,3.5996,3.5996,3.6035,3.6269,3.6484,3.6699,3.6914,3.7129,3.7074,3.6024,3.6677,3.708,3.503,3.5484,3.6142,3.5301,3.5277,3.5438,3.5635,3.502,3.4456,3.4456,3.4958,3.5258,3.4936,3.4901,3.5285,3.6267,3.6376,3.6793,3.7822,3.793,3.793,3.793,3.6801,3.6076,3.6076,3.4919,3.4217,3.427,3.4037,3.3929,3.3947,3.2506,3.1238,3.0255,2.9206,2.7689,2.5816,2.8471,2.792,0.0,0.0,0.0,0.0,0.0,0.0,0.0,2.2969,2.3767,2.4703,2.5195,2.5864,2.7148,2.7676,2.8104,2.8611,2.9627,3.0122,2.9525,3.0701,3.1385,3.071,3.1218,3.1641,3.1641,3.2031,3.2355,3.2433,3.2843,3.3223,3.362,3.4004,3.4388,3.4687,3.4785,3.4824,3.4824,3.5,3.5273,3.5644,3.5723,3.5937,3.6289,3.6621,3.6832,3.6851,3.7148,3.7305,3.7305,3.7305,3.7305,3.7305,3.7305,3.666,3.5762,3.5762,3.6191,3.6832,3.6832,3.7012,3.7305,3.7305,3.7305,3.7305,3.7305,3.7344,3.7351,3.6942,3.6951,3.6852,3.606,3.6451,3.6513,3.4484,3.4564,3.4729,3.3298,3.2977,3.3076,3.3372,3.3067,3.2791,3.2791,3.2475,3.244,3.3186,3.3276,3.4036,3.6086,3.6347,3.7017,3.8681,3.8828,3.8828,3.8828,3.6645,3.5243,3.5243,3.4111,3.2887,3.1663,3.2813,3.285,3.1663,3.1215,3.0862,3.0536,3.0489,2.9478,2.7627,2.8211,2.7098,2.1622,2.1622,2.172,2.2109,2.2557,2.3101,0.0,2.4512,2.5239,2.6465,2.6758,2.7187,2.845,2.8723,2.8575,2.8011,2.9553,2.9901,2.7207,2.9886,3.1504,2.9842,3.1131,3.212,3.212,3.248,3.2871,3.3242,3.3691,3.4121,3.4531,3.4609,3.4648,3.4707,3.5098,3.5312,3.5312,3.6108,3.6499,3.6558,3.6914,3.7109,3.7168,3.7207,3.7226,3.7226,3.7266,3.7305,3.7305,3.7305,3.7305,3.7305,3.7305,3.7207,3.709,3.709,3.7148,3.7226,3.7226,3.7266,3.7305,3.7305,3.7305,3.7305,3.7305,3.7559,3.7438,3.5685,3.5648,3.5326,3.1656,3.2317,3.3397,3.1313,3.2252,3.358,3.3395,3.3333,3.3372,3.3382,3.192,3.066,3.066,2.9163,2.9859,3.5308,3.6157,3.6942,3.9125,3.9388,3.9501,3.9746,3.9746,3.9746,3.9746,3.7686,3.641,3.641,3.2839,3.1448,3.3097,3.1606,3.1488,3.3097,3.133,3.038,3.035,2.8587,2.7607,2.7338,2.7446,2.6866,2.293,2.3381,2.3792,2.3968,2.4336,2.4836,2.5698,2.6074,2.6562,2.7825,2.8098,2.8411,2.9473,2.887,2.8307,2.842,2.836,2.7922,2.6825,2.828,2.9274,2.8685,3.0487,3.2043,3.2817,3.2327,3.2585,3.4057,3.4336,3.4629,3.5078,3.5098,3.5332,3.5874,3.6069,3.625,3.6504,3.6855,3.7031,3.7031,3.7207,3.7305,3.7305,3.7539,3.7793,3.8083,3.8083,3.8083,3.7955,3.6743,3.6365,3.6423,3.5185,3.4881,3.5194,3.6744,3.6713,3.5916,3.5916,3.5285,3.4513,3.4513,3.4636,3.4739,3.4739,3.5005,3.5134,3.428,3.4235,3.4103,3.2385,3.2639,3.287,3.078,3.098,3.1306,3.0311,3.0071,3.0129,3.032,2.9665,2.9061,2.9061,2.8385,2.9144,3.3001,3.2211,3.196,3.4049,3.4323,3.4791,3.5973,3.6106,3.6106,3.6106,3.4166,3.2949,3.2949,3.1284,3.0154,2.9873,3.0154,3.0154,2.9873,2.9001,2.857,2.8529,2.7703,2.7309,2.7309,2.7483,2.7321,2.4085,2.4711,2.5312,2.5571,2.5859,2.6323,2.7298,2.7513,2.7845,2.9023,2.8898,2.8802,2.9556,2.8436,2.7442,2.7542,2.7068,2.6484,2.5891,2.6954,2.7736,2.7594,2.9027,3.063,3.2227,3.1884,3.2475,3.4712,3.4401,3.4585,3.5723,3.5742,3.6074,3.6851,3.6871,3.7027,3.7285,3.7402,3.7461,3.748,3.7598,3.7656,3.7656,3.7453,3.7308,3.7166,3.7166,3.7166,3.7036,3.5539,3.5056,3.5128,3.3608,3.3191,3.3642,3.5536,3.5485,3.4476,3.4476,3.371,3.2764,3.2764,3.289,3.3027,3.3027,3.3207,3.3264,3.2712,3.2634,3.2539,3.1997,3.19,3.1576,3.0097,2.9746,2.9355,2.8095,2.7816,2.7924,2.8138,2.8179,2.8179,2.8179,2.8179,2.8712,3.0301,2.8827,2.8509,3.1174,3.1521,3.2082,3.3598,3.3757,3.3757,3.3757,3.1802,3.0609,3.0609,3.0056,2.9067,2.7632,2.8945,2.9027,2.7591,2.755,2.755,2.755,2.755,2.755,2.755,2.7764,2.7816,2.5043,2.5371,2.5893,2.6732,2.6947,2.7279,2.8547,2.884,2.9074,2.998,2.8914,2.7951,2.8396,2.7349,2.5937,2.4385,2.6024,2.6414,2.3426,2.6212,2.803,2.6638,2.6509,2.7432,2.9595,3.1077,3.2865,3.5198,3.3647,3.3742,3.6513,3.6675,3.6871,3.7266,3.7285,3.7285,3.7305,3.7695,3.7874,3.7874,3.834,3.8571,3.8518,3.683,3.5145,3.3545,3.3545,3.3545,3.3545,3.3506,3.3483,3.3483,3.3405,3.3382,3.3421,3.349,3.349,3.345,3.345,3.3427,3.3349,3.3349,3.3405,3.3365,3.3365,3.3382,3.2988,3.098,3.0619,3.0424,2.8414,2.8105,2.832,2.8278,2.8278,2.8236,2.8207,2.8165,2.8179,2.8179,2.8179,2.8179,2.8179,2.8179,2.8221,2.8305,2.8207,2.9704,3.401,3.4578,3.4578,3.4659,3.4659,3.4659,3.4659,3.2622,3.1362,3.1362,2.9425,2.8236,2.8165,2.8236,2.8236,2.8165,2.8165,2.8165,2.8165,2.8165,2.8165,2.8165,2.8165,2.8165,2.6211,2.6894,2.7578,2.8118,2.7647,2.753,2.9338,2.8956,2.8317,2.8883,2.8582,2.7908,2.6996,2.5696,2.4682,2.4304,2.42,2.3879,2.3273,2.4275,2.5035,2.4971,2.6053,2.724,2.8377,2.8589,3.0231,3.4064,3.3752,3.3866,3.4981,3.5054,3.5239,3.5682,3.5701,3.65,3.8144,3.6952,3.6405,3.6626,3.5635,3.5162,3.5124,3.4551,3.3932,3.3382,3.3382,3.3382,3.3303,3.192,3.1462,3.1557,3.0155,2.9756,2.9957,2.9957,2.9957,3.0091,3.1012,3.046,2.9364,2.9364,2.9468,2.9626,2.9626,2.9785,2.9792,2.9104,2.898,2.8896,2.8199,2.8112,2.8179,2.8179,2.8179,2.8179,2.8179,2.8179,2.8179,2.8179,2.8179,2.8179,2.8179,2.8179,2.8179,2.8179,2.8179,2.8712,3.0191,3.0385,3.0385,3.0385,3.0385,3.0385,3.0385,2.969,2.9286,2.9286,2.8586,2.8179,2.8179,2.8179,2.8179,2.8179,2.8179,2.8179,2.8179,2.8179,2.8179,2.8179,2.8179,2.8179,2.5748,2.668,2.779,2.8368,2.7927,2.7734,2.9228,2.875,2.7943,2.7609,2.7091,2.6365,2.5314,2.4047,2.3228,2.3497,2.2998,2.2792,2.3394,2.3581,2.3861,2.4449,2.5573,2.6509,2.7018,2.6688,2.8252,3.2535,3.2246,3.2309,3.3306,3.3324,3.3552,3.4047,3.4047,3.4852,3.6534,3.5226,3.474,3.5065,3.3948,3.3053,3.2467,3.2467,3.2131,3.1532,3.1532,3.1532,3.1451,3.0103,2.9703,2.9724,2.8384,2.8018,2.8179,2.8179,2.8179,2.8335,2.9238,2.8701,2.7617,2.7617,2.775,2.7898,2.7898,2.8031,2.8179,2.8179,2.8179,2.8179,2.8179,2.8179,2.8179,2.8179,2.8179,2.8179,2.8179,2.8179,2.8179,2.8179,2.8179,2.8179,2.8179,2.8179,2.8179,2.8179,2.8179,2.8179,2.8179,2.8179,2.8179,2.8179,2.8179,2.8179,2.8179,2.8179,2.8179,2.8179,2.8179,2.8179,2.8179,2.8179,2.8179,2.8179,2.8179,2.8179,2.8179,2.8179,2.8179,2.8179,2.8179,2.8179,2.4022,2.5136,2.6855,2.7524,2.7721,2.7811,2.8188,2.82,2.7721,2.6197,2.4655,2.3574,2.3481,2.2451,2.1676,2.197,2.2519,2.3108,2.3723,2.4035,2.4436,2.5048,2.509,2.5224,2.5504,2.5531,2.7013,3.0674,2.939,2.9394,3.1549,3.1677,3.1895,3.2369,3.2369,3.255,3.2934,3.2851,3.2914,3.3099,3.3116,3.2275,3.0658,3.0658,2.9739,2.8179,2.8179,2.8179,2.8179,2.8179,2.8179,2.8179,2.8179,2.8179,2.8179,2.8179,2.8179,2.8179,2.8179,2.8179,2.8179,2.8179,2.8179,2.8179,2.8179,2.8179,2.8179,2.8179,2.8179,2.8179,2.8179,2.8179,2.8179,2.8179,2.8179,2.8179,2.8179,2.8179,2.8179,2.8179,2.8179,2.8179,2.8179,2.8179,2.8179,2.8179,2.8179,2.8179,2.8179,2.8179,2.8179,2.8179,2.8179,2.8179,2.8179,2.8179,2.8179,2.8179,2.8179,2.8179,2.8179,2.8179,2.8179,2.8179,2.8179,2.8179,2.8179,2.8179,2.8179,2.8179,2.8179,2.8179,2.5122,2.6875,2.8822,2.6935,2.6456,2.6472,2.6604,2.568,2.4702,2.4301,2.3884,2.3201,2.1978,2.1669,2.1676,2.197,2.2519,2.3108,2.3723,2.4209,2.4663,2.5037,2.5277,2.5518,2.585,2.5877,2.6345,2.7548,2.8373,2.9199,2.9977,3.0007,3.0199,3.0536,3.0551,3.1449,3.3234,3.1966,3.0583,2.9152,2.9393,2.9299,2.884,2.884,2.8602,2.8179,2.8179,2.8179,2.8179,2.8179,2.8179,2.8179,2.8179,2.8179,2.8179,2.8179,2.8179,2.8179,2.8179,2.8179,2.8179,2.8179,2.8179,2.8179,2.8179,2.8179,2.8179,2.8179,2.8179,2.8179,2.8179,2.8179,2.8179,2.8179,2.8179,2.8179,2.8179,2.8179,2.8179,2.8179,2.8179,2.8179,2.8179,2.8179,2.8179,2.8179,2.8179,2.8179,2.8179,2.8179,2.8179,2.8179,2.8179,2.8179,2.8179,2.8179,2.8179,2.8179,2.8179,2.8179,2.8179,2.8179,2.8179,2.8179,2.8179,2.8179,2.8179,2.8179,2.8179,2.8179,2.8179,2.8179,2.474,2.6058,2.7552,2.5477,2.4962,2.4962,2.4962,2.4117,2.318,2.2469,2.2215,2.1849,2.1083,2.1087,2.1381,2.1897,2.2365,2.2926,2.3696,2.4275,2.4759,2.5224,2.5531,2.5825,2.6158,2.6185,2.6252,2.6373,2.7309,2.7986,2.8261,2.8275,2.8417,2.8745,2.8745,2.945,3.0871,3.0088,2.9077,2.7938,2.8098,2.8179,2.8179,2.8179,2.8179,2.8179,2.8179,2.8179,2.8179,2.8179,2.8179,2.8179,2.8179,2.8179,2.8179,2.8179,2.8179,2.8179,2.8179,2.8179,2.8179,2.8179,2.8179,2.8179,2.8179,2.8179,2.8179,2.8179,2.8179,2.8179,2.8179,2.8179,2.8179,2.8179,2.8179,2.8179,2.8179,2.8179,2.8179,2.8179,2.8179,2.8179,2.8179,2.8179,2.8232,2.8366,2.8393,2.8433,2.8524,2.8353,2.8179,2.8179,2.8179,2.8179,2.8179,2.8179,2.8179,2.8179,2.8179,2.8179,2.8179,2.8179,2.8179,2.8179,2.8179,2.8179,2.8179,2.8179,2.8259,2.8393,2.8393,2.846,2.3563,2.423,2.5318,2.3685,2.345,2.3528,2.3281,2.2983,2.238,2.0923,2.0414,2.0277,2.0575,2.0686,2.0967,2.1737,2.2178,2.2726,2.3629,2.4275,2.4866,2.5451,2.585,2.6145,2.636,2.6426,2.6453,2.6453,2.648,2.66,2.6774,2.6854,2.7014,2.7349,2.7403,2.7536,2.7749,2.8058,2.8179,2.8179,2.8179,2.8179,2.8179,2.8179,2.8179,2.8179,2.8179,2.8179,2.8179,2.8179,2.8179,2.8179,2.8179,2.8179,2.8179,2.8179,2.8179,2.8179,2.8179,2.8179,2.8179,2.8179,2.8179,2.8179,2.8179,2.8179,2.8179,2.8179,2.8179,2.8179,2.8179,2.8179,2.8179,2.8179,2.8179,2.8179,2.8179,2.8179,2.8192,2.8232,2.8245,2.8259,2.8299,2.8299,2.8393,2.8631,2.8671,2.8751,2.8961,2.8577,2.8299,2.8299,2.8299,2.8299,2.8299,2.8299,2.8299,2.8299,2.8299,2.8299,2.8299,2.8299,2.8299,2.8299,2.8299,2.8299,2.8299,2.8299,2.8446,2.8671,2.8671,2.8804,2.2582,2.4403,2.6837,2.2594,2.2591,2.3173,2.1565,2.1173,2.0971,2.0391,2.0237,2.0224,2.0264,2.0508,2.0833,2.1203,2.1911,2.2611,2.3278,2.4329,2.513,2.5478,2.5985,2.6333,2.6386,2.66,2.6747,2.6747,2.6974,2.7028,2.6787,2.7054,2.7321,2.7615,2.7911,2.8058,2.8112,2.8165,2.8179,2.8179,2.8179,2.8179,2.8179,2.8179,2.8179,2.8179,2.8179,2.8179,2.8179,2.8179,2.8179,2.8179,2.8179,2.8179,2.8179,2.8179,2.8179,2.8179,2.8179,2.8179,2.8179,2.8179,2.8179,2.8179,2.8179,2.8179,2.8179,2.8179,2.8179,2.8179,2.8179,2.8179,2.8179,2.8179,2.8179,2.8179,2.8179,2.8179,2.8259,2.847,2.8524,2.8604,2.8801,2.8841,2.8855,2.8908,2.8921,2.8935,2.8988,2.8908,2.8841,2.8841,2.8841,2.8841,2.8841,2.8841,2.8841,2.8841,2.8841,2.8841,2.8841,2.8841,2.8841,2.8841,2.8841,2.8841,2.8841,2.8841,2.8911,2.8921,2.8921,2.8948,2.3551,2.4622,2.6167,2.2121,2.1617,2.1855,2.0925,2.0351,1.999,1.9813,1.9533,1.9426,1.9733,2.0027,2.0414,2.1015,2.1724,2.2405,2.3006,2.3968,2.4783,2.5237,2.5812,2.6265,2.6373,2.6653,2.6787,2.6787,2.7241,2.7428,2.7281,2.7603,2.7831,2.7965,2.8112,2.8179,2.8179,2.8179,2.8179,2.8179,2.8179,2.8179,2.8179,2.8179,2.8179,2.8179,2.8179,2.8179,2.8179,2.8179,2.8179,2.8179,2.8179,2.8179,2.8179,2.8179,2.8179,2.8179,2.8179,2.8179,2.8179,2.8179,2.8179,2.8179,2.8179,2.8179,2.8179,2.8179,2.8179,2.8179,2.8179,2.8179,2.8179,2.8179,2.8312,2.8433,2.8433,2.8511,2.8657,2.8761,2.8831,2.8828,2.8975,2.9001,2.9041,2.9245,2.9272,2.9325,2.9428,2.9455,2.9335,2.9028,2.9001,2.9001,2.9001,2.9001,2.9001,2.9001,2.9001,2.9001,2.9001,2.9001,2.9001,2.9001,2.9001,2.9001,2.9001,2.9001,2.9081,2.9272,2.9272,2.9352,2.4085,2.4209,2.4778,2.1756,2.0842,2.0659,2.0472,1.9896,1.9348,1.9147,1.8771,1.8611,1.904,1.9426,1.996,2.0708,2.1376,2.2031,2.2706,2.3541,2.4356,2.4997,2.5636,2.6131,2.6453,2.6747,2.6947,2.7001,2.7495,2.7789,2.7789,2.8058,2.8179,2.8179,2.8179,2.8179,2.8179,2.8179,2.8179,2.8179,2.8179,2.8179,2.8179,2.8179,2.8179,2.8179,2.8179,2.8179,2.8179,2.8179,2.8179,2.8179,2.8179,2.8179,2.8179,2.8179,2.8179,2.8192,2.8259,2.8286,2.8299,2.8353,2.8286,2.8179,2.8179,2.8179,2.8205,2.8272,2.8286,2.8299,2.8366,2.8379,2.8379,2.8379,2.8524,2.8698,2.8698,2.8828,2.9015,2.9081,2.9095,2.9108,2.9175,2.9188,2.9268,2.9539,2.9579,2.9659,2.9887,2.9913,2.974,2.9228,2.9188,2.9188,2.9188,2.9188,2.9188,2.9188,2.9188,2.9188,2.9188,2.9188,2.9188,2.9188,2.9188,2.9188,2.9188,2.9188,2.9352,2.9579,2.9579,2.97,2.2123,2.2377,2.3313,2.1241,2.0726,2.0498,1.9696,1.9455,1.9174,1.8303,1.8343,1.8424,1.8183,1.8851,1.9548,1.9867,2.0628,2.1483,2.2338,2.3247,2.4165,2.5021,2.5636,2.6212,2.6734,2.7054,2.7376,2.7602,2.7965,2.8138,2.8138,2.8165,2.8179,2.8179,2.8179,2.8179,2.8179,2.8179,2.8179,2.8179,2.8179,2.8179,2.8179,2.8179,2.8179,2.8179,2.8179,2.8179,2.8179,2.8179,2.8179,2.8179,2.8179,2.8179,2.8179,2.8179,2.8179,2.8219,2.847,2.8564,2.8604,2.8871,2.8591,2.8179,2.8179,2.8179,2.8245,2.8484,2.8564,2.8631,2.8841,2.8908,2.8908,2.8908,2.8935,2.8961,2.8961,2.8975,2.9081,2.9392,2.9446,2.9526,2.9793,2.9833,2.9847,2.9873,2.9873,2.9887,2.9913,2.9913,2.99,2.9802,2.9833,2.9833,2.9833,2.9833,2.9833,2.9833,2.9833,2.9833,2.9833,2.9833,2.9833,2.9833,2.9833,2.9833,2.9833,2.9833,2.9847,2.9873,2.9873,2.9887,2.1537,2.1862,2.2672,2.1087,2.0311,1.9829,1.9481,1.8839,1.8224,1.7836,1.7582,1.7488,1.7729,1.8357,1.9052,1.9693,2.0535,2.1349,2.2058,2.2939,2.3834,2.4703,2.5331,2.5985,2.6747,2.7094,2.7496,2.7978,2.8112,2.8179,2.8179,2.8179,2.8179,2.8179,2.8179,2.8179,2.8179,2.8179,2.8179,2.8179,2.8179,2.8179,2.8179,2.8179,2.8179,2.8179,2.8179,2.8179,2.8179,2.8179,2.8179,2.8179,2.8179,2.8179,2.8205,2.8393,2.8417,2.847,2.8764,2.8828,2.8841,2.8961,2.8885,2.8684,2.8684,2.8684,2.8711,2.8831,2.8828,2.8855,2.8961,2.9001,2.9001,2.9001,2.9135,2.9312,2.9312,2.9446,2.9562,2.9726,2.974,2.978,2.99,2.9913,2.9913,2.9913,2.9913,2.9913,2.9913,2.9913,2.9913,2.9913,2.9913,2.9913,2.9913,2.9913,2.9913,2.9913,2.9913,2.9913,2.9913,2.9913,2.9913,2.9913,2.9913,2.9913,2.9913,2.9913,2.9913,2.9913,2.9913,2.9913,2.0803,2.1062,2.1606,2.0587,1.9856,1.9308,1.8946,1.821,1.7541,1.7274,1.6927,1.6834,1.7274,1.7889,1.8651,1.9533,2.0334,2.1122,2.1884,2.2686,2.3519,2.4479,2.5119,2.5892,2.6854,2.7295,2.7737,2.8152,2.8179,2.8179,2.8179,2.8179,2.8179,2.8179,2.8179,2.8179,2.8179,2.8179,2.8179,2.8179,2.8179,2.8179,2.8179,2.8179,2.8179,2.8179,2.8179,2.8179,2.8179,2.8179,2.8179,2.8192,2.8286,2.8326,2.8366,2.8617,2.8738,2.8778,2.9072,2.9165,2.9135,2.9228,2.9255,2.9255,2.9255,2.9135,2.9015,2.9108,2.9188,2.9255,2.9255,2.9255,2.9255,2.9255,2.9459,2.9606,2.9606,2.9766,2.9913,2.9913,2.9913,2.9913,2.9913,2.9913,2.9913,2.9913,2.9913,2.9913,2.9913,2.9913,2.9913,2.9913,2.9913,2.9913,2.9913,2.9913,2.9913,2.9913,2.9913,2.9913,2.9913,2.9913,2.9913,2.9913,2.9913,2.9913,2.9913,2.9913,2.9913,2.9913,2.9913,2.9913,1.9658,1.9615,1.9762,1.9481,1.9401,1.908,1.7903,1.7622,1.7367,1.6484,1.6513,1.6714,1.6714,1.7422,1.8316,1.9254,1.9867,2.0624,2.1817,2.2532,2.3348,2.4452,2.5119,2.5972,2.7188,2.7831,2.8179,2.8179,2.8179,2.8179,2.8179,2.8179,2.8179,2.8179,2.8179,2.8179,2.8179,2.8179,2.8179,2.8179,2.8179,2.8179,2.8179,2.8179,2.8179,2.8179,2.8179,2.8179,2.8179,2.8179,2.8179,2.8219,2.8484,2.8604,2.8631,2.8881,2.8988,2.9028,2.9379,2.9486,2.9526,2.982,2.9913,2.9913,2.9913,2.9455,2.9055,2.9392,2.9686,2.9913,2.9913,2.9913,2.9913,2.9913,2.9913,2.9913,2.9913,2.9913,2.9913,2.9913,2.9913,2.9913,2.9913,2.9913,2.9913,2.9913,2.9913,2.9913,2.9913,2.9913,2.9913,2.9913,2.9913,2.9913,2.9913,2.9913,2.9913,2.9913,2.9913,2.9913,2.9913,2.9913,2.9913,2.9913,2.9913,2.9913,2.9913,2.9913,2.9913,2.9913,2.9913,2.9913,1.8737,1.8838,1.8931,1.9038,1.8597,1.8077,1.7702,1.714,1.6632,1.6351,1.6192,1.6208,1.6633,1.7261,1.809,1.9214,1.9853,2.061,2.1817,2.2532,2.33,2.4452,2.5865,2.6894,2.7269,2.7844,2.8179,2.8179,2.8179,2.8179,2.8179,2.8179,2.8179,2.8179,2.8179,2.8179,2.8179,2.8179,2.8179,2.8179,2.8179,2.8179,2.8179,2.8179,2.8179,2.8179,2.8179,2.8179,2.8179,2.8179,2.8312,2.847,2.8564,2.8724,2.8895,2.9232,2.9339,2.9392,2.9673,2.978,2.9793,2.9887,2.9913,2.9913,2.9913,2.978,2.9659,2.9753,2.9847,2.9913,2.9913,2.9913,2.9913,2.9913,2.9913,2.9913,2.9913,2.9913,2.9913,2.9913,2.9913,2.9913,2.9913,2.9913,2.9913,2.9913,2.9913,2.9913,2.9913,2.9913,2.9913,2.9913,2.9913,2.9913,2.9913,2.9913,2.9913,2.9913,2.9913,2.9913,2.9913,2.9913,2.9913,2.9913,2.9913,2.9913,2.9913,2.9913,2.9913,2.9913,2.9913,2.9913,1.7849,1.801,1.805,1.821,1.7862,1.7381,1.7167,1.6685,1.627,1.6126,1.5965,1.5981,1.6593,1.7181,1.7996,1.9201,1.9853,2.061,2.1817,2.2532,2.3415,2.4796,2.6333,2.7309,2.7309,2.7844,2.8179,2.8179,2.8179,2.8179,2.8179,2.8179,2.8179,2.8179,2.8179,2.8179,2.8179,2.8179,2.8179,2.8179,2.8179,2.8179,2.8179,2.8179,2.8179,2.8179,2.8179,2.8179,0.0,2.8312,2.843,2.8631,2.8858,2.9045,2.9245,2.9539,2.9646,2.9673,2.986,2.9913,2.9913,2.9913,2.9913,2.9913,2.9913,2.9913,2.9913,2.9913,2.9913,2.9913,2.9913,2.9913,2.9913,2.9913,2.9913,2.9913,2.9913,2.9913,2.9913,2.9913,2.9913,2.9913,2.9913,2.9913,2.9913,2.9913,2.9913,2.9913,2.9913,2.9913,2.9913,2.9913,2.9913,2.9913,2.9913,2.9913,2.9913,2.9913,2.9913,2.9913,2.9913,2.9913,2.9913,2.9913,2.9913,2.9913,2.9913,2.9913,2.9913,2.9913,2.9913,2.9913,0.0,1.7139,1.7166,1.7166,1.7152,1.6991,1.6417,1.6284,0.0,1.5888,1.5835,1.6021,1.666,1.7248,1.8063,1.9241,1.9907,2.0664,2.1857,2.2626,2.3696,2.5371,2.6573,2.7309,2.7336,2.7857,2.8179,2.8179,2.8179,2.8179,2.8179,2.8179,2.8179,2.8179,2.8179,2.8179,2.8179,2.8179,2.8179,2.8179,2.8179,2.8179,2.8179,2.8179,2.8179,2.8179,2.8205,2.8219,2.8245,2.8511,2.8644,2.8724,2.9272,2.9499,2.9553,2.982,2.9913,2.9913,2.9913,2.9913,2.9913,2.9913,2.9913,2.9913,2.9913,2.9913,2.9913,2.9913,2.9913,2.9913,2.9913,2.9913,2.9913,2.9913,2.9913,2.9913,2.9913,2.9913,2.9913,2.9913,2.9913,2.9913,2.9913,2.9913,2.9913,2.9913,2.9913,2.9913,2.9913,2.9913,2.9913,2.9913,2.9913,2.9913,2.9913,2.9913,2.9913,2.9913,2.9913,2.9913,2.9913,2.9913,2.9913,2.9913,2.9913,2.9913,2.9913,2.9913,2.9913,2.9913,2.9913,2.9913,1.6021,0.0,1.6807,1.6807,1.6672,1.6471,0.0,1.6099,1.5979,1.6163,1.6166,1.6444,1.7235,1.7862,1.8584,1.9546,2.0374,2.1229,2.2178,2.3607,2.4957,2.6052,2.6867,2.7389,2.7575,2.7965,2.8179,2.8179,2.8179,2.8179,2.8179,2.8179,2.8179,2.8179,2.8179,2.8179,2.8179,2.8179,2.8179,2.8179,2.8179,2.8179,2.8179,2.8179,2.8179,2.8205,2.8433,2.8497,2.8524,2.8818,2.9072,2.9285,2.9432,2.9619,2.982,2.9887,2.9913,2.9913,2.9913,2.9913,2.9913,2.9913,2.9913,2.9913,2.9913,2.9913,2.9913,2.9913,2.9913,2.9913,2.9913,2.9913,2.9913,2.9913,2.9913,2.9913,2.9913,2.9913,2.9913,2.9913,2.9913,2.9913,2.9913,2.9913,2.9913,2.9913,2.9913,2.9913,2.9913,2.9913,2.9913,2.9913,2.9913,2.9913,2.9913,2.9913,2.9913,2.9913,2.9913,2.9913,2.9913,2.9913,2.9913,2.9913,2.9913,2.9913,2.9913,2.9913,2.9913,2.9913,2.9913,2.9913,1.5728,1.6035,1.6275,1.6275,1.6286,1.6297,1.6297,1.6246,1.6248,1.6433,1.6605,1.6926,1.7662,1.829,1.9025,2.004,2.0828,2.1764,2.306,2.4409,2.5558,2.6306,2.7028,2.7522,2.7682,2.8005,2.8179,2.8179,2.8179,2.8179,2.8179,2.8179,2.8179,2.8179,2.8179,2.8179,2.8179,2.8179,2.8179,2.8179,2.8179,2.8179,2.8179,2.8179,2.8259,2.8406,2.8537,2.8684,2.8831,2.9125,2.9339,2.9499,2.9633,2.978,2.9913,2.9913,2.9913,2.9913,2.9913,2.9913,2.9913,2.9913,2.9913,2.9913,2.9913,2.9913,2.9913,2.9913,2.9913,2.9913,2.9913,2.9913,2.9913,2.9913,2.9913,2.9913,2.9913,2.9913,2.9913,2.9913,2.9913,2.9913,2.9913,2.9913,2.9913,2.9913,2.9913,2.9913,2.9913,2.9913,2.9913,2.9913,2.9913,2.9913,2.9913,2.9913,2.9913,2.9913,2.9913,2.9913,2.9913,2.9913,2.9913,2.9913,2.9913,2.9913,2.9913,2.9913,2.9913,2.9913,2.9913,2.9913,1.5715,1.5808,1.5821,1.5861,1.6086,1.631,1.6351,1.6591,1.678,1.6834,1.714,1.7568,1.8116,1.8703,1.945,2.0561,2.1422,2.2505,2.4102,2.509,2.5865,2.6453,2.7215,2.7722,2.7762,2.8031,2.8179,2.8179,2.8179,2.8179,2.8179,2.8179,2.8179,2.8179,2.8179,2.8179,2.8179,2.8179,2.8179,2.8179,2.8179,2.8179,2.8179,2.8232,2.8406,2.8617,2.8698,2.8885,2.9081,2.9432,2.9553,2.9579,2.982,2.9913,2.9913,2.9913,2.9913,2.9913,2.9913,2.9913,2.9913,2.9913,2.9913,2.9913,2.9913,2.9913,2.9913,2.9913,2.9913,2.9913,2.9913,2.9913,2.9913,2.9913,2.9913,2.9913,2.9913,2.9913,2.9913,2.9913,2.9913,2.9913,2.9913,2.9913,2.9913,2.9913,2.9913,2.9913,2.9913,2.9913,2.9913,2.9913,2.9913,2.9913,2.9913,2.9913,2.9913,2.9913,2.9913,2.9913,2.9913,2.9913,2.9913,2.9913,2.9913,2.9913,2.9913,2.9913,2.9913,2.9913,2.9913,2.9913,1.5661,1.5808,1.5861,1.6139,1.627,1.6364,1.658,1.6899,1.718,1.7421,1.7916,1.8491,1.908,1.9639,2.0224,2.0935,2.2392,2.3817,2.481,2.5705,2.648,2.7108,2.7468,2.7802,2.8098,2.8165,2.8179,2.8179,2.8179,2.8179,2.8179,2.8179,2.8179,2.8179,2.8179,2.8179,2.8179,2.8179,2.8179,2.8179,2.8179,2.8179,2.8192,2.846,2.8564,2.8631,2.9138,2.9379,2.9432,2.9726,2.9847,2.986,2.99,2.9913,2.9913,2.9913,2.9913,2.9913,2.9913,2.9913,2.9913,2.9913,2.9913,2.9913,2.9913,2.9913,2.9913,2.9913,2.9913,2.9913,2.9913,2.9913,2.9913,2.9913,2.9913,2.9913,2.9913,2.9913,2.9913,2.9913,2.9913,2.9913,2.9913,2.9913,2.9913,2.9913,2.9913,2.9913,2.9913,2.9913,2.9913,2.9913,2.9913,2.9913,2.9913,2.9913,2.9913,2.9913,2.9913,2.9913,2.9913,2.9913,2.9913,2.9913,2.9913,2.9913,2.9913,2.9913,2.9913,2.9913,2.9913,2.9913,1.5648,1.5928,1.6179,1.6658,1.6804,1.6846,1.714,1.7662,1.8143,1.8277,1.8784,1.9332,1.976,2.0307,2.1109,2.2338,2.35,2.4596,2.5638,2.6266,2.6841,2.7428,2.7804,2.8031,2.8165,2.8179,2.8179,2.8179,2.8179,2.8179,2.8179,2.8179,2.8179,2.8179,2.8179,2.8179,2.8179,2.8179,2.8179,2.8179,2.8179,2.8272,2.8404,2.8537,2.8778,2.9098,2.9366,2.9579,2.9726,2.986,2.9913,2.9913,2.9913,2.9913,2.9913,2.9913,2.9913,2.9913,2.9913,2.9913,2.9913,2.9913,2.9913,2.9913,2.9913,2.9913,2.9913,2.9913,2.9913,2.9913,2.9913,2.9913,2.9913,2.9913,2.9913,2.9913,2.9913,2.9913,2.9913,2.9913,2.9913,2.9913,2.9913,2.9913,2.9913,2.9913,2.9913,2.9913,2.9913,2.9913,2.9913,2.9913,2.9913,2.9913,2.9913,2.9913,2.9913,2.9913,2.9913,2.9913,2.9913,2.9913,2.9913,2.9913,2.9913,2.9913,2.9913,2.9913,2.9913,2.9913,2.9913,2.9913,1.5778,1.6152,1.6565,1.722,1.7381,1.7488,1.7836,1.8531,1.9103,1.9103,1.9653,2.0174,2.037,2.1064,2.2124,2.3669,2.4422,2.5159,2.6239,2.6694,2.7121,2.7642,2.8005,2.8179,2.8179,2.8179,2.8179,2.8179,2.8179,2.8179,2.8179,2.8179,2.8179,2.8179,2.8179,2.8179,2.8179,2.8179,2.8179,2.8179,2.8259,2.8419,2.8604,2.8751,2.9058,2.9486,2.9553,2.9713,2.9913,2.9913,2.9913,2.9913,2.9913,2.9913,2.9913,2.9913,2.9913,2.9913,2.9913,2.9913,2.9913,2.9913,2.9913,2.9913,2.9913,2.9913,2.9913,2.9913,2.9913,2.9913,2.9913,2.9913,2.9913,2.9913,2.9913,2.9913,2.9913,2.9913,2.9913,2.9913,2.9913,2.9913,2.9913,2.9913,2.9913,2.9913,2.9913,2.9913,2.9913,2.9913,2.9913,2.9913,2.9913,2.9913,2.9913,2.9913,2.9913,2.9913,2.9913,2.9913,2.9913,2.9913,2.9913,2.9913,2.9913,2.9913,2.9913,2.9913,2.9913,2.9913,2.9913,2.9913,1.611,1.6446,1.6887,1.7742,1.7929,1.8075,1.8663,1.9305,1.9733,1.9733,2.0414,2.1015,2.1042,2.2171,2.3359,2.4062,2.489,2.5665,2.6306,2.6921,2.7389,2.7669,2.8005,2.8179,2.8179,2.8179,2.8179,2.8179,2.8179,2.8179,2.8179,2.8179,2.8179,2.8179,2.8179,2.8179,2.8179,2.8179,2.8179,2.8192,2.843,2.8591,2.8631,2.9179,2.9446,2.9499,2.9766,2.99,2.9913,2.9913,2.9913,2.9913,2.9913,2.9913,2.9913,2.9913,2.9913,2.9913,2.9913,2.9913,2.9913,2.9913,2.9913,2.9913,2.9913,2.9913,2.9913,2.9913,2.9913,2.9913,2.9913,2.9913,2.9913,2.9913,2.9913,2.9913,2.9913,2.9913,2.9913,2.9913,2.9913,2.9913,2.9913,2.9913,2.9913,2.9913,2.9913,2.9913,2.9913,2.9913,2.9913,2.9913,2.9913,2.9913,2.9913,2.9913,2.9913,2.9913,2.9913,2.9913,2.9913,2.9913,2.9913,2.9913,2.9913,2.9913,2.9913,2.9913,2.9913,2.9913,2.9913,2.9913,1.638,1.7034,1.7689,1.8383,1.9116,1.9639,1.9506,2.0067,2.0615,2.0615,2.1309,2.2098,2.2659,2.3367,2.4128,2.489,2.5598,2.6266,2.6854,2.7281,2.7642,2.7978,2.8112,2.8179,2.8179,2.8179,2.8179,2.8179,2.8179,2.8179,2.8179,2.8179,2.8179,2.8179,2.8179,2.8179,2.8179,2.8379,2.843,2.843,2.8551,2.8791,2.9165,2.9379,2.9579,2.9753,2.9873,2.9913,2.9913,2.9913,2.9913,2.9913,2.9913,2.9913,2.9913,2.9913,2.9913,2.9913,2.9913,2.9913,2.9913,2.9913,2.9913,2.9913,2.9913,2.9913,2.9913,2.9913,2.9913,2.9913,2.9913,2.9913,2.9913,2.9913,2.9913,2.9913,2.9913,2.9913,2.9913,2.9913,2.9913,2.9913,2.9913,2.9913,2.9913,2.9913,2.9913,2.9913,2.9913,2.9913,2.9913,2.9913,2.9913,2.9913,2.9913,2.9913,2.9913,2.9913,2.9913,2.9913,2.9913,2.9913,2.9913,2.9913,2.9913,2.9913,2.9913,2.9913,2.9913,2.9913,2.9913,2.9913,1.6687,1.7502,1.8329,1.8996,2.0013,2.0762,2.0535,2.1029,2.1523,2.1523,2.2231,2.3113,2.4058,2.4422,2.4877,2.5665,2.6199,2.6734,2.7362,2.7575,2.7802,2.8152,2.8179,2.8179,2.8179,2.8179,2.8179,2.8179,2.8179,2.8179,2.8179,2.8179,2.8179,2.8179,2.8179,2.8179,2.8179,2.8457,2.8657,2.8751,2.8845,2.9098,2.9486,2.9579,2.9726,2.9913,2.9913,2.9913,2.9913,2.9913,2.9913,2.9913,2.9913,2.9913,2.9913,2.9913,2.9913,2.9913,2.9913,2.9913,2.9913,2.9913,2.9913,2.9913,2.9913,2.9913,2.9913,2.9913,2.9913,2.9913,2.9913,2.9913,2.9913,2.9913,2.9913,2.9913,2.9913,2.9913,2.9913,2.9913,2.9913,2.9913,2.9913,2.9913,2.9913,2.9913,2.9913,2.9913,2.9913,2.9913,2.9913,2.9913,2.9913,2.9913,2.9913,2.9913,2.9913,2.9913,2.9913,2.9913,2.9913,2.9913,2.9913,2.9913,2.9913,2.9913,2.9913,2.9913,2.9913,2.9913,2.9913,2.9913,1.7045,1.7836,1.8704,1.9586,2.0468,2.1269,2.1857,2.2218,2.2432,2.2432,2.3153,2.4084,2.4967,2.5317,2.5705,2.6293,2.664,2.7028,2.7615,2.7696,2.7816,2.8152,2.8179,2.8179,2.8179,2.8179,2.8179,2.8179,2.8179,2.8179,2.8179,2.8179,2.8179,2.8179,2.8179,2.8179,2.8192,2.8457,2.8764,2.9001,2.9352,2.9486,2.9499,2.978,2.9913,2.9913,2.9913,2.9913,2.9913,2.9913,2.9913,2.9913,2.9913,2.9913,2.9913,2.9913,2.9913,2.9913,2.9913,2.9913,2.9913,2.9913,2.9913,2.9913,2.9913,2.9913,2.9913,2.9913,2.9913,2.9913,2.9913,2.9913,2.9913,2.9913,2.9913,2.9913,2.9913,2.9913,2.9913,2.9913,2.9913,2.9913,2.9913,2.9913,2.9913,2.9913,2.9913,2.9913,2.9913,2.9913,2.9913,2.9913,2.9913,2.9913,2.9913,2.9913,2.9913,2.9913,2.9913,2.9913,2.9913,2.9913,2.9913,2.9913,2.9913,2.9913,2.9913,2.9913,2.9913,2.9913,2.9913,2.9913,1.7327,1.8291,1.9348,2.0231,2.1082,2.1884,2.2505,2.2706,2.2966,2.3772,2.4159,2.4649,2.5569,2.581,2.6012,2.66,2.6947,2.7268,2.7642,2.7883,2.8085,2.8179,2.8179,2.8179,2.8179,2.8179,2.8179,2.8179,2.8179,2.8179,2.8179,2.8179,2.8179,2.8179,2.8179,2.8286,2.847,2.8764,2.9058,2.9352,2.9646,2.978,2.9793,2.9873,2.9913,2.9913,2.9913,2.9913,2.9913,2.9913,2.9913,2.9913,2.9913,2.9913,2.9913,2.9913,2.9913,2.9913,2.9913,2.9913,2.9913,2.9913,2.9913,2.9913,2.9913,2.9913,2.9913,2.9913,2.9913,2.9913,2.9913,2.9913,2.9913,2.9913,2.9913,2.9913,2.9913,2.9913,2.9913,2.9913,2.9913,2.9913,2.9913,2.9913,2.9913,2.9913,2.9913,2.9913,2.9913,2.9913,2.9913,2.9913,2.9913,2.9913,2.9913,2.9913,2.9913,2.9913,2.9913,2.9913,2.9913,2.9913,2.9913,2.9913,2.9913,2.9913,2.9913,2.9913,2.9913,2.9913,2.9913,2.9913,1.7582,1.8544,1.9642,2.0601,2.151,2.2405,2.3354,2.3567,2.3834,2.4783,2.5077,2.5358,2.6051,2.6265,2.6453,2.6921,2.7241,2.7535,2.7871,2.8072,2.8179,2.8179,2.8179,2.8179,2.8179,2.8179,2.8179,2.8179,2.8179,2.8179,2.8179,2.8179,2.8179,2.8179,2.8312,2.846,2.8604,2.9005,2.9312,2.9486,2.978,2.9913,2.9913,2.9913,2.9913,2.9913,2.9913,2.9913,2.9913,2.9913,2.9913,2.9913,2.9913,2.9913,2.9913,2.9913,2.9913,2.9913,2.9913,2.9913,2.9913,2.9913,2.9913,2.9913,2.9913,2.9913,2.9913,2.9913,2.9913,2.9913,2.9913,2.9913,2.9913,2.9913,2.9913,2.9913,2.9913,2.9913,2.9913,2.9913,2.9913,2.9913,2.9913,2.9913,2.9913,2.9913,2.9913,2.9913,2.9913,2.9913,2.9913,2.9913,2.9913,2.9913,2.9913,2.9913,2.9913,2.9913,2.9913,2.9913,2.9913,2.9913,2.9913,2.9913,2.9913,2.9913,2.9913,2.9913,2.9913,2.9913,2.9913,2.9913,1.7756,1.8691,1.9682,2.0855,2.1871,2.2905,2.4292,2.4666,2.4866,2.5438,2.581,2.6091,2.6373,2.664,2.6934,2.7296,2.7522,2.7802,2.8138,2.8179,2.8179,2.8179,2.8179,2.8179,2.8179,2.8179,2.8179,2.8179,2.8179,2.8179,2.8179,2.8179,2.8179,2.8179,2.8444,2.8617,2.8644,2.9205,2.9499,2.9526,2.9793,2.9913,2.9913,2.9913,2.9913,2.9913,2.9913,2.9913,2.9913,2.9913,2.9913,2.9913,2.9913,2.9913,2.9913,2.9913,2.9913,2.9913,2.9913,2.9913,2.9913,2.9913,2.9913,2.9913,2.9913,2.9913,2.9913,2.9913,2.9913,2.9913,2.9913,2.9913,2.9913,2.9913,2.9913,2.9913,2.9913,2.9913,2.9913,2.9913,2.9913,2.9913,2.9913,2.9913,2.9913,2.9913,2.9913,2.9913,2.9913,2.9913,2.9913,2.9913,2.9913,2.9913,2.9913,2.9913,2.9913,2.9913,2.9913,2.9913,2.9913,2.9913,2.9913,2.9913,2.9913,2.9913,2.9913,2.9913,2.9913,2.9913,2.9913,2.9913,1.7756,1.8691,1.9736,2.1141,2.2645,2.3968,2.4479,2.517,2.5743,2.5877,2.5957,2.6158,2.664,2.6774,2.6987,2.7522,2.7655,2.7802,2.8138,2.8179,2.8179,2.8179,2.8179,2.8179,2.8179,2.8179,2.8179,2.8179,2.8179,2.8179,2.8179,2.8179,2.8179,2.8179,2.8444,2.8711,2.8908,2.9299,2.9606,2.982,2.9887,2.9913,2.9913,2.9913,2.9913,2.9913,2.9913,2.9913,2.9913,2.9913,2.9913,2.9913,2.9913,2.9913,2.9913,2.9913,2.9913,2.9913,2.9913,2.9913,2.9913,2.9913,2.9913,2.9913,2.9913,2.9913,2.9913,2.9913,2.9913,2.9913,2.9913,2.9913,2.9913,2.9913,2.9913,2.9913,2.9913,2.9913,2.9913,2.9913,2.9913,2.9913,2.9913,2.9913,2.9913,2.9913,2.9913,2.9913,2.9913,2.9913,2.9913,2.9913,2.9913,2.9913,2.9913,2.9913,2.9913,2.9913,2.9913,2.9913,2.9913,2.9913,2.9913,2.9913,2.9913,2.9913,2.9913,2.9913,2.9913,2.9913,2.9913,2.9913,1.7742,1.8691,1.9843,2.1743,2.3228,2.4356,2.4893,2.5518,2.6038,2.6172,2.6279,2.6466,2.6774,2.7054,2.7335,2.7642,2.7816,2.8005,2.8165,2.8179,2.8179,2.8179,2.8179,2.8179,2.8179,2.8179,2.8179,2.8179,2.8179,2.8179,2.8179,2.8179,2.8259,2.8406,2.8657,2.8951,2.9245,2.9539,2.9766,2.9913,2.9913,2.9913,2.9913,2.9913,2.9913,2.9913,2.9913,2.9913,2.9913,2.9913,2.9913,2.9913,2.9913,2.9913,2.9913,2.9913,2.9913,2.9913,2.9913,2.9913,2.9913,2.9913,2.9913,2.9913,2.9913,2.9913,2.9913,2.9913,2.9913,2.9913,2.9913,2.9913,2.9913,2.9913,2.9913,2.9913,2.9913,2.9913,2.9913,2.9913,2.9913,2.9913,2.9913,2.9913,2.9913,2.9913,2.9913,2.9913,2.9913,2.9913,2.9913,2.9913,2.9913,2.9913,2.9913,2.9913,2.9913,2.9913,2.9913,2.9913,2.9913,2.9913,2.9913,2.9913,2.9913,2.9913,2.9913,2.9913,2.9913,2.9913,2.9913,2.9913,1.7622,1.8758,2.0137,2.2278,2.346,2.4356,2.5237,2.5743,2.6091,2.6386,2.6653,2.6841,2.6894,2.7335,2.7722,2.7762,2.8031,2.8179,2.8179,2.8179,2.8179,2.8179,2.8179,2.8179,2.8179,2.8179,2.8179,2.8179,2.8179,2.8179,2.8179,2.8179,2.8326,2.8591,2.8841,2.9135,2.9486,2.9766,2.9913,2.9913,2.9913,2.9913,2.9913,2.9913,2.9913,2.9913,2.9913,2.9913,2.9913,2.9913,2.9913,2.9913,2.9913,2.9913,2.9913,2.9913,2.9913,2.9913,2.9913,2.9913,2.9913,2.9913,2.9913,2.9913,2.9913,2.9913,2.9913,2.9913,2.9913,2.9913,2.9913,2.9913,2.9913,2.9913,2.9913,2.9913,2.9913,2.9913,2.9913,2.9913,2.9913,2.9913,2.9913,2.9913,2.9913,2.9913,2.9913,2.9913,2.9913,2.9913,2.9913,2.9913,2.9913,2.9913,2.9913,2.9913,2.9913,2.9913,2.9913,2.9913,2.9913,2.9913,2.9913,2.9913,2.9913,2.9913,2.9913,2.9913,2.9913,2.9913,2.9913,2.9913,1.7328,1.9067,2.0846,2.2151,2.3166,2.4098,2.4943,2.5596,2.6145,2.6653,2.68,2.6894,2.7202,2.7482,2.7789,2.8085,2.8165,2.8179,2.8179,2.8179,2.8179,2.8179,2.8179,2.8179,2.8179,2.8179,2.8179,2.8179,2.8179,2.8179,2.8179,2.8179,2.8326,2.8591,2.8841,2.9135,2.9486,2.9766,2.9913,2.9913,2.9913,2.9913,2.9913,2.9913,2.9913,2.9913,2.9913,2.9913,2.9913,2.9913,2.9913,2.9913,2.9913,2.9913,2.9913,2.9913,2.9913,2.9913,2.9913,2.9913,2.9913,2.9913,2.9913,2.9913,2.9913,2.9913,2.9913,2.9913,2.9913,2.9913,2.9913,2.9913,2.9913,2.9913,2.9913,2.9913,2.9913,2.9913,2.9913,2.9913,2.9913,2.9913,2.9913,2.9913,2.9913,2.9913,2.9913,2.9913,2.9913,2.9913,2.9913,2.9913,2.9913,2.9913,2.9913,2.9913,2.9913,2.9913,2.9913,2.9913,2.9913,2.9913,2.9913,2.9913,2.9913,2.9913,2.9913,2.9913,2.9913,2.9913,2.9913,2.9913,1.7635,1.9118,2.0468,2.1676,2.2893,2.395,2.4462,2.5342,2.6065,2.6279,2.6734,2.7161,2.7455,2.7791,2.8031,2.8165,2.8179,2.8179,2.8179,2.8179,2.8179,2.8179,2.8179,2.8179,2.8179,2.8179,2.8179,2.8179,2.8179,2.8179,2.8179,2.8353,2.8537,2.8801,2.9138,2.9432,2.9726,2.9847,2.9913,2.9913,2.9913,2.9913,2.9913,2.9913,2.9913,2.9913,2.9913,2.9913,2.9913,2.9913,2.9913,2.9913,2.9913,2.9913,2.9913,2.9913,2.9913,2.9913,2.9913,2.9913,2.9913,2.9913,2.9913,2.9913,2.9913,2.9913,2.9913,2.9913,2.9913,2.9913,2.9913,2.9913,2.9913,2.9913,2.9913,2.9913,2.9913,2.9913,2.9913,2.9913,2.9913,2.9913,2.9913,2.9913,2.9913,2.9913,2.9913,2.9913,2.9913,2.9913,2.9913,2.9913,2.9913,2.9913,2.9913,2.9913,2.9913,2.9913,2.9913,2.9913,2.9913,2.9913,2.9913,2.9913,2.9913,2.9913,2.9913,2.9913,2.9913,2.9913,2.9913,2.9913,1.7662,1.8826,1.9773,2.1047,2.2305,2.3375,2.3861,2.477,2.5636,2.5931,2.6573,2.7215,2.7615,2.7978,2.8179,2.8179,2.8179,2.8179,2.8179,2.8179,2.8179,2.8179,2.8179,2.8179,2.8179,2.8179,2.8179,2.8179,2.8179,2.8179,2.8179,2.8444,2.8738,2.8988,2.9325,2.9619,2.9913,2.9913,2.9913,2.9913,2.9913,2.9913,2.9913,2.9913,2.9913,2.9913,2.9913,2.9913,2.9913,2.9913,2.9913,2.9913,2.9913,2.9913,2.9913,2.9913,2.9913,2.9913,2.9913,2.9913,2.9913,2.9913,2.9913,2.9913,2.9913,2.9913,2.9913,2.9913,2.9913,2.9913,2.9913,2.9913,2.9913,2.9913,2.9913,2.9913,2.9913,2.9913,2.9913,2.9913,2.9913,2.9913,2.9913,2.9913,2.9913,2.9913,2.9913,2.9913,2.9913,2.9913,2.9913,2.9913,2.9913,2.9913,2.9913,2.9913,2.9913,2.9913,2.9913,2.9913,2.9913,2.9913,2.9913,2.9913,2.9913,2.9913,2.9913,2.9913,2.9913,2.9913,2.9913,2.9913,1.6993,1.7903,1.8905,2.0391,2.1234,2.1997,2.3113,2.3848,2.4609,2.577,2.6252,2.6694,2.7549,2.7978,2.8179,2.8179,2.8179,2.8179,2.8179,2.8179,2.8179,2.8179,2.8179,2.8179,2.8179,2.8179,2.8179,2.8179,2.8179,2.8179,2.8179,2.8444,2.8738,2.8988,2.9325,2.9619,2.9913,2.9913,2.9913,2.9913,2.9913,2.9913,2.9913,2.9913,2.9913,2.9913,2.9913,2.9913,2.9913,2.9913,2.9913,2.9913,2.9913,2.9913,2.9913,2.9913,2.9913,2.9913,2.9913,2.9913,2.9913,2.9913,2.9913,2.9913,2.9913,2.9913,2.9913,2.9913,2.9913,2.9913,2.9913,2.9913,2.9913,2.9913,2.9913,2.9913,2.9913,2.9913,2.9913,2.9913,2.9913,2.9913,2.9913,2.9913,2.9913,2.9913,2.9913,2.9913,2.9913,2.9913,2.9913,2.9913,2.9913,2.9913,2.9913,2.9913,2.9913,2.9913,2.9913,2.9913,2.9913,2.9913,2.9913,2.9913,2.9913,2.9913,2.9913,2.9913,2.9913,2.9913,2.9913,2.9913,1.6377,1.726,1.817,1.9279,2.0414,2.1483,2.2285,2.3367,2.4436,2.5262,2.5919,2.66,2.7295,2.7655,2.7965,2.8152,2.8179,2.8179,2.8179,2.8179,2.8179,2.8179,2.8179,2.8179,2.8179,2.8179,2.8179,2.8179,2.8179,2.8179,2.8179,2.8617,2.8895,2.8988,2.9513,2.9806,2.9913,2.9913,2.9913,2.9913,2.9913,2.9913,2.9913,2.9913,2.9913,2.9913,2.9913,2.9913,2.9913,2.9913,2.9913,2.9913,2.9913,2.9913,2.9913,2.9913,2.9913,2.9913,2.9913,2.9913,2.9913,2.9913,2.9913,2.9913,2.9913,2.9913,2.9913,2.9913,2.9913,2.9913,2.9913,2.9913,2.9913,2.9913,2.9913,2.9913,2.9913,2.9913,2.9913,2.9913,2.9913,2.9913,2.9913,2.9913,2.9913,2.9913,2.9913,2.9913,2.9913,2.9913,2.9913,2.9913,2.9913,2.9913,2.9913,2.9913,2.9913,2.9913,2.9913,2.9913,2.9913,2.9913,2.9913,2.9913,2.9913,2.9913,2.9913,2.9913,2.9913,2.9913,2.9913,2.9913,1.5815,1.662,1.7528,1.8531,1.9653,2.0735,2.151,2.2686,2.3794,2.4539,2.5264,2.6039,2.6867,2.7134,2.7455,2.8085,2.8179,2.8179,2.8179,2.8179,2.8179,2.8179,2.8179,2.8179,2.8179,2.8179,2.8179,2.8179,2.8179,2.8179,2.8179,2.8711,2.9081,2.9282,2.9713,2.9913,2.9913,2.9913,2.9913,2.9913,2.9913,2.9913,2.9913,2.9913,2.9913,2.9913,2.9913,2.9913,2.9913,2.9913,2.9913,2.9913,2.9913,2.9913,2.9913,2.9913,2.9913,2.9913,2.9913,2.9913,2.9913,2.9913,2.9913,2.9913,2.9913,2.9913,2.9913,2.9913,2.9913,2.9913,2.9913,2.9913,2.9913,2.9913,2.9913,2.9913,2.9913,2.9913,2.9913,2.9913,2.9913,2.9913,2.9913,2.9913,2.9913,2.9913,2.9913,2.9913,2.9913,2.9913,2.9913,2.9913,2.9913,2.9913,2.9913,2.9913,2.9913,2.9913,2.9913,2.9913,2.9913,2.9913,2.9913,2.9913,2.9913,2.9913,2.9913,2.9913,2.9913,2.9913,2.9913,2.9913,0.0,0.0,0.0,1.8156,1.8933,1.9682,2.0815,2.1764,2.2645,2.3589,2.4209,2.4933,2.6132,2.636,2.6787,2.7951,2.8165,2.8179,2.8179,2.8179,2.8179,2.8179,2.8179,2.8179,2.8179,2.8179,2.8179,2.8179,2.8179,2.8179,2.8179,2.8711,2.9268,2.99,2.9913,2.9913,2.9913,2.9913,2.9913,2.9913,2.9913,2.9913,2.9913,2.9913,2.9913,2.9913,2.9913,2.9913,2.9913,2.9913,2.9913,2.9913,2.9913,2.9913,2.9913,2.9913,2.9913,2.9913,2.9913,2.9913,2.9913,2.9913,2.9913,2.9913,2.9913,2.9913,2.9913,2.9913,2.9913,2.9913,2.9913,2.9913,2.9913,2.9913,2.9913,2.9913,2.9913,2.9913,2.9913,2.9913,2.9913,2.9913,2.9913,2.9913,2.9913,2.9913,2.9913,2.9913,2.9913,2.9913,2.9913,2.9913,2.9913,2.9913,2.9913,2.9913,2.9913,2.9913,2.9913,2.9913,2.9913,2.9913,2.9913,2.9913,2.9913,2.9913,2.9913,2.9913,2.9913,2.9913,2.9913,2.9913,1.5378,0.0,0.0,0.0,0.0,0.0,2.0184,2.1162,2.2077,2.296,2.3629,2.4302,2.5264,2.5611,2.6066,2.7028,2.7549,2.7938,2.8152,2.8179,2.8179,2.8179,2.8179,2.8179,2.8179,2.8179,2.8179,2.8179,2.8179,2.8179,2.8179,2.8711,2.9268,2.99,2.9913,2.9913,2.9913,2.9913,2.9913,2.9913,2.9913,2.9913,2.9913,2.9913,2.9913,2.9913,2.9913,2.9913,2.9913,2.9913,2.9913,2.9913,2.9913,2.9913,2.9913,2.9913,2.9913,2.9913,2.9913,2.9913,2.9913,2.9913,2.9913,2.9913,2.9913,2.9913,2.9913,2.9913,2.9913,2.9913,2.9913,2.9913,2.9913,2.9913,2.9913,2.9913,2.9913,2.9913,2.9913,2.9913,2.9913,2.9913,2.9913,2.9913,2.9913,2.9913,2.9913,2.9913,2.9913,2.9913,2.9913,2.9913,2.9913,2.9913,2.9913,2.9913,2.9913,2.9913,2.9913,2.9913,2.9913,2.9913,2.9913,2.9913,2.9913,2.9913,2.9913,2.9913,2.9913,2.9913,2.9913,2.9913,1.5391,1.5738,1.6233,1.6846,0.0,0.0,1.941,2.0374,2.1288,2.2171,2.2733,2.3335,2.4182,2.4596,2.5037,2.5746,2.64,2.7068,2.7884,2.8005,2.8045,2.8165,2.8179,2.8179,2.8179,2.8179,2.8179,2.8179,2.8179,2.8245,2.8366,2.8791,2.9215,2.9726,2.9847,2.9913,2.9913,2.9913,2.9913,2.9913,2.9913,2.9913,2.9913,2.9913,2.9913,2.9913,2.9913,2.9913,2.9913,2.9913,2.9913,2.9913,2.9913,2.9913,2.9913,2.9913,2.9913,2.9913,2.9913,2.9913,2.9913,2.9913,2.9913,2.9913,2.9913,2.9913,2.9913,2.9913,2.9913,2.9913,2.9913,2.9913,2.9913,2.9913,2.9913,2.9913,2.9913,2.9913,2.9913,2.9913,2.9913,2.9913,2.9913,2.9913,2.9913,2.9913,2.9913,2.9913,2.9913,2.9913,2.9913,2.9913,2.9913,2.9913,2.9913,2.9913,2.9913,2.9913,2.9913,2.9913,2.9913,2.9913,2.9913,2.9913,2.9913,2.9913,2.9913,2.9913,2.9913,2.9913,2.9913,2.9913,1.5458,1.5608,1.5941,1.6513,1.7074,0.0,1.8596,1.9423,2.0294,2.1208,2.1622,2.2071,2.2966,2.3367,2.3768,2.4359,2.4893,2.5798,2.7295,2.7562,2.7696,2.8005,2.8072,2.8098,2.8138,2.8138,2.8152,2.8179,2.8179,2.8326,2.8591,2.8841,2.9135,2.9472,2.9766,2.9913,2.9913,2.9913,2.9913,2.9913,2.9913,2.9913,2.9913,2.9913,2.9913,2.9913,2.9913,2.9913,2.9913,2.9913,2.9913,2.9913,2.9913,2.9913,2.9913,2.9913,2.9913,2.9913,2.9913,2.9913,2.9913,2.9913,2.9913,2.9913,2.9913,2.9913,2.9913,2.9913,2.9913,2.9913,2.9913,2.9913,2.9913,2.9913,2.9913,2.9913,2.9913,2.9913,2.9913,2.9913,2.9913,2.9913,2.9913,2.9913,2.9913,2.9913,2.9913,2.9913,2.9913,2.9913,2.9913,2.9913,2.9913,2.9913,2.9913,2.9913,2.9913,2.9913,2.9913,2.9913,2.9913,2.9913,2.9913,2.9913,2.9913,2.9913,2.9913,2.9913,2.9913,2.9913,2.9913,2.9913,0.0,0.0,0.0,0.0,0.0,0.0,1.7982,1.8503,1.9078,1.996,2.0374,2.0811,2.177,2.2171,2.2605,2.3412,2.3639,2.4342,2.6091,2.6694,2.7014,2.7068,2.7295,2.7563,2.7762,2.7789,2.7924,2.8165,2.8179,2.8326,2.8591,2.8841,2.9135,2.9472,2.9766,2.9913,2.9913,2.9913,2.9913,2.9913,2.9913,2.9913,2.9913,2.9913,2.9913,2.9913,2.9913,2.9913,2.9913,2.9913,2.9913,2.9913,2.9913,2.9913,2.9913,2.9913,2.9913,2.9913,2.9913,2.9913,2.9913,2.9913,2.9913,2.9913,2.9913,2.9913,2.9913,2.9913,2.9913,2.9913,2.9913,2.9913,2.9913,2.9913,2.9913,2.9913,2.9913,2.9913,2.9913,2.9913,2.9913,2.9913,2.9913,2.9913,2.9913,2.9913,2.9913,2.9913,2.9913,2.9913,2.9913,2.9913,2.9913,2.9913,2.9913,2.9913,2.9913,2.9913,2.9913,2.9913,2.9913,2.9913,2.9913,2.9913,2.9913,2.9913,2.9913,2.9913,2.9913,2.9913,2.9913,2.9913,0.0,0.0,0.0,1.6046,0.0,0.0,0.0,1.7609,1.8103,1.8958,1.9265,1.9626,2.0552,2.0909,2.1349,2.2065,2.2472,2.302,2.4048,2.5077,2.5892,2.6333,2.656,2.6827,2.7215,2.7255,2.7442,2.7924,2.8098,2.8259,2.8406,2.8804,2.9068,2.9259,2.9686,2.9913,2.9913,2.9913,2.9913,2.9913,2.9913,2.9913,2.9913,2.9913,2.9913,2.9913,2.9913,2.9913,2.9913,2.9913,2.9913,2.9913,2.9913,2.9913,2.9913,2.9913,2.9913,2.9913,2.9913,2.9913,2.9913,2.9913,2.9913,2.9913,2.9913,2.9913,2.9913,2.9913,2.9913,2.9913,2.9913,2.9913,2.9913,2.9913,2.9913,2.9913,2.9913,2.9913,2.9913,2.9913,2.9913,2.9913,2.9913,2.9913,2.9913,2.9913,2.9913,2.9913,2.9913,2.9913,2.9913,2.9913,2.9913,2.9913,2.9913,2.9913,2.9913,2.9913,2.9913,2.9913,2.9913,2.9913,2.9913,2.9913,2.9913,2.9913,2.9913,2.9913,2.9913,2.9913,2.9913,2.9913,0.0,0.0,0.0,0.0,0.0,1.6444,0.0,0.0,0.0,1.8103,1.8277,1.8571,1.9399,1.9786,2.009,2.0535,2.1149,2.163,2.1804,2.3025,2.4342,2.5449,2.5623,2.5904,2.6507,2.668,2.7041,2.7575,2.7924,2.8125,2.8179,2.8711,2.9001,2.9001,2.9606,2.9913,2.9913,2.9913,2.9913,2.9913,2.9913,2.9913,2.9913,2.9913,2.9913,2.9913,2.9913,2.9913,2.9913,2.9913,2.9913,2.9913,2.9913,2.9913,2.9913,2.9913,2.9913,2.9913,2.9913,2.9913,2.9913,2.9913,2.9913,2.9913,2.9913,2.9913,2.9913,2.9913,2.9913,2.9913,2.9913,2.9913,2.9913,2.9913,2.9913,2.9913,2.9913,2.9913,2.9913,2.9913,2.9913,2.9913,2.9913,2.9913,2.9913,2.9913,2.9913,2.9913,2.9913,2.9913,2.9913,2.9913,2.9913,2.9913,2.9913,2.9913,2.9913,2.9913,2.9913,2.9913,2.9913,2.9913,2.9913,2.9913,2.9913,2.9913,2.9913,2.9913,2.9913,2.9913,2.9913,2.9913,0.0,0.0,0.0,0.0,1.6846,0.0,0.0,0.0,1.686,1.7286,0.0,1.7903,1.8517,0.0,0.0,1.8811,1.9492,1.9973,1.9776,2.0748,2.2138,2.3857,2.4249,2.473,2.5585,2.636,2.6961,2.7336,2.7589,2.7911,2.8165,2.8711,2.9001,2.9001,2.9606,2.9913,2.9913,2.9913,2.9913,2.9913,2.9913,2.9913,2.9913,2.9913,2.9913,2.9913,2.9913,2.9913,2.9913,2.9913,2.9913,2.9913,2.9913,2.9913,2.9913,2.9913,2.9913,2.9913,2.9913,2.9913,2.9913,2.9913,2.9913,2.9913,2.9913,2.9913,2.9913,2.9913,2.9913,2.9913,2.9913,2.9913,2.9913,2.9913,2.9913,2.9913,2.9913,2.9913,2.9913,2.9913,2.9913,2.9913,2.9913,2.9913,2.9913,2.9913,2.9913,2.9913,2.9913,2.9913,2.9913,2.9913,2.9913,2.9913,2.9913,2.9913,2.9913,2.9913,2.9913,2.9913,2.9913,2.9913,2.9913,2.9913,2.9913,2.9913,2.9913,2.9913,2.9913,2.9913,2.9913,2.9913,0.0,0.0,0.0,0.0,0.0,0.0,1.674,0.0,1.6565,0.0,0.0,0.0,0.0,0.0,0.0,0.0,1.8531,1.8851,1.9078,1.9533,2.0561,2.2532,2.2993,2.3514,2.4422,2.5451,2.6186,2.6519,2.7241,2.7749,2.7883,2.8617,2.9001,2.9001,2.9606,2.9913,2.9913,2.9913,2.9913,2.9913,2.9913,2.9913,2.9913,2.9913,2.9913,2.9913,2.9913,2.9913,2.9913,2.9913,2.9913,2.9913,2.9913,2.9913,2.9913,2.9913,2.9913,2.9913,2.9913,2.9913,2.9913,2.9913,2.9913,2.9913,2.9913,2.9913,2.9913,2.9913,2.9913,2.9913,2.9913,2.9913,2.9913,2.9913,2.9913,2.9913,2.9913,2.9913,2.9913,2.9913,2.9913,2.9913,2.9913,2.9913,2.9913,2.9913,2.9913,2.9913,2.9913,2.9913,2.9913,2.9913,2.9913,2.9913,2.9913,2.9913,2.9913,2.9913,2.9913,2.9913,2.9913,2.9913,2.9913,2.9913,2.9913,2.9913,2.9913,2.9913,2.9913,2.9913,2.9913,2.9913,2.003,0.0,0.0,0.0,0.0,0.0,0.0,0.0,0.0,0.0,0.0,0.0,0.0,0.0,0.0,0.0,0.0,1.7876,0.0,1.8477,0.0,0.0,2.1977,2.2565,2.3255,2.4409,2.5304,2.573,2.68,2.7522,2.7696,2.847,2.8908,2.8988,2.9495,2.9833,2.9913,2.9913,2.9913,2.9913,2.9913,2.9913,2.9913,2.9913,2.9913,2.9913,2.9913,2.9913,2.9913,2.9913,2.9913,2.9913,2.9913,2.9913,2.9913,2.9913,2.9913,2.9913,2.9913,2.9967,3.0034,3.0034,3.0087,3.0154,3.0154,3.0154,3.0154,3.0154,3.01,3.0034,3.0034,2.998,2.9913,2.9913,2.9913,2.9913,2.9913,2.9913,2.9913,2.9913,2.9913,2.9913,2.9913,2.9913,2.9913,2.9913,2.9913,2.9913,2.9913,2.9913,2.9913,2.9913,2.9913,2.9913,2.9913,2.9913,2.9913,2.9913,2.9913,2.9913,2.9913,2.9913,2.9913,2.9913,2.9913,2.9913,2.9913,2.9913,2.9913,2.9913,2.9913,2.9913,0.0,0.0,0.0,1.98,0.0,0.0,0.0,0.0,1.7488,0.0,0.0,0.0,0.0,0.0,0.0,0.0,0.0,0.0,0.0,0.0,0.0,0.0,0.0,0.0,0.0,2.338,2.4489,0.0,2.6186,2.7094,2.7669,2.8283,2.8751,2.8988,2.9339,2.9633,2.9913,2.9913,2.9913,2.9913,2.9913,2.9913,2.9913,2.9913,2.9913,2.9913,2.9913,2.9913,2.9913,2.9913,2.9913,2.9913,2.9913,2.9913,2.9913,2.9913,2.9913,2.9913,2.9913,3.01,3.0386,3.0386,3.0587,3.0768,3.0768,3.0768,3.0768,3.0768,3.0568,3.0386,3.0386,3.0127,2.9913,2.9913,2.9913,2.9913,2.9913,2.9913,2.9913,2.9913,2.9913,2.9913,2.9913,2.9913,2.9913,2.9913,2.9913,2.9913,2.9913,2.9913,2.9913,2.9913,2.9913,2.9913,2.9913,2.9913,2.9913,2.9913,2.9913,2.9913,2.9913,2.9913,2.9913,2.9913,2.9913,2.9913,2.9913,2.9913,2.9913,2.9913,2.9913,2.9913,2.2105,2.155,2.102,2.0539,0.0,0.0,0.0,0.0,0.0,0.0,0.0,0.0,0.0,0.0,0.0,0.0,0.0,0.0,0.0,0.0,0.0,0.0,0.0,0.0,0.0,0.0,0.0,2.4191,2.5516,2.6507,2.7094,2.7911,2.8444,2.8751,2.9232,2.9526,2.9633,2.982,2.9913,2.9913,2.9913,2.9913,2.9913,2.9913,2.9913,2.9913,2.9913,2.9913,2.9913,2.9913,2.9913,2.9913,2.9913,2.9913,2.9913,2.9913,2.9913,2.994,3.014,3.0319,3.044,3.0627,3.0715,3.0795,3.0795,3.0795,3.0795,3.0795,3.0715,3.0648,3.0648,3.0434,3.0207,3.0207,3.006,2.9913,2.9913,2.9913,2.9913,2.9913,2.9913,2.9913,2.9913,2.9913,2.9913,2.9913,2.9913,2.9913,2.9913,2.9913,2.9913,2.9913,2.9913,2.9913,2.9913,2.9913,2.9913,2.9913,2.9913,2.9913,2.9913,2.9913,2.9913,2.9913,2.9913,2.9913,2.9913,2.9913,2.9913,2.9913,2.9913,2.9913,2.3086,2.2666,2.2211,2.1502,2.0935,2.0494,2.0244,0.0,1.9303,0.0,0.0,0.0,0.0,0.0,0.0,0.0,0.0,0.0,0.0,1.6551,0.0,0.0,0.0,0.0,0.0,0.0,2.2325,2.322,2.4649,2.5785,0.0,2.7389,2.8058,2.843,2.9018,2.9379,2.9486,2.9766,2.9913,2.9913,2.9913,2.9913,2.9913,2.9913,2.9913,2.9913,2.9913,2.9913,2.9913,2.9913,2.9913,2.9913,2.9913,2.9913,2.9913,2.9913,2.998,3.0114,3.0408,3.0581,3.0702,3.0889,3.1022,3.1102,3.1102,3.1102,3.1076,3.0982,3.0942,3.0929,3.0822,3.0662,3.0533,3.0426,3.0207,3.0047,2.994,2.9913,2.9913,2.9913,2.9913,2.9913,2.9913,2.9913,2.9913,2.9913,2.9913,2.9913,2.9913,2.9913,2.9913,2.9913,2.9913,2.9913,2.9913,2.9913,2.9913,2.9913,2.9913,2.9913,2.9913,2.9913,2.9913,2.9913,2.9913,2.9913,2.9913,2.9913,2.9913,2.9913,2.9913,2.9913]},{"header":{"parameterUnit":"m.s-1","parameterCategory":1,"la1":30.6,"la2":29.2853,"lo1":-89.7004,"lo2":-87.6739,"dx":0.0162,"dy":0.0183,"nx":112,"ny":82,"refTime":"2022-11-28T18:00:00:Z","depth":0,"parameterNumber":3,"parameterNumberName":"V-component_of_WINDS"},"data":[0.0,0.0,0.0,0.0,0.0,0.0,0.0,0.0,0.0,0.0,0.0,0.0,0.0,0.0,0.0,0.0,0.0,0.0,0.0,0.0,0.0,0.0,0.0,0.0,0.0,0.0,0.0,0.0,0.0,0.0,0.0,0.0,0.0,0.0,0.0,0.0,0.0,0.0,0.0,0.0,0.0,0.0,0.0,0.0,0.0,0.0,0.0,0.0,0.0,0.0,0.0,0.0,0.0,0.0,0.0,0.0,0.0,0.0,0.0,0.0,0.0,0.0,0.0,0.0,0.0,0.0,0.0,0.0,0.0,0.0,0.0,0.0,0.0,0.0,0.0,0.0,0.0,0.0,0.0,0.0,0.0,0.0,0.0,0.0,0.0,0.0,0.0,0.0,0.0,0.0,3.0388,3.3592,3.64,3.7538,3.6253,3.5351,3.3626,3.0775,0.0,0.0,0.0,0.0,0.0,0.0,0.0,0.0,0.0,0.0,0.0,0.0,0.0,0.0,0.0,0.0,0.0,0.0,0.0,0.0,0.0,0.0,0.0,0.0,0.0,0.0,0.0,0.0,0.0,0.0,0.0,0.0,0.0,0.0,0.0,0.0,0.0,0.0,0.0,0.0,0.0,0.0,0.0,0.0,0.0,0.0,0.0,0.0,0.0,0.0,0.0,0.0,0.0,0.0,0.0,0.0,0.0,0.0,0.0,0.0,0.0,0.0,0.0,0.0,0.0,0.0,0.0,0.0,0.0,0.0,0.0,0.0,0.0,0.0,0.0,0.0,0.0,0.0,0.0,0.0,0.0,0.0,0.0,0.0,0.0,0.0,0.0,0.0,0.0,0.0,0.0,0.0,0.0,0.0,0.0,0.0,0.0,0.0,0.0,0.0,0.0,0.0,0.0,0.0,3.1562,3.5836,3.7799,3.8734,3.8497,3.7224,3.543,3.3041,0.0,0.0,0.0,0.0,0.0,0.0,0.0,0.0,0.0,0.0,0.0,0.0,0.0,0.0,0.0,0.0,0.0,0.0,0.0,0.0,0.0,0.0,0.0,0.0,0.0,0.0,0.0,0.0,0.0,0.0,0.0,0.0,0.0,0.0,0.0,0.0,0.0,0.0,0.0,0.0,0.0,0.0,0.0,0.0,0.0,0.0,0.0,0.0,0.0,0.0,0.0,0.0,0.0,0.0,0.0,0.0,0.0,0.0,0.0,0.0,0.0,0.0,0.0,0.0,0.0,0.0,0.0,0.0,0.0,0.0,0.0,0.0,0.0,0.0,0.0,0.0,0.0,0.0,0.0,0.0,0.0,0.0,0.0,0.0,0.0,0.0,0.0,0.0,0.0,0.0,0.0,0.0,0.0,0.0,0.0,0.0,0.0,0.0,0.0,0.0,0.0,0.0,0.0,3.2104,3.4821,3.7697,3.8949,3.9423,3.9039,3.763,3.5836,3.3548,2.9982,0.0,0.0,0.0,0.0,0.0,0.0,0.0,0.0,0.0,0.0,0.0,0.0,0.0,0.0,0.0,0.0,0.0,0.0,0.0,0.0,0.0,0.0,0.0,0.0,0.0,0.0,0.0,0.0,0.0,0.0,0.0,0.0,0.0,0.0,0.0,0.0,0.0,0.0,0.0,0.0,0.0,0.0,0.0,0.0,0.0,0.0,0.0,0.0,0.0,0.0,0.0,0.0,0.0,0.0,0.0,0.0,0.0,0.0,0.0,0.0,0.0,0.0,0.0,0.0,0.0,0.0,0.0,0.0,0.0,0.0,0.0,0.0,0.0,0.0,0.0,0.0,0.0,0.0,0.0,0.0,0.0,0.0,0.0,0.0,0.0,0.0,0.0,0.0,0.0,0.0,0.0,0.0,0.0,0.0,0.0,0.0,0.0,0.0,0.0,0.0,0.0,0.0,3.5396,3.7427,3.9073,3.9762,3.9931,3.9546,3.8002,3.6175,3.4055,3.0997,0.0,0.0,0.0,0.0,0.0,0.0,0.0,0.0,0.0,0.0,0.0,0.0,0.0,0.0,0.0,0.0,0.0,0.0,0.0,0.0,0.0,0.0,0.0,0.0,0.0,0.0,0.0,0.0,0.0,0.0,0.0,0.0,0.0,0.0,0.0,0.0,0.0,0.0,0.0,0.0,0.0,0.0,0.0,0.0,0.0,0.0,0.0,0.0,0.0,0.0,0.0,0.0,0.0,0.0,0.0,0.0,0.0,0.0,0.0,0.0,0.0,0.0,0.0,0.0,0.0,0.0,0.0,0.0,0.0,0.0,0.0,0.0,0.0,0.0,0.0,0.0,0.0,0.0,0.0,0.0,0.0,0.0,0.0,0.0,0.0,0.0,0.0,0.0,0.0,0.0,0.0,0.0,0.0,0.0,0.0,0.0,0.0,0.0,0.0,0.0,0.0,0.0,3.5396,3.763,3.9804,4.0054,4.0371,4.1001,3.906,3.7133,3.5532,3.2026,0.0,0.0,0.0,0.0,0.0,0.0,0.0,0.0,0.0,0.0,0.0,0.0,0.0,0.0,0.0,0.0,0.0,0.0,0.0,0.0,0.0,0.0,0.0,0.0,0.0,0.0,0.0,0.0,0.0,0.0,0.0,0.0,0.0,0.0,0.0,0.0,0.0,0.0,0.0,0.0,0.0,0.0,0.0,0.0,0.0,0.0,0.0,0.0,0.0,0.0,0.0,0.0,0.0,0.0,0.0,0.0,0.0,0.0,0.0,0.0,0.0,0.0,0.0,0.0,0.0,0.0,0.0,0.0,0.0,0.0,0.0,0.0,0.0,0.0,0.0,0.0,0.0,0.0,0.0,0.0,0.0,0.0,0.0,0.0,0.0,0.0,0.0,0.0,0.0,0.0,0.0,0.0,0.0,0.0,0.0,0.0,0.0,0.0,0.0,0.0,0.0,0.0,3.6772,3.8848,4.0582,4.1204,4.142,4.1238,3.958,3.7741,3.5735,0.0,0.0,0.0,0.0,0.0,0.0,0.0,0.0,0.0,0.0,0.0,0.0,0.0,0.0,0.0,0.0,0.0,0.0,0.0,0.0,0.0,0.0,0.0,0.0,0.0,0.0,0.0,0.0,0.0,0.0,0.0,0.0,0.0,0.0,0.0,0.0,0.0,0.0,0.0,0.0,0.0,0.0,0.0,0.0,0.0,0.0,0.0,0.0,0.0,0.0,0.0,0.0,0.0,0.0,0.0,0.0,0.0,0.0,0.0,0.0,0.0,0.0,0.0,0.0,0.0,0.0,0.0,0.0,0.0,0.0,0.0,0.0,0.0,0.0,0.0,0.0,0.0,0.0,0.0,0.0,0.0,0.0,0.0,0.0,0.0,0.0,0.0,0.0,0.0,0.0,0.0,0.0,0.0,0.0,0.0,0.0,0.0,0.0,0.0,0.0,0.0,0.0,3.5611,3.7956,3.9986,4.1711,4.2151,4.2185,4.1901,4.0324,3.8408,3.6118,0.0,0.0,0.0,0.0,0.0,0.0,0.0,0.0,0.0,0.0,0.0,0.0,0.0,0.0,0.0,0.0,0.0,0.0,0.0,0.0,0.0,0.0,0.0,0.0,0.0,0.0,0.0,0.0,0.0,0.0,0.0,0.0,0.0,0.0,0.0,0.0,0.0,0.0,0.0,0.0,0.0,0.0,0.0,0.0,0.0,0.0,0.0,0.0,0.0,0.0,0.0,0.0,0.0,0.0,0.0,0.0,0.0,0.0,0.0,0.0,0.0,0.0,0.0,0.0,0.0,0.0,0.0,0.0,0.0,0.0,0.0,0.0,0.0,0.0,0.0,0.0,0.0,0.0,0.0,0.0,0.0,0.0,0.0,0.0,0.0,0.0,0.0,0.0,0.0,0.0,0.0,0.0,0.0,0.0,0.0,0.0,0.0,0.0,0.0,0.0,0.0,0.0,3.6423,3.8759,4.098,4.3186,4.2794,4.2625,4.3355,4.1386,3.9199,0.0,0.0,0.0,0.0,0.0,0.0,0.0,0.0,0.0,0.0,0.0,0.0,0.0,0.0,0.0,0.0,0.0,0.0,0.0,0.0,0.0,0.0,0.0,0.0,0.0,0.0,0.0,0.0,0.0,0.0,0.0,0.0,0.0,0.0,0.0,0.0,0.0,0.0,0.0,0.0,0.0,0.0,0.0,0.0,0.0,0.0,0.0,0.0,0.0,0.0,0.0,0.0,0.0,0.0,0.0,0.0,0.0,0.0,0.0,0.0,0.0,0.0,0.0,0.0,0.0,0.0,0.0,0.0,0.0,0.0,0.0,0.0,0.0,0.0,0.0,0.0,0.0,0.0,0.0,0.0,0.0,0.0,0.0,0.0,0.0,0.0,0.0,0.0,0.0,0.0,0.0,0.0,0.0,0.0,0.0,0.0,0.0,0.0,0.0,0.0,0.0,0.0,0.0,3.7178,3.9965,4.2333,4.4059,4.4973,4.5142,4.433,4.2638,4.0709,3.8476,0.0,0.0,0.0,0.0,0.0,0.0,0.0,0.0,0.0,0.0,0.0,0.0,0.0,0.0,0.0,0.0,0.0,0.0,0.0,0.0,0.0,0.0,0.0,0.0,0.0,0.0,0.0,0.0,0.0,0.0,0.0,0.0,0.0,0.0,0.0,0.0,0.0,0.0,0.0,0.0,0.0,0.0,0.0,0.0,0.0,0.0,0.0,0.0,0.0,0.0,0.0,0.0,0.0,0.0,0.0,0.0,0.0,0.0,0.0,0.0,0.0,0.0,0.0,0.0,0.0,0.0,0.0,0.0,0.0,0.0,0.0,0.0,0.0,0.0,0.0,0.0,0.0,0.0,0.0,0.0,0.0,0.0,0.0,0.0,0.0,0.0,0.0,0.0,0.0,0.0,0.0,0.0,0.0,0.0,0.0,0.0,0.0,0.0,0.0,0.0,0.0,0.0,3.8396,4.1102,4.3436,4.5277,4.6259,4.6563,4.5974,4.4262,4.2266,4.002,0.0,0.0,0.0,0.0,0.0,0.0,0.0,0.0,0.0,0.0,0.0,0.0,0.0,0.0,0.0,0.0,0.0,0.0,0.0,0.0,0.0,0.0,0.0,0.0,0.0,0.0,0.0,0.0,0.0,0.0,0.0,0.0,0.0,0.0,0.0,0.0,0.0,0.0,0.0,0.0,0.0,0.0,0.0,0.0,0.0,0.0,0.0,0.0,0.0,0.0,0.0,0.0,0.0,0.0,0.0,0.0,0.0,0.0,0.0,0.0,0.0,0.0,0.0,0.0,0.0,0.0,0.0,0.0,0.0,0.0,0.0,0.0,0.0,0.0,0.0,0.0,0.0,0.0,0.0,0.0,0.0,0.0,0.0,0.0,0.0,0.0,0.0,0.0,0.0,0.0,0.0,0.0,0.0,0.0,0.0,0.0,0.0,0.0,0.0,0.0,0.0,0.0,3.9943,4.2286,4.4573,4.6752,4.7139,4.7428,4.7954,4.6109,4.3958,4.1677,0.0,0.0,0.0,0.0,0.0,0.0,0.0,0.0,0.0,0.0,0.0,0.0,0.0,0.0,0.0,0.0,0.0,0.0,0.0,0.0,0.0,0.0,0.0,0.0,0.0,0.0,0.0,0.0,0.0,0.0,0.0,0.0,0.0,0.0,0.0,0.0,0.0,0.0,0.0,0.0,0.0,0.0,0.0,0.0,0.0,0.0,0.0,0.0,0.0,0.0,0.0,0.0,0.0,0.0,0.0,0.0,0.0,0.0,0.0,0.0,2.9149,2.6883,0.0,0.0,0.0,0.0,0.0,0.0,0.0,0.0,0.0,0.0,0.0,0.0,0.0,0.0,0.0,0.0,0.0,0.0,0.0,0.0,0.0,0.0,0.0,0.0,0.0,0.0,0.0,0.0,0.0,0.0,0.0,0.0,0.0,0.0,0.0,0.0,0.0,0.0,0.0,0.0,4.1521,4.4316,4.6718,4.8342,4.9578,4.9848,4.8849,4.7785,4.6244,4.4025,4.188,0.0,0.0,0.0,0.0,0.0,0.0,0.0,0.0,0.0,0.0,0.0,0.0,0.0,0.0,0.0,0.0,0.0,0.0,0.0,0.0,0.0,0.0,0.0,0.0,0.0,0.0,0.0,0.0,0.0,0.0,0.0,0.0,0.0,0.0,0.0,0.0,0.0,0.0,0.0,0.0,0.0,0.0,0.0,0.0,0.0,0.0,0.0,0.0,0.0,0.0,0.0,0.0,0.0,0.0,0.0,0.0,0.0,0.0,0.0,3.2931,3.0612,0.0,0.0,0.0,0.0,0.0,0.0,0.0,0.0,0.0,0.0,0.0,0.0,0.0,0.0,0.0,0.0,0.0,0.0,0.0,0.0,0.0,0.0,0.0,0.0,0.0,0.0,0.0,0.0,0.0,0.0,0.0,0.0,0.0,0.0,0.0,0.0,0.0,0.0,0.0,0.0,4.3606,4.594,4.8037,4.9848,5.0728,5.1032,5.0642,4.9593,4.8173,4.6312,4.4418,0.0,0.0,0.0,0.0,0.0,0.0,0.0,0.0,0.0,0.0,0.0,0.0,0.0,0.0,0.0,0.0,0.0,0.0,0.0,0.0,0.0,0.0,0.0,0.0,0.0,0.0,0.0,0.0,0.0,0.0,0.0,0.0,0.0,0.0,0.0,0.0,0.0,0.0,0.0,0.0,0.0,0.0,0.0,0.0,0.0,0.0,0.0,0.0,0.0,0.0,0.0,0.0,0.0,3.6737,3.7531,3.8891,3.9478,4.0168,4.0663,3.7032,3.4979,3.4067,3.276,0.0,0.0,0.0,0.0,0.0,0.0,0.0,0.0,0.0,0.0,0.0,0.0,0.0,0.0,0.0,0.0,0.0,0.0,0.0,0.0,0.0,0.0,3.7166,3.8688,3.9614,3.9525,3.7156,0.0,0.0,0.0,0.0,0.0,0.0,0.0,0.0,0.0,0.0,0.0,4.5689,4.738,4.907,5.1167,5.1505,5.1776,5.2266,5.1183,4.9864,4.836,4.6906,4.4654,0.0,0.0,0.0,0.0,0.0,0.0,0.0,0.0,0.0,0.0,0.0,0.0,0.0,0.0,0.0,0.0,0.0,0.0,0.0,0.0,0.0,0.0,0.0,0.0,0.0,0.0,0.0,0.0,0.0,0.0,0.0,0.0,2.5567,2.6327,0.0,0.0,0.0,0.0,0.0,0.0,0.0,0.0,0.0,0.0,0.0,0.0,0.0,3.6479,3.7302,3.7952,3.9011,4.0447,4.0484,4.1261,4.2679,4.278,4.3267,4.3924,4.2692,0.0,3.72,3.5678,0.0,0.0,0.0,0.0,0.0,0.0,0.0,0.0,0.0,0.0,0.0,0.0,0.0,0.0,0.0,0.0,0.0,0.0,0.0,0.0,0.0,0.0,4.1826,4.3349,4.4282,4.4891,4.5128,4.1102,3.7403,3.7335,3.6219,3.578,0.0,0.0,0.0,0.0,0.0,0.0,4.7312,4.8917,5.0405,5.1995,5.2773,5.2926,5.2367,5.2131,5.1386,4.9898,4.8428,4.7109,4.5954,4.1995,0.0,0.0,0.0,0.0,0.0,0.0,0.0,0.0,0.0,0.0,0.0,0.0,0.0,0.0,0.0,0.0,0.0,0.0,0.0,0.0,0.0,0.0,0.0,0.0,0.0,0.0,0.0,0.0,0.0,2.6826,2.8087,2.9653,3.0117,3.048,0.0,0.0,0.0,0.0,0.0,0.0,0.0,0.0,0.0,3.8227,3.9322,4.0269,4.0988,4.1745,4.2672,4.3741,4.3741,4.4505,4.5925,4.5925,4.6331,4.7022,4.6264,4.4776,4.2692,3.9918,3.8756,3.8654,0.0,0.0,0.0,0.0,3.7178,3.719,3.719,3.7178,3.7166,3.7166,0.0,0.0,0.0,0.0,0.0,0.0,0.0,4.1927,4.2949,4.4336,4.5635,4.6278,4.7022,4.7631,4.797,4.5655,4.3254,4.2442,4.1407,4.0865,4.1555,4.1927,0.0,0.0,0.0,4.7259,4.9476,5.0676,5.1928,5.3416,5.389,5.3957,5.3619,5.3585,5.2942,5.142,5.0322,4.924,4.8071,4.5345,4.3281,0.0,0.0,0.0,0.0,0.0,0.0,0.0,0.0,0.0,0.0,0.0,0.0,0.0,0.0,0.0,0.0,0.0,0.0,0.0,0.0,0.0,0.0,0.0,0.0,0.0,0.0,0.0,0.0,2.9634,3.0862,3.2892,3.3343,3.3681,0.0,0.0,0.0,0.0,0.0,0.0,3.8971,3.9196,4.0244,4.2286,4.2895,4.3606,4.4539,4.5162,4.5805,4.6534,4.6534,4.721,4.8462,4.8462,4.8868,4.951,4.8766,4.8139,4.7376,4.3809,4.2252,4.2016,4.1454,4.1251,4.1258,4.1461,4.1542,4.1555,4.1758,4.1813,4.18,4.18,4.1813,4.1792,4.1792,0.0,0.0,0.0,0.0,4.565,4.6583,4.7631,4.8597,4.9206,4.9747,5.027,5.0626,5.0119,4.8935,4.6703,4.5684,4.521,4.5413,4.5447,0.0,4.7443,4.8105,4.9273,5.1505,5.2266,5.3179,5.4735,5.4871,5.4871,5.4871,5.4871,5.4397,5.3247,5.2283,5.1302,5.0202,4.8342,4.6481,4.4606,0.0,0.0,0.0,0.0,0.0,0.0,0.0,0.0,0.0,0.0,0.0,0.0,0.0,0.0,0.0,0.0,0.0,0.0,0.0,0.0,0.0,0.0,0.0,0.0,0.0,0.0,0.0,0.0,0.0,3.5239,3.6096,0.0,0.0,0.0,0.0,3.8768,4.0121,4.1271,4.2029,4.2746,4.3862,4.5418,4.55,4.623,4.765,4.7718,4.809,4.8849,4.8849,4.9255,4.9981,4.9981,5.0405,5.1066,5.0304,4.9981,4.971,4.6718,4.506,4.4445,4.4412,4.4364,4.4465,4.5162,4.5418,4.5534,4.621,4.6447,4.6447,4.6447,4.6447,4.6462,4.6462,4.6496,0.0,0.0,4.7684,4.8056,4.9492,4.9932,5.0556,5.2706,5.3247,5.3653,5.5056,5.4769,5.2976,4.8631,4.7192,4.6921,4.7616,0.0,4.8225,4.971,4.9981,5.0811,5.3078,5.3416,5.4025,5.5496,5.5631,5.5631,5.5631,5.5631,5.5597,5.553,5.4194,5.3348,5.3281,5.0439,4.8511,4.7684,4.4742,0.0,0.0,0.0,0.0,0.0,0.0,0.0,0.0,0.0,0.0,0.0,0.0,0.0,0.0,0.0,0.0,0.0,0.0,0.0,0.0,0.0,0.0,0.0,0.0,0.0,0.0,0.0,0.0,3.834,3.9186,0.0,4.0967,4.1529,4.2049,4.257,4.3538,4.4418,4.5176,4.5892,4.6771,4.78,4.8274,4.8781,4.9323,4.9781,5.0389,5.1116,5.1116,5.1522,5.23,5.23,5.2435,5.2655,5.2401,5.1995,5.142,5.0371,4.8951,4.7428,4.7428,4.7428,4.7462,4.7733,4.7834,4.7868,4.8139,4.8206,4.8206,4.8206,4.8206,4.8206,4.8206,4.8545,4.9,4.9255,5.0371,5.1607,5.2164,5.2976,5.3923,5.4718,5.4921,5.5056,5.5597,5.5496,5.482,5.323,5.1945,5.1183,5.1438,5.1505,5.186,5.2858,5.2993,5.345,5.4752,5.4921,5.5293,5.6308,5.6409,5.6409,5.6409,5.6409,5.6206,5.5733,5.5192,5.4921,5.4921,5.2976,5.1522,5.0728,4.8274,4.5906,0.0,0.0,0.0,0.0,0.0,0.0,0.0,0.0,0.0,0.0,0.0,0.0,0.0,0.0,0.0,0.0,0.0,0.0,0.0,0.0,0.0,0.0,0.0,0.0,0.0,3.755,3.9263,4.1014,4.1644,4.2544,4.4032,4.4404,4.4891,4.5635,4.6413,4.7158,4.7883,4.8376,4.907,5.0067,5.0574,5.0947,5.1217,5.1725,5.2367,5.3078,5.3078,5.3484,5.4245,5.4245,5.4245,5.4245,5.4245,5.3957,5.345,5.345,5.2588,5.1167,5.0119,4.9747,4.9781,5.0033,5.0304,5.0608,5.1082,5.1269,5.1269,5.1269,5.1269,5.1269,5.1269,5.1589,5.1995,5.1995,5.3078,5.4279,5.4566,5.5344,5.6206,5.6713,5.6815,5.6883,5.7119,5.7187,5.7187,5.7187,5.5784,5.46,5.46,5.4803,5.5141,5.5632,5.57,5.5987,5.6713,5.6815,5.7085,5.7848,5.7915,5.7915,5.7915,5.7915,5.7712,5.7221,5.6713,5.6461,5.6461,5.504,5.389,5.3078,5.0642,4.8409,4.6433,0.0,0.0,0.0,0.0,0.0,0.0,0.0,0.0,0.0,0.0,0.0,0.0,0.0,0.0,0.0,0.0,0.0,0.0,0.0,0.0,0.0,0.0,0.0,3.9085,3.9737,4.1043,4.3254,4.3524,4.4133,4.5703,4.6481,4.7192,4.7954,4.8698,4.9424,5.015,5.0184,5.0879,5.2334,5.2367,5.2773,5.3551,5.3585,5.3923,5.4651,5.4651,5.5006,5.5699,5.5699,5.5699,5.5699,5.5699,5.5699,5.5699,5.5699,5.5699,5.5395,5.2486,5.1336,5.1438,5.2131,5.2909,5.3788,5.5192,5.5699,5.5699,5.5699,5.5699,5.5699,5.5733,5.5733,5.5733,5.5767,5.58,5.5969,5.6697,5.69,5.7273,5.8675,5.9013,5.9216,5.9945,6.0114,6.0148,6.0148,5.8457,5.7002,5.6934,5.7476,5.7967,5.7967,5.7967,0.0,5.8945,5.9013,5.9317,6.0013,6.0114,6.0114,6.0114,6.0114,6.0114,6.0114,5.8761,5.7967,5.7967,5.6562,5.5446,5.4668,5.1741,4.9507,4.8067,0.0,0.0,0.0,0.0,0.0,0.0,0.0,0.0,0.0,0.0,0.0,0.0,0.0,0.0,0.0,0.0,0.0,0.0,0.0,0.0,0.0,3.9952,4.1204,4.0663,4.2185,4.3992,4.5669,4.6331,4.7244,4.8748,4.9068,4.9492,5.0254,5.098,5.1488,5.1691,5.2266,5.301,5.3923,5.3957,5.4329,5.509,5.509,5.5192,5.5395,5.5395,5.5496,5.5699,5.5699,5.5699,5.5699,5.5699,5.5699,5.5699,5.5699,5.5699,5.5631,5.4786,5.4448,5.4481,5.4684,5.4921,5.5158,5.5564,5.5699,5.5699,5.5699,5.5699,5.58,5.6341,5.6494,5.663,5.7137,5.7679,5.8134,5.8337,5.8795,5.9302,5.9708,5.981,5.9844,6.0047,6.0554,6.096,6.096,6.1347,6.111,5.9471,5.937,5.9505,5.9505,5.9505,5.9573,5.9776,5.981,5.9877,6.008,6.0114,6.0114,6.0114,6.0114,6.0114,6.0114,5.9708,5.9505,5.9505,5.8573,5.7491,5.6224,5.3822,5.2372,0.0,0.0,0.0,0.0,0.0,0.0,0.0,0.0,0.0,0.0,0.0,0.0,0.0,0.0,0.0,0.0,0.0,0.0,0.0,0.0,0.0,0.0,4.2726,4.4147,4.4032,4.4891,4.6191,4.7985,4.8545,4.939,5.0879,5.1014,5.1352,5.2114,5.2841,5.3247,5.3247,5.3991,5.4634,5.504,5.5074,5.5277,5.5699,5.5699,5.6003,5.663,5.663,5.6968,5.7525,5.7525,5.7525,5.7525,5.7525,5.7525,5.7525,5.7525,5.7525,5.7424,0.0,0.0,0.0,0.0,5.6815,5.7119,5.7424,5.7525,5.7525,5.7525,5.7525,5.7627,5.8051,5.8186,5.8254,5.8693,5.9133,5.952,5.9877,6.052,6.1129,6.1467,6.1772,6.1975,6.1975,6.2347,6.2685,6.2685,6.3362,0.0,6.2212,6.1975,6.1975,6.1975,6.1975,6.1975,6.1975,6.1975,6.1975,6.1975,6.1975,6.1975,6.1975,6.1975,0.0,0.0,0.0,6.0757,6.0148,5.9708,0.0,0.0,0.0,5.5485,5.4893,5.431,0.0,0.0,4.8749,4.8357,0.0,0.0,0.0,0.0,0.0,0.0,0.0,0.0,0.0,0.0,0.0,0.0,0.0,0.0,0.0,0.0,4.5635,4.7327,4.8157,4.7767,4.8154,5.0117,5.0353,5.0879,5.23,5.2503,5.2875,5.3585,5.4296,5.4702,5.4702,5.5344,0.0,0.0,0.0,5.6003,5.6071,5.6139,5.6867,5.817,5.817,5.8829,6.0114,6.0114,6.0114,6.0114,6.0114,6.0114,6.0114,6.0114,6.0114,5.9844,5.7221,5.6206,5.6341,5.7679,5.8558,5.9216,5.9877,0.0,0.0,6.0114,6.0114,6.0114,6.0216,6.0283,6.0385,6.0452,6.0554,6.0776,6.1622,6.2242,6.2826,6.3623,6.4187,6.4613,6.4613,6.4681,6.4715,6.4715,6.4884,6.4999,6.4999,6.4762,6.4613,6.4613,6.4613,6.4613,6.4613,6.4613,6.4613,6.4613,6.4613,0.0,6.4613,6.4613,6.4343,6.3646,6.3108,6.2145,6.0655,6.0634,6.0261,5.952,5.9448,5.8812,5.7578,5.8281,5.8703,5.8797,5.4303,5.3038,0.0,0.0,0.0,0.0,0.0,0.0,0.0,0.0,0.0,0.0,0.0,0.0,0.0,0.0,0.0,4.5906,4.7496,4.9052,5.0356,5.0947,5.1386,5.1826,5.186,5.2232,5.3179,5.3822,5.4228,5.4363,5.5074,5.5496,5.5496,5.5631,5.5969,5.6562,5.7171,5.7746,5.8371,5.8964,5.9404,5.9674,5.9674,0.0,6.0114,6.0114,6.0114,6.0114,6.0114,6.0114,6.0114,6.0114,6.0114,6.0047,5.9471,5.9268,5.9302,5.9573,5.9776,5.9911,6.0047,6.0114,6.0114,6.0114,6.0114,6.0216,6.0858,6.1467,0.0,6.2685,6.3294,6.3934,6.4862,6.4645,6.4395,6.5294,6.5069,6.4613,6.4613,6.5053,6.5514,6.5514,6.6579,6.7517,6.7517,6.5878,6.4613,6.4613,6.4613,6.4613,6.4613,6.4613,6.4613,6.4613,6.4613,6.4613,6.4613,6.4613,6.4546,6.441,6.4937,6.4847,6.3774,6.3878,6.3558,6.2651,6.2201,6.2162,6.2459,6.2769,6.3271,6.3812,5.9623,5.8567,0.0,0.0,0.0,0.0,0.0,0.0,0.0,0.0,0.0,0.0,0.0,4.188,4.4147,0.0,4.6718,4.8222,4.9695,5.0913,5.1641,5.2739,5.3315,5.2942,5.3213,5.3619,5.4025,5.4735,5.5141,5.5141,5.5852,5.6409,5.6799,5.7153,5.7694,5.8423,5.8795,5.9167,5.9573,5.9911,6.0317,6.0689,6.0689,6.0892,6.1264,6.1637,6.1806,6.1839,6.2178,6.2347,6.2347,6.2347,6.2347,6.2347,6.2347,6.167,6.0689,6.0689,6.1163,6.1806,6.1806,6.2042,6.2347,6.2347,6.2347,6.2415,6.2821,6.3193,6.3565,6.3937,6.4309,6.4701,6.5157,6.5241,6.5372,6.6317,6.6473,6.6652,6.7542,6.8039,6.844,6.8821,6.9574,7.016,7.016,6.9168,6.8093,6.7291,6.7134,6.6977,6.645,6.6391,6.6205,6.5758,6.5696,6.5696,6.5696,6.5798,6.5843,6.5843,6.5933,6.5993,6.6009,6.5646,6.5438,6.5473,6.5197,6.5035,6.5068,6.5502,6.6031,6.6492,6.5186,6.4404,0.0,0.0,0.0,0.0,0.0,0.0,0.0,3.9783,4.1217,4.2841,4.3639,4.4742,4.7022,4.7936,4.8861,5.0506,5.177,5.2702,5.3128,5.4126,5.4635,5.421,5.4551,5.4803,5.4803,5.548,5.5969,5.6105,5.6815,5.7543,5.8306,5.8896,5.9487,6.008,6.025,6.0317,6.0317,6.0622,6.1095,6.1738,6.1873,6.2245,6.2854,6.3429,6.3714,6.3748,6.4343,6.4613,6.4613,6.4613,6.4613,6.4613,6.4613,6.3497,6.1941,6.1941,6.2685,6.3714,6.3714,6.4106,6.4613,6.4613,6.4613,6.4613,6.4613,6.4681,6.4857,6.5046,6.5311,6.5635,6.5985,6.6528,6.7161,6.8138,6.8666,6.937,7.0803,7.1125,7.1338,7.1976,7.2245,7.2371,7.2371,7.2513,7.2015,7.0165,6.9863,6.9495,6.8498,6.8359,6.8088,6.7337,6.7252,6.7252,6.7252,6.7579,6.7792,6.7792,6.7583,6.7709,6.829,6.7745,6.7727,6.829,6.8496,6.8313,6.7689,6.848,6.8922,6.9138,7.0376,6.9682,3.7403,3.7403,3.7572,3.8294,3.9119,4.0113,0.0,4.2455,4.366,4.5838,4.6346,4.709,4.9338,4.9812,5.0571,5.2751,5.3247,5.4081,5.6094,5.5912,5.5825,5.6422,5.5945,5.5564,5.5564,5.6258,5.6934,5.7577,5.8355,5.9099,5.981,5.9945,6.0013,6.0114,6.0791,6.1163,6.1163,6.2463,6.3139,6.324,6.3937,6.4275,6.4377,6.4444,6.4478,6.4478,6.4546,6.4613,6.4613,6.4613,6.4613,6.4613,6.4613,6.4444,6.4241,6.4241,6.4343,6.4478,6.4478,6.4546,6.4613,6.4613,6.4613,6.4613,6.4613,6.5053,6.5753,6.6587,6.7845,6.9331,7.0996,7.1428,7.1619,7.2555,7.2228,7.1706,7.1922,7.1994,7.1976,7.21,7.2759,7.3341,7.3341,7.4033,7.3671,7.0915,7.0486,7.0122,6.9152,6.9002,6.8938,6.8842,6.8842,6.8842,6.8842,6.968,7.0223,7.0223,7.1748,7.2326,7.1586,7.2257,7.2309,7.1586,7.2377,7.2781,7.2709,7.3629,7.4086,7.4102,7.4271,7.3069,3.9715,4.0447,4.1157,4.1461,4.2151,4.3125,4.4567,4.5162,4.6007,4.8255,4.8729,4.9271,5.1048,5.1749,5.2681,5.4522,5.5212,5.6003,5.7444,5.7743,5.8078,5.8894,5.8642,5.803,5.7056,5.8096,5.8936,5.9137,5.9471,5.9979,6.0757,6.0791,6.1197,6.2057,6.2395,6.2787,6.3226,6.3835,6.414,6.414,6.4444,6.4613,6.4613,6.5019,6.5459,6.5878,6.5878,6.5878,6.5907,6.6456,6.6975,6.7521,6.8042,6.855,6.8609,6.5696,6.5221,6.6063,6.6063,6.6712,6.7553,6.7553,6.7885,6.8271,6.8271,6.8794,6.9516,6.9898,7.0485,7.1199,7.1997,7.214,7.2335,7.3291,7.3207,7.3196,7.4204,7.4428,7.4573,7.5044,7.5431,7.5707,7.5707,7.6047,7.5676,7.3904,7.3314,7.2742,7.1788,7.1657,7.1431,7.0887,7.0863,7.0863,7.0863,7.1732,7.2299,7.2299,7.3035,7.3593,7.3707,7.3593,7.3593,7.3707,7.4097,7.4306,7.4322,7.4717,7.4903,7.4903,7.538,7.5065,4.1664,4.2746,4.3842,4.4234,4.479,4.565,4.7342,4.7714,4.8289,5.027,5.0882,5.1429,5.2708,5.3763,5.489,5.6235,5.707,5.8031,5.928,5.9748,6.0337,6.1345,6.1372,6.0851,5.9665,6.0203,6.0597,6.0427,6.0649,6.1129,6.1873,6.1907,6.2482,6.3748,6.3781,6.4052,6.458,6.4783,6.4884,6.4918,6.5121,6.5222,6.5222,6.6283,6.7305,6.8274,6.8274,6.8274,6.83,6.9003,6.9643,7.0263,7.0959,7.1586,7.1634,6.7992,6.7446,6.8492,6.8492,6.9307,7.0363,7.0363,7.0735,7.1231,7.1231,7.1621,7.2155,7.2407,7.2656,7.287,7.3152,7.3365,7.3717,7.4375,7.4559,7.4881,7.6155,7.6423,7.6592,7.7179,7.7289,7.7289,7.7289,7.7289,7.7051,7.6313,7.5839,7.5124,7.3888,7.3698,7.3456,7.2775,7.2701,7.2701,7.2701,7.3577,7.4124,7.4124,7.4392,7.4868,7.5534,7.4915,7.4883,7.5549,7.5564,7.5564,7.5564,7.5564,7.5564,7.5564,7.6151,7.6423,4.3321,4.3944,4.4905,4.636,4.6733,4.7308,4.9507,5.0015,5.0421,5.1928,5.2841,5.3621,5.4402,5.5764,5.7079,5.7886,5.8709,6.0031,6.2345,6.2033,6.2134,6.3718,6.3899,6.3849,6.3738,6.2331,6.1406,6.1274,6.205,6.2798,6.3402,6.3443,6.3781,6.4546,6.458,6.458,6.4613,6.529,6.5683,6.5683,6.6406,6.6724,6.68,6.8544,7.0298,7.1938,7.1938,7.1938,7.1938,7.1956,7.201,7.201,7.2046,7.21,7.2082,7.1921,7.1921,7.1939,7.1939,7.1993,7.2029,7.2029,7.2046,7.2065,7.2065,7.21,7.2281,7.3207,7.4035,7.4833,7.5744,7.6567,7.7154,7.7169,7.7169,7.7185,7.7237,7.7252,7.7289,7.7289,7.7289,7.7289,7.7289,7.7289,7.7273,7.7243,7.7237,7.6506,7.452,7.4258,7.4258,7.422,7.422,7.422,7.422,7.5138,7.5715,7.5715,7.6656,7.7185,7.7252,7.7185,7.7185,7.7252,7.7252,7.7252,7.7252,7.7252,7.7252,7.7252,7.7252,7.7252,4.5399,4.6583,4.7767,4.8763,4.9748,5.0704,5.1396,5.197,5.2631,5.3613,5.4039,5.4478,5.5197,5.663,5.7972,5.8766,5.999,6.1504,6.3403,6.3444,6.3862,6.5478,6.5097,6.516,6.6248,6.4878,6.3828,6.3645,6.3899,6.4369,6.5103,6.5153,6.5497,6.6234,6.6269,6.6189,6.6068,6.6921,6.7664,6.8254,6.9656,7.0333,7.0352,7.0939,7.154,7.21,7.21,7.21,7.2136,7.2759,7.3341,7.3895,7.452,7.5059,7.5567,7.5567,7.5567,7.5304,7.3617,7.3424,7.3954,7.3954,7.4333,7.4732,7.4732,7.5132,7.5633,7.5942,7.624,7.6523,7.6824,7.7105,7.7289,7.7289,7.7289,7.7289,7.7289,7.7289,7.7289,7.7289,7.7289,7.7289,7.7289,7.7289,7.7289,7.7289,7.7289,7.7051,7.6399,7.628,7.628,7.628,7.628,7.628,7.628,7.6595,7.6793,7.6793,7.7097,7.7289,7.7289,7.7289,7.7289,7.7289,7.7289,7.7289,7.7289,7.7289,7.7289,7.7289,7.7289,7.7289,4.7981,4.9076,5.007,5.1045,5.2043,5.2853,5.3069,5.3507,5.4109,5.4849,5.5238,5.5588,5.6031,5.7434,5.878,5.9556,6.1004,6.2622,6.4273,6.4787,6.5558,6.7173,6.6837,6.6976,6.8371,6.7535,6.6557,6.5793,6.6023,6.6427,6.6893,6.6928,6.7295,6.8008,6.8008,6.8126,6.826,6.8856,6.9583,7.0425,7.1576,7.2423,7.303,7.303,7.3349,7.3948,7.3948,7.3948,7.3983,7.4626,7.5164,7.5701,7.6297,7.6848,7.7289,7.7289,7.7289,7.7065,7.543,7.526,7.5747,7.5747,7.6114,7.6518,7.6518,7.6885,7.7289,7.7289,7.7289,7.7289,7.7289,7.7289,7.7289,7.7289,7.7289,7.7289,7.7289,7.7289,7.7289,7.7289,7.7289,7.7289,7.7289,7.7289,7.7289,7.7289,7.7289,7.7289,7.7289,7.7289,7.7289,7.7289,7.7289,7.7289,7.7289,7.7289,7.7289,7.7289,7.7289,7.7289,7.7289,7.7289,7.7289,7.7289,7.7289,7.7289,7.7289,7.7289,7.7289,7.7289,7.7289,7.7289,5.0862,5.1323,5.1725,5.3226,5.3608,5.3782,5.451,5.468,5.4924,5.5624,5.6367,5.6912,5.6951,5.8203,5.9453,6.026,6.1765,6.338,6.5068,6.6035,6.7136,6.8701,6.8935,6.9302,7.0073,7.0146,6.9464,6.7798,6.8407,6.883,6.873,6.8714,6.9086,6.9814,6.9814,7.0204,7.093,7.1055,7.1499,7.2316,7.2352,7.3243,7.4822,7.4822,7.5738,7.7289,7.7289,7.7289,7.7289,7.7289,7.7289,7.7289,7.7289,7.7289,7.7289,7.7289,7.7289,7.7289,7.7289,7.7289,7.7289,7.7289,7.7289,7.7289,7.7289,7.7289,7.7289,7.7289,7.7289,7.7289,7.7289,7.7289,7.7289,7.7289,7.7289,7.7289,7.7289,7.7289,7.7289,7.7289,7.7289,7.7289,7.7289,7.7289,7.7289,7.7289,7.7289,7.7289,7.7289,7.7289,7.7289,7.7289,7.7289,7.7289,7.7289,7.7289,7.7289,7.7289,7.7289,7.7289,7.7289,7.7289,7.7289,7.7289,7.7289,7.7289,7.7289,7.7289,7.7289,7.7289,7.7289,7.7289,5.2156,5.2462,5.2535,5.4618,5.5155,5.519,5.5387,5.5865,5.6389,5.6563,5.6783,5.7065,5.7631,5.854,5.9453,6.026,6.1765,6.338,6.5068,6.6512,6.776,6.8788,6.9449,7.011,7.0903,7.0977,7.1054,7.1183,7.0227,6.9845,7.0407,7.0479,7.0822,7.1613,7.1649,7.1686,7.1781,7.308,7.4177,7.5086,7.5705,7.6202,7.6627,7.6627,7.6883,7.7289,7.7289,7.7289,7.7289,7.7289,7.7289,7.7289,7.7289,7.7289,7.7289,7.7289,7.7289,7.7289,7.7289,7.7289,7.7289,7.7289,7.7289,7.7289,7.7289,7.7289,7.7289,7.7289,7.7289,7.7289,7.7289,7.7289,7.7289,7.7289,7.7289,7.7289,7.7289,7.7289,7.7289,7.7289,7.7289,7.7289,7.7289,7.7289,7.7289,7.7289,7.7289,7.7289,7.7289,7.7289,7.7289,7.7289,7.7289,7.7289,7.7289,7.7289,7.7289,7.7289,7.7289,7.7289,7.7289,7.7289,7.7289,7.7289,7.7289,7.7289,7.7289,7.7289,7.7289,7.7289,7.7289,7.7289,5.3588,5.3873,5.3783,5.5743,5.6232,5.6232,5.6232,5.6302,5.6483,5.677,5.6576,5.6551,5.7341,5.7838,5.8646,6.0162,6.1447,6.2989,6.4995,6.6696,6.8141,6.9302,7.0146,7.0954,7.1747,7.1821,7.2004,7.2459,7.161,7.139,7.2205,7.2242,7.2605,7.3442,7.3442,7.3583,7.3846,7.5179,7.612,7.6628,7.7069,7.7289,7.7289,7.7289,7.7289,7.7289,7.7289,7.7289,7.7289,7.7289,7.7289,7.7289,7.7289,7.7289,7.7289,7.7289,7.7289,7.7289,7.7289,7.7289,7.7289,7.7289,7.7289,7.7289,7.7289,7.7289,7.7289,7.7289,7.7289,7.7289,7.7289,7.7289,7.7289,7.7289,7.7289,7.7289,7.7289,7.7289,7.7289,7.7289,7.7289,7.7289,7.7289,7.7289,7.7436,7.7803,7.7876,7.7986,7.8369,7.7766,7.7289,7.7289,7.7289,7.7289,7.7289,7.7289,7.7289,7.7289,7.7289,7.7289,7.7289,7.7289,7.7289,7.7289,7.7289,7.7289,7.7289,7.7289,7.7509,7.7876,7.7876,7.806,5.501,5.5231,5.4999,5.6655,5.6964,5.6889,5.6906,5.6353,5.6006,5.6525,5.6088,5.5805,5.6528,5.6737,5.7508,5.9722,6.0933,6.2438,6.4811,6.6696,6.8435,6.9926,7.0903,7.1711,7.2422,7.2606,7.2679,7.2679,7.2753,7.3083,7.3685,7.378,7.4221,7.5014,7.516,7.5527,7.624,7.6959,7.7289,7.7289,7.7289,7.7289,7.7289,7.7289,7.7289,7.7289,7.7289,7.7289,7.7289,7.7289,7.7289,7.7289,7.7289,7.7289,7.7289,7.7289,7.7289,7.7289,7.7289,7.7289,7.7289,7.7289,7.7289,7.7289,7.7289,7.7289,7.7289,7.7289,7.7289,7.7289,7.7289,7.7289,7.7289,7.7289,7.7289,7.7289,7.7289,7.7289,7.7326,7.7436,7.7472,7.7509,7.7619,7.7619,7.7876,7.8662,7.8772,7.8993,7.9706,7.8516,7.7619,7.7619,7.7619,7.7619,7.7619,7.7619,7.7619,7.7619,7.7619,7.7619,7.7619,7.7619,7.7619,7.7619,7.7619,7.7619,7.7619,7.7619,7.8023,7.8772,7.8772,7.914,5.563,5.5625,5.5101,5.7266,5.7351,5.6908,5.6827,5.6724,5.6466,5.593,5.5695,5.5658,5.5768,5.6345,5.7141,5.8253,6.0199,6.223,6.4066,6.6843,6.9045,7.0,7.1394,7.2349,7.2496,7.3083,7.3487,7.3487,7.4111,7.4258,7.3722,7.4331,7.5065,7.5873,7.6555,7.6959,7.7105,7.7252,7.7289,7.7289,7.7289,7.7289,7.7289,7.7289,7.7289,7.7289,7.7289,7.7289,7.7289,7.7289,7.7289,7.7289,7.7289,7.7289,7.7289,7.7289,7.7289,7.7289,7.7289,7.7289,7.7289,7.7289,7.7289,7.7289,7.7289,7.7289,7.7289,7.7289,7.7289,7.7289,7.7289,7.7289,7.7289,7.7289,7.7289,7.7289,7.7289,7.7289,7.7509,7.8222,7.8369,7.8589,7.9265,7.9376,7.9412,7.9559,7.9596,7.9633,7.9779,7.9559,7.9376,7.9376,7.9376,7.9376,7.9376,7.9376,7.9376,7.9376,7.9376,7.9376,7.9376,7.9376,7.9376,7.9376,7.9376,7.9376,7.9376,7.9376,7.9433,7.9596,7.9596,7.9669,5.5821,5.604,5.5638,5.7534,5.7434,5.6842,5.6816,5.582,5.4829,5.4436,5.3665,5.3371,5.4216,5.5023,5.6088,5.774,5.9685,6.1557,6.3209,6.5852,6.8091,6.9339,7.0917,7.2041,7.2459,7.323,7.3722,7.3722,7.4845,7.5359,7.4955,7.5711,7.6335,7.6702,7.7105,7.7289,7.7289,7.7289,7.7289,7.7289,7.7289,7.7289,7.7289,7.7289,7.7289,7.7289,7.7289,7.7289,7.7289,7.7289,7.7289,7.7289,7.7289,7.7289,7.7289,7.7289,7.7289,7.7289,7.7289,7.7289,7.7289,7.7289,7.7289,7.7289,7.7289,7.7289,7.7289,7.7289,7.7289,7.7289,7.7289,7.7289,7.7289,7.7289,7.7656,7.7986,7.7986,7.8332,7.8736,7.9155,7.9213,7.9339,7.9743,7.9816,7.9926,8.0351,8.0424,8.0571,8.0991,8.1064,8.0734,7.989,7.9816,7.9816,7.9816,7.9816,7.9816,7.9816,7.9816,7.9816,7.9816,7.9816,7.9816,7.9816,7.9816,7.9816,7.9816,7.9816,8.0036,8.0424,8.0424,8.0645,5.5891,5.6433,5.6228,5.7423,5.7262,5.6664,5.615,5.4572,5.3067,5.2517,5.1573,5.1132,5.2223,5.3371,5.484,5.6895,5.8731,6.0529,6.2279,6.4677,6.6916,6.8678,7.0316,7.1674,7.2679,7.3487,7.4037,7.4184,7.5542,7.635,7.635,7.6959,7.7289,7.7289,7.7289,7.7289,7.7289,7.7289,7.7289,7.7289,7.7289,7.7289,7.7289,7.7289,7.7289,7.7289,7.7289,7.7289,7.7289,7.7289,7.7289,7.7289,7.7289,7.7289,7.7289,7.7289,7.7289,7.7326,7.7509,7.7582,7.7619,7.7766,7.7582,7.7289,7.7289,7.7289,7.7362,7.7546,7.7582,7.7619,7.7803,7.7839,7.7839,7.7839,7.8369,7.8846,7.8846,7.9339,7.9853,8.0036,8.0073,8.011,8.0293,8.033,8.055,8.1158,8.1269,8.1489,8.2113,8.2186,8.1709,8.044,8.033,8.033,8.033,8.033,8.033,8.033,8.033,8.033,8.033,8.033,8.033,8.033,8.033,8.033,8.033,8.033,8.0645,8.1269,8.1269,8.1599,5.5983,5.6806,5.6808,5.6907,5.6847,5.6223,5.4021,5.3361,5.259,5.0372,5.0398,5.0618,5.0041,5.1793,5.3618,5.4583,5.6675,5.9024,6.1374,6.387,6.6279,6.8628,7.0316,7.1894,7.345,7.4331,7.5087,7.5836,7.6702,7.7179,7.7179,7.7252,7.7289,7.7289,7.7289,7.7289,7.7289,7.7289,7.7289,7.7289,7.7289,7.7289,7.7289,7.7289,7.7289,7.7289,7.7289,7.7289,7.7289,7.7289,7.7289,7.7289,7.7289,7.7289,7.7289,7.7289,7.7289,7.7399,7.8222,7.8479,7.8589,7.9323,7.8552,7.7289,7.7289,7.7289,7.7472,7.8259,7.8479,7.8662,7.9376,7.9559,7.9559,7.9559,7.9633,7.9706,7.9706,7.9743,8.0036,8.0755,8.0901,8.1122,8.1856,8.1966,8.2003,8.2076,8.2076,8.2113,8.2186,8.2186,8.215,8.2019,8.1966,8.1966,8.1966,8.1966,8.1966,8.1966,8.1966,8.1966,8.1966,8.1966,8.1966,8.1966,8.1966,8.1966,8.1966,8.1966,8.2003,8.2076,8.2076,8.2113,5.5834,5.6127,5.5678,5.6589,5.571,5.4388,5.3434,5.1673,4.9985,4.9003,4.8306,4.8049,4.871,5.0435,5.2344,5.4106,5.6418,5.8657,6.0603,6.3025,6.5485,6.7871,6.9596,7.1394,7.3487,7.4441,7.5417,7.6738,7.7105,7.7289,7.7289,7.7289,7.7289,7.7289,7.7289,7.7289,7.7289,7.7289,7.7289,7.7289,7.7289,7.7289,7.7289,7.7289,7.7289,7.7289,7.7289,7.7289,7.7289,7.7289,7.7289,7.7289,7.7289,7.7289,7.7362,7.7876,7.8075,7.8222,7.9029,7.9339,7.9376,7.9706,7.936,7.8809,7.8809,7.8809,7.8883,7.9213,7.9339,7.9412,7.9706,7.9816,7.9816,7.9816,8.0183,8.0534,8.0534,8.0901,8.1358,8.1672,8.1709,8.1819,8.215,8.2186,8.2186,8.2186,8.2186,8.2186,8.2186,8.2186,8.2186,8.2186,8.2186,8.2186,8.2186,8.2186,8.2186,8.2186,8.2186,8.2186,8.2186,8.2186,8.2186,8.2186,8.2186,8.2186,8.2186,8.2186,8.2186,8.2186,8.2186,8.2186,5.4818,5.5138,5.4675,5.5525,5.4462,5.2957,5.1966,4.9948,4.8113,4.7379,4.6507,4.625,4.7379,4.915,5.1242,5.3665,5.5868,5.8033,6.0126,6.2328,6.4727,6.737,6.9132,7.1138,7.378,7.4992,7.6078,7.7215,7.7289,7.7289,7.7289,7.7289,7.7289,7.7289,7.7289,7.7289,7.7289,7.7289,7.7289,7.7289,7.7289,7.7289,7.7289,7.7289,7.7289,7.7289,7.7289,7.7289,7.7289,7.7289,7.7289,7.7326,7.7582,7.7693,7.7803,7.8626,7.8956,7.9066,7.9874,8.0131,8.0183,8.044,8.0514,8.0514,8.0514,8.0183,7.9853,8.011,8.033,8.0514,8.0514,8.0514,8.0514,8.0514,8.0938,8.1342,8.1342,8.1782,8.2186,8.2186,8.2186,8.2186,8.2186,8.2186,8.2186,8.2186,8.2186,8.2186,8.2186,8.2186,8.2186,8.2186,8.2186,8.2186,8.2186,8.2186,8.2186,8.2186,8.2186,8.2186,8.2186,8.2186,8.2186,8.2186,8.2186,8.2186,8.2186,8.2186,8.2186,8.2186,8.2186,8.2186,5.2578,5.3801,5.4205,5.3434,5.3214,5.2333,4.9104,4.8333,4.7636,4.5214,4.5369,4.592,4.592,4.7948,5.0408,5.281,5.4583,5.676,5.9942,6.1802,6.404,6.7297,6.9132,7.1358,7.4573,7.6335,7.7289,7.7289,7.7289,7.7289,7.7289,7.7289,7.7289,7.7289,7.7289,7.7289,7.7289,7.7289,7.7289,7.7289,7.7289,7.7289,7.7289,7.7289,7.7289,7.7289,7.7289,7.7289,7.7289,7.7289,7.7289,7.7399,7.8259,7.8589,7.8662,7.9486,7.9779,7.989,8.0718,8.1012,8.1122,8.1929,8.2186,8.2186,8.2186,8.1064,7.9963,8.0755,8.1562,8.2186,8.2186,8.2186,8.2186,8.2186,8.2186,8.2186,8.2186,8.2186,8.2186,8.2186,8.2186,8.2186,8.2186,8.2186,8.2186,8.2186,8.2186,8.2186,8.2186,8.2186,8.2186,8.2186,8.2186,8.2186,8.2186,8.2186,8.2186,8.2186,8.2186,8.2186,8.2186,8.2186,8.2186,8.2186,8.2186,8.2186,8.2186,8.2186,8.2186,8.2186,8.2186,8.2186,5.1045,5.1756,5.2013,5.2307,5.1096,4.9581,4.8553,4.7012,4.5617,4.4847,4.4488,4.4607,4.57,4.7425,4.9701,5.27,5.4546,5.6723,5.9942,6.1802,6.4016,6.7297,7.1064,7.3766,7.4793,7.6371,7.7289,7.7289,7.7289,7.7289,7.7289,7.7289,7.7289,7.7289,7.7289,7.7289,7.7289,7.7289,7.7289,7.7289,7.7289,7.7289,7.7289,7.7289,7.7289,7.7289,7.7289,7.7289,7.7289,7.7289,7.7656,7.8222,7.8479,7.8919,7.9522,8.0314,8.0608,8.0755,8.1525,8.1819,8.1856,8.2113,8.2186,8.2186,8.2186,8.1819,8.1489,8.1746,8.2003,8.2186,8.2186,8.2186,8.2186,8.2186,8.2186,8.2186,8.2186,8.2186,8.2186,8.2186,8.2186,8.2186,8.2186,8.2186,8.2186,8.2186,8.2186,8.2186,8.2186,8.2186,8.2186,8.2186,8.2186,8.2186,8.2186,8.2186,8.2186,8.2186,8.2186,8.2186,8.2186,8.2186,8.2186,8.2186,8.2186,8.2186,8.2186,8.2186,8.2186,8.2186,8.2186,8.2186,4.8957,4.9397,4.9507,5.0031,4.8994,4.7672,4.7085,4.5764,4.4626,4.4305,4.3864,4.3983,4.559,4.7205,4.9361,5.2664,5.4546,5.6723,5.9942,6.1802,6.4224,6.8128,7.2349,7.4903,7.4903,7.6371,7.7289,7.7289,7.7289,7.7289,7.7289,7.7289,7.7289,7.7289,7.7289,7.7289,7.7289,7.7289,7.7289,7.7289,7.7289,7.7289,7.7289,7.7289,7.7289,7.7289,7.7289,7.7289,0.0,7.7656,7.8112,7.8662,7.9286,7.98,8.0351,8.1158,8.1452,8.1525,8.2039,8.2186,8.2186,8.2186,8.2186,8.2186,8.2186,8.2186,8.2186,8.2186,8.2186,8.2186,8.2186,8.2186,8.2186,8.2186,8.2186,8.2186,8.2186,8.2186,8.2186,8.2186,8.2186,8.2186,8.2186,8.2186,8.2186,8.2186,8.2186,8.2186,8.2186,8.2186,8.2186,8.2186,8.2186,8.2186,8.2186,8.2186,8.2186,8.2186,8.2186,8.2186,8.2186,8.2186,8.2186,8.2186,8.2186,8.2186,8.2186,8.2186,8.2186,8.2186,8.2186,8.2186,0.0,4.6929,4.7003,4.7003,4.6966,4.6526,4.503,4.4663,0.0,4.3726,4.3579,4.4093,4.5773,4.7388,4.9544,5.2774,5.4693,5.687,6.0052,6.2059,6.4995,6.9706,7.301,7.4903,7.4977,7.6408,7.7289,7.7289,7.7289,7.7289,7.7289,7.7289,7.7289,7.7289,7.7289,7.7289,7.7289,7.7289,7.7289,7.7289,7.7289,7.7289,7.7289,7.7289,7.7289,7.7289,7.7362,7.7399,7.7472,7.8332,7.8699,7.8919,8.0424,8.1048,8.1195,8.1929,8.2186,8.2186,8.2186,8.2186,8.2186,8.2186,8.2186,8.2186,8.2186,8.2186,8.2186,8.2186,8.2186,8.2186,8.2186,8.2186,8.2186,8.2186,8.2186,8.2186,8.2186,8.2186,8.2186,8.2186,8.2186,8.2186,8.2186,8.2186,8.2186,8.2186,8.2186,8.2186,8.2186,8.2186,8.2186,8.2186,8.2186,8.2186,8.2186,8.2186,8.2186,8.2186,8.2186,8.2186,8.2186,8.2186,8.2186,8.2186,8.2186,8.2186,8.2186,8.2186,8.2186,8.2186,8.2186,8.2186,4.4093,0.0,4.6177,4.6177,4.5727,4.5177,0.0,4.4232,4.3901,4.4333,4.4415,4.5104,4.7352,4.9077,5.1059,5.3702,5.5978,5.8327,6.0933,6.4861,6.8568,7.1578,7.3692,7.5124,7.5763,7.6702,7.7289,7.7289,7.7289,7.7289,7.7289,7.7289,7.7289,7.7289,7.7289,7.7289,7.7289,7.7289,7.7289,7.7289,7.7289,7.7289,7.7289,7.7289,7.7289,7.7362,7.7986,7.8295,7.8369,7.9176,7.9874,8.0461,8.0865,8.1379,8.1929,8.2113,8.2186,8.2186,8.2186,8.2186,8.2186,8.2186,8.2186,8.2186,8.2186,8.2186,8.2186,8.2186,8.2186,8.2186,8.2186,8.2186,8.2186,8.2186,8.2186,8.2186,8.2186,8.2186,8.2186,8.2186,8.2186,8.2186,8.2186,8.2186,8.2186,8.2186,8.2186,8.2186,8.2186,8.2186,8.2186,8.2186,8.2186,8.2186,8.2186,8.2186,8.2186,8.2186,8.2186,8.2186,8.2186,8.2186,8.2186,8.2186,8.2186,8.2186,8.2186,8.2186,8.2186,8.2186,8.2186,8.2186,4.3286,4.413,4.4791,4.4791,4.4745,4.47,4.47,4.4635,4.4718,4.5149,4.5544,4.6425,4.8526,5.0251,5.227,5.506,5.7226,5.9795,6.3356,6.7063,7.022,7.2275,7.4258,7.5616,7.6056,7.6812,7.7289,7.7289,7.7289,7.7289,7.7289,7.7289,7.7289,7.7289,7.7289,7.7289,7.7289,7.7289,7.7289,7.7289,7.7289,7.7289,7.7289,7.7289,7.7509,7.7913,7.8405,7.8809,7.9213,8.0021,8.0608,8.1048,8.1415,8.1819,8.2186,8.2186,8.2186,8.2186,8.2186,8.2186,8.2186,8.2186,8.2186,8.2186,8.2186,8.2186,8.2186,8.2186,8.2186,8.2186,8.2186,8.2186,8.2186,8.2186,8.2186,8.2186,8.2186,8.2186,8.2186,8.2186,8.2186,8.2186,8.2186,8.2186,8.2186,8.2186,8.2186,8.2186,8.2186,8.2186,8.2186,8.2186,8.2186,8.2186,8.2186,8.2186,8.2186,8.2186,8.2186,8.2186,8.2186,8.2186,8.2186,8.2186,8.2186,8.2186,8.2186,8.2186,8.2186,8.2186,8.2186,8.2186,4.3249,4.3506,4.3543,4.3653,4.4195,4.4737,4.4847,4.5507,4.6104,4.625,4.7012,4.8186,4.9858,5.1473,5.3529,5.6492,5.8756,6.1728,6.6219,6.8935,7.1064,7.2679,7.4771,7.6166,7.6276,7.6885,7.7289,7.7289,7.7289,7.7289,7.7289,7.7289,7.7289,7.7289,7.7289,7.7289,7.7289,7.7289,7.7289,7.7289,7.7289,7.7289,7.7289,7.7436,7.7913,7.8626,7.8846,7.936,8.0036,8.0865,8.1195,8.1269,8.1929,8.2186,8.2186,8.2186,8.2186,8.2186,8.2186,8.2186,8.2186,8.2186,8.2186,8.2186,8.2186,8.2186,8.2186,8.2186,8.2186,8.2186,8.2186,8.2186,8.2186,8.2186,8.2186,8.2186,8.2186,8.2186,8.2186,8.2186,8.2186,8.2186,8.2186,8.2186,8.2186,8.2186,8.2186,8.2186,8.2186,8.2186,8.2186,8.2186,8.2186,8.2186,8.2186,8.2186,8.2186,8.2186,8.2186,8.2186,8.2186,8.2186,8.2186,8.2186,8.2186,8.2186,8.2186,8.2186,8.2186,8.2186,8.2186,8.2186,4.3102,4.3506,4.3653,4.4342,4.4626,4.4883,4.5553,4.6351,4.7122,4.7783,4.914,5.0719,5.2333,5.3959,5.5658,5.7519,6.152,6.5325,6.8164,7.0624,7.2753,7.4353,7.5469,7.6387,7.7069,7.7252,7.7289,7.7289,7.7289,7.7289,7.7289,7.7289,7.7289,7.7289,7.7289,7.7289,7.7289,7.7289,7.7289,7.7289,7.7289,7.7289,7.7326,7.806,7.8479,7.8662,8.0057,8.0718,8.0865,8.1672,8.2003,8.2039,8.215,8.2186,8.2186,8.2186,8.2186,8.2186,8.2186,8.2186,8.2186,8.2186,8.2186,8.2186,8.2186,8.2186,8.2186,8.2186,8.2186,8.2186,8.2186,8.2186,8.2186,8.2186,8.2186,8.2186,8.2186,8.2186,8.2186,8.2186,8.2186,8.2186,8.2186,8.2186,8.2186,8.2186,8.2186,8.2186,8.2186,8.2186,8.2186,8.2186,8.2186,8.2186,8.2186,8.2186,8.2186,8.2186,8.2186,8.2186,8.2186,8.2186,8.2186,8.2186,8.2186,8.2186,8.2186,8.2186,8.2186,8.2186,8.2186,8.2186,4.3065,4.3836,4.4452,4.5691,4.6012,4.6205,4.7012,4.8526,4.9848,5.0215,5.161,5.3115,5.4289,5.5794,5.7997,6.1374,6.4567,6.7577,7.044,7.2165,7.3744,7.5359,7.6261,7.6885,7.7252,7.7289,7.7289,7.7289,7.7289,7.7289,7.7289,7.7289,7.7289,7.7289,7.7289,7.7289,7.7289,7.7289,7.7289,7.7289,7.7289,7.7546,7.8038,7.8405,7.9066,7.9947,8.0681,8.1269,8.1672,8.2039,8.2186,8.2186,8.2186,8.2186,8.2186,8.2186,8.2186,8.2186,8.2186,8.2186,8.2186,8.2186,8.2186,8.2186,8.2186,8.2186,8.2186,8.2186,8.2186,8.2186,8.2186,8.2186,8.2186,8.2186,8.2186,8.2186,8.2186,8.2186,8.2186,8.2186,8.2186,8.2186,8.2186,8.2186,8.2186,8.2186,8.2186,8.2186,8.2186,8.2186,8.2186,8.2186,8.2186,8.2186,8.2186,8.2186,8.2186,8.2186,8.2186,8.2186,8.2186,8.2186,8.2186,8.2186,8.2186,8.2186,8.2186,8.2186,8.2186,8.2186,8.2186,8.2186,4.3351,4.4378,4.5434,4.7232,4.7672,4.7966,4.892,5.0912,5.2574,5.2574,5.3995,5.5427,5.6062,5.7971,6.0786,6.4921,6.71,6.9242,7.2092,7.334,7.4515,7.5946,7.6812,7.7289,7.7289,7.7289,7.7289,7.7289,7.7289,7.7289,7.7289,7.7289,7.7289,7.7289,7.7289,7.7289,7.7289,7.7289,7.7289,7.7289,7.7509,7.7949,7.8589,7.8993,7.9837,8.1012,8.1195,8.1636,8.2186,8.2186,8.2186,8.2186,8.2186,8.2186,8.2186,8.2186,8.2186,8.2186,8.2186,8.2186,8.2186,8.2186,8.2186,8.2186,8.2186,8.2186,8.2186,8.2186,8.2186,8.2186,8.2186,8.2186,8.2186,8.2186,8.2186,8.2186,8.2186,8.2186,8.2186,8.2186,8.2186,8.2186,8.2186,8.2186,8.2186,8.2186,8.2186,8.2186,8.2186,8.2186,8.2186,8.2186,8.2186,8.2186,8.2186,8.2186,8.2186,8.2186,8.2186,8.2186,8.2186,8.2186,8.2186,8.2186,8.2186,8.2186,8.2186,8.2186,8.2186,8.2186,8.2186,8.2186,4.4186,4.5186,4.6397,4.883,4.9427,4.9831,5.1363,5.3041,5.4216,5.4216,5.6088,5.774,5.7813,6.1019,6.4286,6.6109,6.8385,7.0513,7.2275,7.3839,7.5124,7.6019,7.6812,7.7289,7.7289,7.7289,7.7289,7.7289,7.7289,7.7289,7.7289,7.7289,7.7289,7.7289,7.7289,7.7289,7.7289,7.7289,7.7289,7.7326,7.8112,7.8552,7.8662,8.0167,8.0901,8.1048,8.1782,8.215,8.2186,8.2186,8.2186,8.2186,8.2186,8.2186,8.2186,8.2186,8.2186,8.2186,8.2186,8.2186,8.2186,8.2186,8.2186,8.2186,8.2186,8.2186,8.2186,8.2186,8.2186,8.2186,8.2186,8.2186,8.2186,8.2186,8.2186,8.2186,8.2186,8.2186,8.2186,8.2186,8.2186,8.2186,8.2186,8.2186,8.2186,8.2186,8.2186,8.2186,8.2186,8.2186,8.2186,8.2186,8.2186,8.2186,8.2186,8.2186,8.2186,8.2186,8.2186,8.2186,8.2186,8.2186,8.2186,8.2186,8.2186,8.2186,8.2186,8.2186,8.2186,8.2186,8.2186,8.2186,4.5002,4.6801,4.8683,5.0592,5.2611,5.3959,5.3592,5.5133,5.6638,5.6638,5.8547,6.0713,6.2254,6.42,6.6292,6.8385,7.033,7.2165,7.378,7.4955,7.5946,7.6738,7.7105,7.7289,7.7289,7.7289,7.7289,7.7289,7.7289,7.7289,7.7289,7.7289,7.7289,7.7289,7.7289,7.7289,7.7289,7.7839,7.8112,7.8112,7.8442,7.9103,8.0131,8.0718,8.1269,8.1746,8.2076,8.2186,8.2186,8.2186,8.2186,8.2186,8.2186,8.2186,8.2186,8.2186,8.2186,8.2186,8.2186,8.2186,8.2186,8.2186,8.2186,8.2186,8.2186,8.2186,8.2186,8.2186,8.2186,8.2186,8.2186,8.2186,8.2186,8.2186,8.2186,8.2186,8.2186,8.2186,8.2186,8.2186,8.2186,8.2186,8.2186,8.2186,8.2186,8.2186,8.2186,8.2186,8.2186,8.2186,8.2186,8.2186,8.2186,8.2186,8.2186,8.2186,8.2186,8.2186,8.2186,8.2186,8.2186,8.2186,8.2186,8.2186,8.2186,8.2186,8.2186,8.2186,8.2186,8.2186,8.2186,8.2186,4.5847,4.8086,5.0445,5.2281,5.4987,5.7042,5.6418,5.7776,5.9134,5.9134,6.108,6.3503,6.5985,6.71,6.8348,7.0513,7.1982,7.345,7.505,7.5763,7.6387,7.7215,7.7289,7.7289,7.7289,7.7289,7.7289,7.7289,7.7289,7.7289,7.7289,7.7289,7.7289,7.7289,7.7289,7.7289,7.7289,7.8185,7.8736,7.8993,7.925,7.9947,8.1012,8.1269,8.1672,8.2186,8.2186,8.2186,8.2186,8.2186,8.2186,8.2186,8.2186,8.2186,8.2186,8.2186,8.2186,8.2186,8.2186,8.2186,8.2186,8.2186,8.2186,8.2186,8.2186,8.2186,8.2186,8.2186,8.2186,8.2186,8.2186,8.2186,8.2186,8.2186,8.2186,8.2186,8.2186,8.2186,8.2186,8.2186,8.2186,8.2186,8.2186,8.2186,8.2186,8.2186,8.2186,8.2186,8.2186,8.2186,8.2186,8.2186,8.2186,8.2186,8.2186,8.2186,8.2186,8.2186,8.2186,8.2186,8.2186,8.2186,8.2186,8.2186,8.2186,8.2186,8.2186,8.2186,8.2186,8.2186,8.2186,8.2186,4.6672,4.892,5.1389,5.3812,5.6235,5.8437,6.0052,6.1043,6.163,6.163,6.3613,6.6059,6.8481,6.9559,7.0624,7.2239,7.3193,7.4258,7.5873,7.6093,7.6423,7.7215,7.7289,7.7289,7.7289,7.7289,7.7289,7.7289,7.7289,7.7289,7.7289,7.7289,7.7289,7.7289,7.7289,7.7289,7.7326,7.8185,7.9029,7.9816,8.0645,8.1012,8.1048,8.1819,8.2186,8.2186,8.2186,8.2186,8.2186,8.2186,8.2186,8.2186,8.2186,8.2186,8.2186,8.2186,8.2186,8.2186,8.2186,8.2186,8.2186,8.2186,8.2186,8.2186,8.2186,8.2186,8.2186,8.2186,8.2186,8.2186,8.2186,8.2186,8.2186,8.2186,8.2186,8.2186,8.2186,8.2186,8.2186,8.2186,8.2186,8.2186,8.2186,8.2186,8.2186,8.2186,8.2186,8.2186,8.2186,8.2186,8.2186,8.2186,8.2186,8.2186,8.2186,8.2186,8.2186,8.2186,8.2186,8.2186,8.2186,8.2186,8.2186,8.2186,8.2186,8.2186,8.2186,8.2186,8.2186,8.2186,8.2186,8.2186,4.7526,5.0168,5.3067,5.5489,5.7923,6.0126,6.1728,6.2279,6.3099,6.5424,6.6489,6.7724,7.0132,7.0793,7.1468,7.3083,7.4037,7.4918,7.5946,7.6607,7.7032,7.7289,7.7289,7.7289,7.7289,7.7289,7.7289,7.7289,7.7289,7.7289,7.7289,7.7289,7.7289,7.7289,7.7289,7.7582,7.8222,7.9029,7.9837,8.0645,8.1452,8.1819,8.1856,8.2076,8.2186,8.2186,8.2186,8.2186,8.2186,8.2186,8.2186,8.2186,8.2186,8.2186,8.2186,8.2186,8.2186,8.2186,8.2186,8.2186,8.2186,8.2186,8.2186,8.2186,8.2186,8.2186,8.2186,8.2186,8.2186,8.2186,8.2186,8.2186,8.2186,8.2186,8.2186,8.2186,8.2186,8.2186,8.2186,8.2186,8.2186,8.2186,8.2186,8.2186,8.2186,8.2186,8.2186,8.2186,8.2186,8.2186,8.2186,8.2186,8.2186,8.2186,8.2186,8.2186,8.2186,8.2186,8.2186,8.2186,8.2186,8.2186,8.2186,8.2186,8.2186,8.2186,8.2186,8.2186,8.2186,8.2186,8.2186,8.2186,4.8306,5.0949,5.3875,5.6602,5.9098,6.1557,6.4163,6.4751,6.5485,6.8091,6.8898,6.9669,7.1454,7.2041,7.2679,7.3964,7.4845,7.5652,7.6445,7.6995,7.7289,7.7289,7.7289,7.7289,7.7289,7.7289,7.7289,7.7289,7.7289,7.7289,7.7289,7.7289,7.7289,7.7289,7.7656,7.806,7.8589,7.969,8.0534,8.1012,8.1819,8.2186,8.2186,8.2186,8.2186,8.2186,8.2186,8.2186,8.2186,8.2186,8.2186,8.2186,8.2186,8.2186,8.2186,8.2186,8.2186,8.2186,8.2186,8.2186,8.2186,8.2186,8.2186,8.2186,8.2186,8.2186,8.2186,8.2186,8.2186,8.2186,8.2186,8.2186,8.2186,8.2186,8.2186,8.2186,8.2186,8.2186,8.2186,8.2186,8.2186,8.2186,8.2186,8.2186,8.2186,8.2186,8.2186,8.2186,8.2186,8.2186,8.2186,8.2186,8.2186,8.2186,8.2186,8.2186,8.2186,8.2186,8.2186,8.2186,8.2186,8.2186,8.2186,8.2186,8.2186,8.2186,8.2186,8.2186,8.2186,8.2186,8.2186,8.2186,4.8949,5.1353,5.3985,5.7299,6.0089,6.3038,6.6856,6.7884,6.8435,6.9889,7.0793,7.1564,7.2459,7.3193,7.4001,7.4867,7.5616,7.6387,7.7179,7.7289,7.7289,7.7289,7.7289,7.7289,7.7289,7.7289,7.7289,7.7289,7.7289,7.7289,7.7289,7.7289,7.7289,7.7289,7.8148,7.8626,7.8699,8.0241,8.1048,8.1122,8.1856,8.2186,8.2186,8.2186,8.2186,8.2186,8.2186,8.2186,8.2186,8.2186,8.2186,8.2186,8.2186,8.2186,8.2186,8.2186,8.2186,8.2186,8.2186,8.2186,8.2186,8.2186,8.2186,8.2186,8.2186,8.2186,8.2186,8.2186,8.2186,8.2186,8.2186,8.2186,8.2186,8.2186,8.2186,8.2186,8.2186,8.2186,8.2186,8.2186,8.2186,8.2186,8.2186,8.2186,8.2186,8.2186,8.2186,8.2186,8.2186,8.2186,8.2186,8.2186,8.2186,8.2186,8.2186,8.2186,8.2186,8.2186,8.2186,8.2186,8.2186,8.2186,8.2186,8.2186,8.2186,8.2186,8.2186,8.2186,8.2186,8.2186,8.2186,8.2186,4.8949,5.1353,5.4132,5.7985,6.2218,6.5852,6.737,6.9155,7.061,7.0977,7.1197,7.1747,7.3193,7.356,7.4147,7.5616,7.5983,7.6387,7.7179,7.7289,7.7289,7.7289,7.7289,7.7289,7.7289,7.7289,7.7289,7.7289,7.7289,7.7289,7.7289,7.7289,7.7289,7.7289,7.8148,7.8883,7.9559,8.0498,8.1342,8.1929,8.2113,8.2186,8.2186,8.2186,8.2186,8.2186,8.2186,8.2186,8.2186,8.2186,8.2186,8.2186,8.2186,8.2186,8.2186,8.2186,8.2186,8.2186,8.2186,8.2186,8.2186,8.2186,8.2186,8.2186,8.2186,8.2186,8.2186,8.2186,8.2186,8.2186,8.2186,8.2186,8.2186,8.2186,8.2186,8.2186,8.2186,8.2186,8.2186,8.2186,8.2186,8.2186,8.2186,8.2186,8.2186,8.2186,8.2186,8.2186,8.2186,8.2186,8.2186,8.2186,8.2186,8.2186,8.2186,8.2186,8.2186,8.2186,8.2186,8.2186,8.2186,8.2186,8.2186,8.2186,8.2186,8.2186,8.2186,8.2186,8.2186,8.2186,8.2186,8.2186,4.883,5.1353,5.4425,5.9636,6.371,6.6916,6.8508,7.011,7.1417,7.1784,7.2202,7.2716,7.356,7.4331,7.5102,7.5946,7.6423,7.6812,7.7252,7.7289,7.7289,7.7289,7.7289,7.7289,7.7289,7.7289,7.7289,7.7289,7.7289,7.7289,7.7289,7.7289,7.7509,7.7913,7.8736,7.9543,8.0351,8.1158,8.1782,8.2186,8.2186,8.2186,8.2186,8.2186,8.2186,8.2186,8.2186,8.2186,8.2186,8.2186,8.2186,8.2186,8.2186,8.2186,8.2186,8.2186,8.2186,8.2186,8.2186,8.2186,8.2186,8.2186,8.2186,8.2186,8.2186,8.2186,8.2186,8.2186,8.2186,8.2186,8.2186,8.2186,8.2186,8.2186,8.2186,8.2186,8.2186,8.2186,8.2186,8.2186,8.2186,8.2186,8.2186,8.2186,8.2186,8.2186,8.2186,8.2186,8.2186,8.2186,8.2186,8.2186,8.2186,8.2186,8.2186,8.2186,8.2186,8.2186,8.2186,8.2186,8.2186,8.2186,8.2186,8.2186,8.2186,8.2186,8.2186,8.2186,8.2186,8.2186,8.2186,8.2186,4.8499,5.1536,5.5233,6.1104,6.4457,6.6916,6.9339,7.061,7.1564,7.2496,7.323,7.3744,7.3891,7.5102,7.6166,7.6276,7.6885,7.7289,7.7289,7.7289,7.7289,7.7289,7.7289,7.7289,7.7289,7.7289,7.7289,7.7289,7.7289,7.7289,7.7289,7.7289,7.7693,7.8552,7.9376,8.0183,8.1012,8.1782,8.2186,8.2186,8.2186,8.2186,8.2186,8.2186,8.2186,8.2186,8.2186,8.2186,8.2186,8.2186,8.2186,8.2186,8.2186,8.2186,8.2186,8.2186,8.2186,8.2186,8.2186,8.2186,8.2186,8.2186,8.2186,8.2186,8.2186,8.2186,8.2186,8.2186,8.2186,8.2186,8.2186,8.2186,8.2186,8.2186,8.2186,8.2186,8.2186,8.2186,8.2186,8.2186,8.2186,8.2186,8.2186,8.2186,8.2186,8.2186,8.2186,8.2186,8.2186,8.2186,8.2186,8.2186,8.2186,8.2186,8.2186,8.2186,8.2186,8.2186,8.2186,8.2186,8.2186,8.2186,8.2186,8.2186,8.2186,8.2186,8.2186,8.2186,8.2186,8.2186,8.2186,8.2186,4.7609,5.2297,5.7178,6.086,6.3649,6.6096,6.8531,7.0206,7.1711,7.323,7.3634,7.3891,7.461,7.5506,7.635,7.7032,7.7252,7.7289,7.7289,7.7289,7.7289,7.7289,7.7289,7.7289,7.7289,7.7289,7.7289,7.7289,7.7289,7.7289,7.7289,7.7289,7.7693,7.8552,7.9376,8.0183,8.1012,8.1782,8.2186,8.2186,8.2186,8.2186,8.2186,8.2186,8.2186,8.2186,8.2186,8.2186,8.2186,8.2186,8.2186,8.2186,8.2186,8.2186,8.2186,8.2186,8.2186,8.2186,8.2186,8.2186,8.2186,8.2186,8.2186,8.2186,8.2186,8.2186,8.2186,8.2186,8.2186,8.2186,8.2186,8.2186,8.2186,8.2186,8.2186,8.2186,8.2186,8.2186,8.2186,8.2186,8.2186,8.2186,8.2186,8.2186,8.2186,8.2186,8.2186,8.2186,8.2186,8.2186,8.2186,8.2186,8.2186,8.2186,8.2186,8.2186,8.2186,8.2186,8.2186,8.2186,8.2186,8.2186,8.2186,8.2186,8.2186,8.2186,8.2186,8.2186,8.2186,8.2186,8.2186,8.2186,4.8453,5.2527,5.6235,5.9453,6.2793,6.5692,6.721,6.9509,7.149,7.2202,7.345,7.4625,7.5432,7.6225,7.6885,7.7252,7.7289,7.7289,7.7289,7.7289,7.7289,7.7289,7.7289,7.7289,7.7289,7.7289,7.7289,7.7289,7.7289,7.7289,7.7289,7.7766,7.8405,7.9265,8.0057,8.0865,8.1672,8.2003,8.2186,8.2186,8.2186,8.2186,8.2186,8.2186,8.2186,8.2186,8.2186,8.2186,8.2186,8.2186,8.2186,8.2186,8.2186,8.2186,8.2186,8.2186,8.2186,8.2186,8.2186,8.2186,8.2186,8.2186,8.2186,8.2186,8.2186,8.2186,8.2186,8.2186,8.2186,8.2186,8.2186,8.2186,8.2186,8.2186,8.2186,8.2186,8.2186,8.2186,8.2186,8.2186,8.2186,8.2186,8.2186,8.2186,8.2186,8.2186,8.2186,8.2186,8.2186,8.2186,8.2186,8.2186,8.2186,8.2186,8.2186,8.2186,8.2186,8.2186,8.2186,8.2186,8.2186,8.2186,8.2186,8.2186,8.2186,8.2186,8.2186,8.2186,8.2186,8.2186,8.2186,8.2186,4.8526,5.1636,5.4326,5.7728,6.1178,6.4114,6.5558,6.8054,7.0316,7.1123,7.2885,7.4647,7.5873,7.6738,7.7289,7.7289,7.7289,7.7289,7.7289,7.7289,7.7289,7.7289,7.7289,7.7289,7.7289,7.7289,7.7289,7.7289,7.7289,7.7289,7.7289,7.8148,7.8956,7.9779,8.0571,8.1379,8.2186,8.2186,8.2186,8.2186,8.2186,8.2186,8.2186,8.2186,8.2186,8.2186,8.2186,8.2186,8.2186,8.2186,8.2186,8.2186,8.2186,8.2186,8.2186,8.2186,8.2186,8.2186,8.2186,8.2186,8.2186,8.2186,8.2186,8.2186,8.2186,8.2186,8.2186,8.2186,8.2186,8.2186,8.2186,8.2186,8.2186,8.2186,8.2186,8.2186,8.2186,8.2186,8.2186,8.2186,8.2186,8.2186,8.2186,8.2186,8.2186,8.2186,8.2186,8.2186,8.2186,8.2186,8.2186,8.2186,8.2186,8.2186,8.2186,8.2186,8.2186,8.2186,8.2186,8.2186,8.2186,8.2186,8.2186,8.2186,8.2186,8.2186,8.2186,8.2186,8.2186,8.2186,8.2186,8.2186,4.6608,4.9104,5.194,5.593,5.8242,6.0334,6.3503,6.5521,6.7614,7.0683,7.2004,7.334,7.5689,7.6738,7.7289,7.7289,7.7289,7.7289,7.7289,7.7289,7.7289,7.7289,7.7289,7.7289,7.7289,7.7289,7.7289,7.7289,7.7289,7.7289,7.7289,7.8148,7.8956,7.9779,8.0571,8.1379,8.2186,8.2186,8.2186,8.2186,8.2186,8.2186,8.2186,8.2186,8.2186,8.2186,8.2186,8.2186,8.2186,8.2186,8.2186,8.2186,8.2186,8.2186,8.2186,8.2186,8.2186,8.2186,8.2186,8.2186,8.2186,8.2186,8.2186,8.2186,8.2186,8.2186,8.2186,8.2186,8.2186,8.2186,8.2186,8.2186,8.2186,8.2186,8.2186,8.2186,8.2186,8.2186,8.2186,8.2186,8.2186,8.2186,8.2186,8.2186,8.2186,8.2186,8.2186,8.2186,8.2186,8.2186,8.2186,8.2186,8.2186,8.2186,8.2186,8.2186,8.2186,8.2186,8.2186,8.2186,8.2186,8.2186,8.2186,8.2186,8.2186,8.2186,8.2186,8.2186,8.2186,8.2186,8.2186,8.2186,4.492,4.7342,4.9921,5.2968,5.6088,5.9024,6.1227,6.42,6.7136,6.9288,7.1211,7.3083,7.4992,7.5983,7.6702,7.7215,7.7289,7.7289,7.7289,7.7289,7.7289,7.7289,7.7289,7.7289,7.7289,7.7289,7.7289,7.7289,7.7289,7.7289,7.7289,7.8626,7.9522,7.9779,8.1085,8.1893,8.2186,8.2186,8.2186,8.2186,8.2186,8.2186,8.2186,8.2186,8.2186,8.2186,8.2186,8.2186,8.2186,8.2186,8.2186,8.2186,8.2186,8.2186,8.2186,8.2186,8.2186,8.2186,8.2186,8.2186,8.2186,8.2186,8.2186,8.2186,8.2186,8.2186,8.2186,8.2186,8.2186,8.2186,8.2186,8.2186,8.2186,8.2186,8.2186,8.2186,8.2186,8.2186,8.2186,8.2186,8.2186,8.2186,8.2186,8.2186,8.2186,8.2186,8.2186,8.2186,8.2186,8.2186,8.2186,8.2186,8.2186,8.2186,8.2186,8.2186,8.2186,8.2186,8.2186,8.2186,8.2186,8.2186,8.2186,8.2186,8.2186,8.2186,8.2186,8.2186,8.2186,8.2186,8.2186,8.2186,4.3379,4.5663,4.8159,5.0912,5.3995,5.6969,5.9098,6.2328,6.5375,6.7307,6.9412,7.1541,7.3692,7.4551,7.5432,7.7032,7.7289,7.7289,7.7289,7.7289,7.7289,7.7289,7.7289,7.7289,7.7289,7.7289,7.7289,7.7289,7.7289,7.7289,7.7289,7.8883,8.0036,8.0587,8.1636,8.2186,8.2186,8.2186,8.2186,8.2186,8.2186,8.2186,8.2186,8.2186,8.2186,8.2186,8.2186,8.2186,8.2186,8.2186,8.2186,8.2186,8.2186,8.2186,8.2186,8.2186,8.2186,8.2186,8.2186,8.2186,8.2186,8.2186,8.2186,8.2186,8.2186,8.2186,8.2186,8.2186,8.2186,8.2186,8.2186,8.2186,8.2186,8.2186,8.2186,8.2186,8.2186,8.2186,8.2186,8.2186,8.2186,8.2186,8.2186,8.2186,8.2186,8.2186,8.2186,8.2186,8.2186,8.2186,8.2186,8.2186,8.2186,8.2186,8.2186,8.2186,8.2186,8.2186,8.2186,8.2186,8.2186,8.2186,8.2186,8.2186,8.2186,8.2186,8.2186,8.2186,8.2186,8.2186,8.2186,8.2186,0.0,0.0,0.0,4.9884,5.193,5.3985,5.7189,5.9795,6.2218,6.4701,6.6512,6.8618,7.1798,7.2422,7.3472,7.6665,7.7252,7.7289,7.7289,7.7289,7.7289,7.7289,7.7289,7.7289,7.7289,7.7289,7.7289,7.7289,7.7289,7.7289,7.7289,7.8883,8.055,8.215,8.2186,8.2186,8.2186,8.2186,8.2186,8.2186,8.2186,8.2186,8.2186,8.2186,8.2186,8.2186,8.2186,8.2186,8.2186,8.2186,8.2186,8.2186,8.2186,8.2186,8.2186,8.2186,8.2186,8.2186,8.2186,8.2186,8.2186,8.2186,8.2186,8.2186,8.2186,8.2186,8.2186,8.2186,8.2186,8.2186,8.2186,8.2186,8.2186,8.2186,8.2186,8.2186,8.2186,8.2186,8.2186,8.2186,8.2186,8.2186,8.2186,8.2186,8.2186,8.2186,8.2186,8.2186,8.2186,8.2186,8.2186,8.2186,8.2186,8.2186,8.2186,8.2186,8.2186,8.2186,8.2186,8.2186,8.2186,8.2186,8.2186,8.2186,8.2186,8.2186,8.2186,8.2186,8.2186,8.2186,8.2186,8.2186,4.2249,0.0,0.0,0.0,0.0,0.0,5.5548,5.8143,6.0554,6.2976,6.4811,6.6769,6.9412,7.0367,7.1615,7.4258,7.5689,7.6628,7.7215,7.7289,7.7289,7.7289,7.7289,7.7289,7.7289,7.7289,7.7289,7.7289,7.7289,7.7289,7.7289,7.8883,8.055,8.215,8.2186,8.2186,8.2186,8.2186,8.2186,8.2186,8.2186,8.2186,8.2186,8.2186,8.2186,8.2186,8.2186,8.2186,8.2186,8.2186,8.2186,8.2186,8.2186,8.2186,8.2186,8.2186,8.2186,8.2186,8.2186,8.2186,8.2186,8.2186,8.2186,8.2186,8.2186,8.2186,8.2186,8.2186,8.2186,8.2186,8.2186,8.2186,8.2186,8.2186,8.2186,8.2186,8.2186,8.2186,8.2186,8.2186,8.2186,8.2186,8.2186,8.2186,8.2186,8.2186,8.2186,8.2186,8.2186,8.2186,8.2186,8.2186,8.2186,8.2186,8.2186,8.2186,8.2186,8.2186,8.2186,8.2186,8.2186,8.2186,8.2186,8.2186,8.2186,8.2186,8.2186,8.2186,8.2186,8.2186,8.2186,8.2186,4.2286,4.324,4.4599,4.6205,0.0,0.0,5.3419,5.5978,5.8389,6.0811,6.2352,6.4004,6.6439,6.7577,6.8788,7.0858,7.2532,7.4368,7.6481,7.6812,7.6922,7.7252,7.7289,7.7289,7.7289,7.7289,7.7289,7.7289,7.7289,7.7472,7.7803,7.9103,8.0404,8.1672,8.2003,8.2186,8.2186,8.2186,8.2186,8.2186,8.2186,8.2186,8.2186,8.2186,8.2186,8.2186,8.2186,8.2186,8.2186,8.2186,8.2186,8.2186,8.2186,8.2186,8.2186,8.2186,8.2186,8.2186,8.2186,8.2186,8.2186,8.2186,8.2186,8.2186,8.2186,8.2186,8.2186,8.2186,8.2186,8.2186,8.2186,8.2186,8.2186,8.2186,8.2186,8.2186,8.2186,8.2186,8.2186,8.2186,8.2186,8.2186,8.2186,8.2186,8.2186,8.2186,8.2186,8.2186,8.2186,8.2186,8.2186,8.2186,8.2186,8.2186,8.2186,8.2186,8.2186,8.2186,8.2186,8.2186,8.2186,8.2186,8.2186,8.2186,8.2186,8.2186,8.2186,8.2186,8.2186,8.2186,8.2186,8.2186,4.247,4.2955,4.3873,4.5369,4.6911,0.0,5.1179,5.3455,5.5757,5.8168,5.9306,6.0639,6.3099,6.42,6.5301,6.704,6.8508,7.0881,7.4992,7.5726,7.6093,7.6812,7.6995,7.7069,7.7179,7.7179,7.7215,7.7289,7.7289,7.7693,7.8552,7.9376,8.0183,8.0975,8.1782,8.2186,8.2186,8.2186,8.2186,8.2186,8.2186,8.2186,8.2186,8.2186,8.2186,8.2186,8.2186,8.2186,8.2186,8.2186,8.2186,8.2186,8.2186,8.2186,8.2186,8.2186,8.2186,8.2186,8.2186,8.2186,8.2186,8.2186,8.2186,8.2186,8.2186,8.2186,8.2186,8.2186,8.2186,8.2186,8.2186,8.2186,8.2186,8.2186,8.2186,8.2186,8.2186,8.2186,8.2186,8.2186,8.2186,8.2186,8.2186,8.2186,8.2186,8.2186,8.2186,8.2186,8.2186,8.2186,8.2186,8.2186,8.2186,8.2186,8.2186,8.2186,8.2186,8.2186,8.2186,8.2186,8.2186,8.2186,8.2186,8.2186,8.2186,8.2186,8.2186,8.2186,8.2186,8.2186,8.2186,8.2186,0.0,0.0,0.0,0.0,0.0,0.0,4.949,5.0922,5.2417,5.484,5.5978,5.7274,5.971,6.0811,6.2108,6.4433,6.5057,6.688,7.1564,7.334,7.4221,7.4368,7.4992,7.5601,7.6276,7.635,7.6592,7.7252,7.7289,7.7693,7.8552,7.9376,8.0183,8.0975,8.1782,8.2186,8.2186,8.2186,8.2186,8.2186,8.2186,8.2186,8.2186,8.2186,8.2186,8.2186,8.2186,8.2186,8.2186,8.2186,8.2186,8.2186,8.2186,8.2186,8.2186,8.2186,8.2186,8.2186,8.2186,8.2186,8.2186,8.2186,8.2186,8.2186,8.2186,8.2186,8.2186,8.2186,8.2186,8.2186,8.2186,8.2186,8.2186,8.2186,8.2186,8.2186,8.2186,8.2186,8.2186,8.2186,8.2186,8.2186,8.2186,8.2186,8.2186,8.2186,8.2186,8.2186,8.2186,8.2186,8.2186,8.2186,8.2186,8.2186,8.2186,8.2186,8.2186,8.2186,8.2186,8.2186,8.2186,8.2186,8.2186,8.2186,8.2186,8.2186,8.2186,8.2186,8.2186,8.2186,8.2186,8.2186,0.0,0.0,0.0,4.4085,0.0,0.0,0.0,4.8379,4.9654,5.2087,5.2931,5.3922,5.637,5.7446,5.8657,6.0725,6.1741,6.3246,6.6072,6.8898,7.1138,7.2349,7.2848,7.3582,7.4771,7.4882,7.5395,7.6592,7.7069,7.7509,7.7913,7.914,8.0,8.0388,8.1562,8.2186,8.2186,8.2186,8.2186,8.2186,8.2186,8.2186,8.2186,8.2186,8.2186,8.2186,8.2186,8.2186,8.2186,8.2186,8.2186,8.2186,8.2186,8.2186,8.2186,8.2186,8.2186,8.2186,8.2186,8.2186,8.2186,8.2186,8.2186,8.2186,8.2186,8.2186,8.2186,8.2186,8.2186,8.2186,8.2186,8.2186,8.2186,8.2186,8.2186,8.2186,8.2186,8.2186,8.2186,8.2186,8.2186,8.2186,8.2186,8.2186,8.2186,8.2186,8.2186,8.2186,8.2186,8.2186,8.2186,8.2186,8.2186,8.2186,8.2186,8.2186,8.2186,8.2186,8.2186,8.2186,8.2186,8.2186,8.2186,8.2186,8.2186,8.2186,8.2186,8.2186,8.2186,8.2186,8.2186,8.2186,0.0,0.0,0.0,0.0,0.0,4.5104,0.0,0.0,0.0,4.9654,5.0215,5.1022,5.3298,5.4363,5.5291,5.6418,5.8107,5.9428,5.9905,6.3368,6.688,6.9802,7.0279,7.105,7.2826,7.3428,7.4294,7.5763,7.6592,7.7142,7.7289,7.8883,7.9816,7.9816,8.1342,8.2186,8.2186,8.2186,8.2186,8.2186,8.2186,8.2186,8.2186,8.2186,8.2186,8.2186,8.2186,8.2186,8.2186,8.2186,8.2186,8.2186,8.2186,8.2186,8.2186,8.2186,8.2186,8.2186,8.2186,8.2186,8.2186,8.2186,8.2186,8.2186,8.2186,8.2186,8.2186,8.2186,8.2186,8.2186,8.2186,8.2186,8.2186,8.2186,8.2186,8.2186,8.2186,8.2186,8.2186,8.2186,8.2186,8.2186,8.2186,8.2186,8.2186,8.2186,8.2186,8.2186,8.2186,8.2186,8.2186,8.2186,8.2186,8.2186,8.2186,8.2186,8.2186,8.2186,8.2186,8.2186,8.2186,8.2186,8.2186,8.2186,8.2186,8.2186,8.2186,8.2186,8.2186,8.2186,8.2186,8.2186,0.0,0.0,0.0,0.0,4.6205,0.0,0.0,0.0,4.6324,4.7333,0.0,4.9104,5.0875,0.0,0.0,5.1683,5.3555,5.4876,5.4242,5.7005,6.0823,6.5435,6.6623,6.7944,7.0293,7.2422,7.4074,7.4977,7.5799,7.6555,7.7252,7.8883,7.9816,7.9816,8.1342,8.2186,8.2186,8.2186,8.2186,8.2186,8.2186,8.2186,8.2186,8.2186,8.2186,8.2186,8.2186,8.2186,8.2186,8.2186,8.2186,8.2186,8.2186,8.2186,8.2186,8.2186,8.2186,8.2186,8.2186,8.2186,8.2186,8.2186,8.2186,8.2186,8.2186,8.2186,8.2186,8.2186,8.2186,8.2186,8.2186,8.2186,8.2186,8.2186,8.2186,8.2186,8.2186,8.2186,8.2186,8.2186,8.2186,8.2186,8.2186,8.2186,8.2186,8.2186,8.2186,8.2186,8.2186,8.2186,8.2186,8.2186,8.2186,8.2186,8.2186,8.2186,8.2186,8.2186,8.2186,8.2186,8.2186,8.2186,8.2186,8.2186,8.2186,8.2186,8.2186,8.2186,8.2186,8.2186,8.2186,8.2186,0.0,0.0,0.0,0.0,0.0,0.0,4.5993,0.0,4.5434,0.0,0.0,0.0,0.0,0.0,0.0,0.0,5.0912,5.1793,5.2417,5.3665,5.6492,6.1802,6.3172,6.4604,6.71,6.9926,7.1945,7.2738,7.4845,7.624,7.6607,7.8626,7.9816,7.9816,8.1342,8.2186,8.2186,8.2186,8.2186,8.2186,8.2186,8.2186,8.2186,8.2186,8.2186,8.2186,8.2186,8.2186,8.2186,8.2186,8.2186,8.2186,8.2186,8.2186,8.2186,8.2186,8.2186,8.2186,8.2186,8.2186,8.2186,8.2186,8.2186,8.2186,8.2186,8.2186,8.2186,8.2186,8.2186,8.2186,8.2186,8.2186,8.2186,8.2186,8.2186,8.2186,8.2186,8.2186,8.2186,8.2186,8.2186,8.2186,8.2186,8.2186,8.2186,8.2186,8.2186,8.2186,8.2186,8.2186,8.2186,8.2186,8.2186,8.2186,8.2186,8.2186,8.2186,8.2186,8.2186,8.2186,8.2186,8.2186,8.2186,8.2186,8.2186,8.2186,8.2186,8.2186,8.2186,8.2186,8.2186,8.2186,5.4939,0.0,0.0,0.0,0.0,0.0,0.0,0.0,0.0,0.0,0.0,0.0,0.0,0.0,0.0,0.0,0.0,4.9114,0.0,5.0765,0.0,0.0,6.0382,6.1998,6.3783,6.7063,6.9522,7.0573,7.3634,7.5616,7.6093,7.8222,7.9559,7.9779,8.1175,8.1966,8.2186,8.2186,8.2186,8.2186,8.2186,8.2186,8.2186,8.2186,8.2186,8.2186,8.2186,8.2186,8.2186,8.2186,8.2186,8.2186,8.2186,8.2186,8.2186,8.2186,8.2186,8.2186,8.2186,8.2333,8.2517,8.2517,8.2663,8.2847,8.2847,8.2847,8.2847,8.2847,8.27,8.2517,8.2517,8.237,8.2186,8.2186,8.2186,8.2186,8.2186,8.2186,8.2186,8.2186,8.2186,8.2186,8.2186,8.2186,8.2186,8.2186,8.2186,8.2186,8.2186,8.2186,8.2186,8.2186,8.2186,8.2186,8.2186,8.2186,8.2186,8.2186,8.2186,8.2186,8.2186,8.2186,8.2186,8.2186,8.2186,8.2186,8.2186,8.2186,8.2186,8.2186,8.2186,8.2186,0.0,0.0,0.0,5.4399,0.0,0.0,0.0,0.0,4.7966,0.0,0.0,0.0,0.0,0.0,0.0,0.0,0.0,0.0,0.0,0.0,0.0,0.0,0.0,0.0,0.0,6.4237,6.7283,0.0,7.1945,7.4441,7.6019,7.7708,7.8993,7.9779,8.0608,8.1415,8.2186,8.2186,8.2186,8.2186,8.2186,8.2186,8.2186,8.2186,8.2186,8.2186,8.2186,8.2186,8.2186,8.2186,8.2186,8.2186,8.2186,8.2186,8.2186,8.2186,8.2186,8.2186,8.2186,8.27,8.3344,8.3344,8.3895,8.4535,8.4535,8.4535,8.4535,8.4535,8.3985,8.3344,8.3344,8.2774,8.2186,8.2186,8.2186,8.2186,8.2186,8.2186,8.2186,8.2186,8.2186,8.2186,8.2186,8.2186,8.2186,8.2186,8.2186,8.2186,8.2186,8.2186,8.2186,8.2186,8.2186,8.2186,8.2186,8.2186,8.2186,8.2186,8.2186,8.2186,8.2186,8.2186,8.2186,8.2186,8.2186,8.2186,8.2186,8.2186,8.2186,8.2186,8.2186,8.2186,6.0835,5.9208,5.7655,5.6334,0.0,0.0,0.0,0.0,0.0,0.0,0.0,0.0,0.0,0.0,0.0,0.0,0.0,0.0,0.0,0.0,0.0,0.0,0.0,0.0,0.0,0.0,0.0,6.6352,6.9986,7.2826,7.4441,7.6555,7.8148,7.8993,8.0314,8.1122,8.1415,8.1929,8.2186,8.2186,8.2186,8.2186,8.2186,8.2186,8.2186,8.2186,8.2186,8.2186,8.2186,8.2186,8.2186,8.2186,8.2186,8.2186,8.2186,8.2186,8.2186,8.226,8.281,8.3161,8.3491,8.4005,8.4389,8.4609,8.4609,8.4609,8.4609,8.4609,8.4389,8.4205,8.4205,8.3618,8.2994,8.2994,8.259,8.2186,8.2186,8.2186,8.2186,8.2186,8.2186,8.2186,8.2186,8.2186,8.2186,8.2186,8.2186,8.2186,8.2186,8.2186,8.2186,8.2186,8.2186,8.2186,8.2186,8.2186,8.2186,8.2186,8.2186,8.2186,8.2186,8.2186,8.2186,8.2186,8.2186,8.2186,8.2186,8.2186,8.2186,8.2186,8.2186,8.2186,6.3429,6.2169,6.0921,5.8976,5.7519,5.6308,5.5526,0.0,5.3125,0.0,0.0,0.0,0.0,0.0,0.0,0.0,0.0,0.0,0.0,4.5397,0.0,0.0,0.0,0.0,0.0,0.0,6.1337,6.3796,6.7724,7.0844,0.0,7.5124,7.6959,7.8112,7.9727,8.0718,8.1012,8.1782,8.2186,8.2186,8.2186,8.2186,8.2186,8.2186,8.2186,8.2186,8.2186,8.2186,8.2186,8.2186,8.2186,8.2186,8.2186,8.2186,8.2186,8.2186,8.237,8.2737,8.3544,8.4022,8.4352,8.4866,8.5233,8.5453,8.5453,8.5453,8.538,8.5123,8.5013,8.4976,8.4682,8.4242,8.3748,8.3454,8.2994,8.2553,8.226,8.2186,8.2186,8.2186,8.2186,8.2186,8.2186,8.2186,8.2186,8.2186,8.2186,8.2186,8.2186,8.2186,8.2186,8.2186,8.2186,8.2186,8.2186,8.2186,8.2186,8.2186,8.2186,8.2186,8.2186,8.2186,8.2186,8.2186,8.2186,8.2186,8.2186,8.2186,8.2186,8.2186,8.2186,8.2186]}]]